<?xml version="1.0" encoding="UTF-8" standalone="no" ?>
<gpx xmlns="http://www.topografix.com/GPX/1/1" xmlns:xsi="http://www.w3.org/2001/XMLSchema-instance" xsi:schemaLocation="http://www.topografix.com/GPX/1/1 http://www.topografix.com/GPX/1/1/gpx.xsd" version="1.1" creator="VisuGPX - https://www.visugpx.com">
  <metadata>
    <name>vtt 60 km autour de caidelle </name>
  </metadata>
  <trk>
    <name><![CDATA[2009MonflanquinCorconat]]></name>
    <extensions>
      <line xmlns="http://www.topografix.com/GPX/gpx_style/0/2">
        <color>0000FF</color>
        <width>4</width>
      </line>
    </extensions>
    <trkseg>
      <trkpt lat="44.52999" lon="0.76865">
        <ele>148</ele>
        <time>2007-03-27T15:43:12Z</time>
      </trkpt>
      <trkpt lat="44.52995" lon="0.76889">
        <ele>147</ele>
        <time>2007-03-27T15:43:12Z</time>
      </trkpt>
      <trkpt lat="44.52996" lon="0.76903">
        <ele>146</ele>
        <time>2009-02-25T17:05:56Z</time>
      </trkpt>
      <trkpt lat="44.53008" lon="0.76904">
        <ele>148</ele>
        <time>2009-02-25T17:05:56Z</time>
      </trkpt>
      <trkpt lat="44.53017" lon="0.76916">
        <ele>149</ele>
        <time>2009-02-25T17:05:56Z</time>
      </trkpt>
      <trkpt lat="44.53014" lon="0.76935">
        <ele>147</ele>
        <time>2007-03-27T15:43:12Z</time>
      </trkpt>
      <trkpt lat="44.53016" lon="0.76972">
        <ele>145</ele>
        <time>2007-03-27T15:43:12Z</time>
      </trkpt>
      <trkpt lat="44.53021" lon="0.77008">
        <ele>143</ele>
        <time>2007-03-27T15:43:12Z</time>
      </trkpt>
      <trkpt lat="44.53025" lon="0.77038">
        <ele>141</ele>
        <time>2007-03-27T15:43:12Z</time>
      </trkpt>
      <trkpt lat="44.53016" lon="0.77044">
        <ele>139</ele>
        <time>2009-02-25T17:05:56Z</time>
      </trkpt>
      <trkpt lat="44.52991" lon="0.77058">
        <ele>135</ele>
        <time>2007-03-27T15:43:12Z</time>
      </trkpt>
      <trkpt lat="44.52975" lon="0.77086">
        <ele>131</ele>
        <time>2007-03-27T15:43:12Z</time>
      </trkpt>
      <trkpt lat="44.52956" lon="0.77122">
        <ele>125</ele>
        <time>2007-03-27T15:43:12Z</time>
      </trkpt>
      <trkpt lat="44.52935" lon="0.77162">
        <ele>120</ele>
        <time>2007-03-27T15:43:12Z</time>
      </trkpt>
      <trkpt lat="44.52926" lon="0.77188">
        <ele>120</ele>
        <time>2007-03-27T15:43:12Z</time>
      </trkpt>
      <trkpt lat="44.52918" lon="0.77222">
        <ele>120</ele>
        <time>2007-03-27T15:43:12Z</time>
      </trkpt>
      <trkpt lat="44.5291" lon="0.77273">
        <ele>121</ele>
        <time>2007-03-27T15:43:12Z</time>
      </trkpt>
      <trkpt lat="44.52899" lon="0.77314">
        <ele>123</ele>
        <time>2007-03-27T15:43:12Z</time>
      </trkpt>
      <trkpt lat="44.52892" lon="0.7733">
        <ele>123</ele>
        <time>2007-03-27T15:43:12Z</time>
      </trkpt>
      <trkpt lat="44.52875" lon="0.77351">
        <ele>124</ele>
        <time>2007-03-27T15:43:12Z</time>
      </trkpt>
      <trkpt lat="44.52857" lon="0.77364">
        <ele>123</ele>
        <time>2007-03-27T15:43:12Z</time>
      </trkpt>
      <trkpt lat="44.52829" lon="0.77374">
        <ele>121</ele>
        <time>2007-03-27T15:43:12Z</time>
      </trkpt>
      <trkpt lat="44.52801" lon="0.77381">
        <ele>118</ele>
        <time>2007-03-27T15:43:12Z</time>
      </trkpt>
      <trkpt lat="44.52783" lon="0.77421">
        <ele>116</ele>
        <time>2007-03-27T15:43:12Z</time>
      </trkpt>
      <trkpt lat="44.52761" lon="0.77459">
        <ele>113</ele>
        <time>2007-03-27T15:43:12Z</time>
      </trkpt>
      <trkpt lat="44.52743" lon="0.77477">
        <ele>112</ele>
        <time>2007-03-27T15:43:12Z</time>
      </trkpt>
      <trkpt lat="44.52722" lon="0.7749">
        <ele>111</ele>
        <time>2007-03-27T15:43:12Z</time>
      </trkpt>
      <trkpt lat="44.52713" lon="0.77519">
        <ele>111</ele>
        <time>2007-03-27T15:43:12Z</time>
      </trkpt>
      <trkpt lat="44.52692" lon="0.77545">
        <ele>111</ele>
        <time>2007-03-27T15:43:12Z</time>
      </trkpt>
      <trkpt lat="44.5267" lon="0.77561">
        <ele>109</ele>
        <time>2007-03-27T15:43:12Z</time>
      </trkpt>
      <trkpt lat="44.52642" lon="0.7757">
        <ele>108</ele>
        <time>2007-03-27T15:43:12Z</time>
      </trkpt>
      <trkpt lat="44.52617" lon="0.77572">
        <ele>108</ele>
        <time>2007-03-27T15:43:12Z</time>
      </trkpt>
      <trkpt lat="44.52572" lon="0.77578">
        <ele>108</ele>
        <time>2007-03-27T15:43:12Z</time>
      </trkpt>
      <trkpt lat="44.52534" lon="0.77576">
        <ele>106</ele>
        <time>2007-03-27T15:43:12Z</time>
      </trkpt>
      <trkpt lat="44.5248" lon="0.77571">
        <ele>102</ele>
        <time>2007-03-27T15:43:12Z</time>
      </trkpt>
      <trkpt lat="44.52336" lon="0.77578">
        <ele>101</ele>
        <time>2007-03-27T15:43:12Z</time>
      </trkpt>
      <trkpt lat="44.52158" lon="0.77585">
        <ele>100</ele>
        <time>2007-03-27T15:43:12Z</time>
      </trkpt>
      <trkpt lat="44.52088" lon="0.77585">
        <ele>97</ele>
        <time>2007-03-27T15:43:12Z</time>
      </trkpt>
      <trkpt lat="44.52085" lon="0.77683">
        <ele>99</ele>
        <time>2007-03-27T15:43:12Z</time>
      </trkpt>
      <trkpt lat="44.51993" lon="0.77682">
        <ele>93</ele>
        <time>2009-02-25T17:05:56Z</time>
      </trkpt>
      <trkpt lat="44.51982" lon="0.77665">
        <ele>93</ele>
        <time>2007-03-27T15:43:12Z</time>
      </trkpt>
      <trkpt lat="44.51978" lon="0.77649">
        <ele>92</ele>
        <time>2009-02-25T17:05:56Z</time>
      </trkpt>
      <trkpt lat="44.51971" lon="0.77615">
        <ele>91</ele>
        <time>2009-02-25T17:05:56Z</time>
      </trkpt>
      <trkpt lat="44.51951" lon="0.77612">
        <ele>90</ele>
        <time>2007-03-27T15:43:12Z</time>
      </trkpt>
      <trkpt lat="44.51905" lon="0.77612">
        <ele>90</ele>
        <time>2007-03-27T15:43:12Z</time>
      </trkpt>
      <trkpt lat="44.51904" lon="0.7759">
        <ele>90</ele>
        <time>2007-03-27T15:43:12Z</time>
      </trkpt>
      <trkpt lat="44.51902" lon="0.77554">
        <ele>90</ele>
        <time>2007-03-27T15:43:12Z</time>
      </trkpt>
      <trkpt lat="44.51892" lon="0.77517">
        <ele>90</ele>
        <time>2007-03-27T15:43:12Z</time>
      </trkpt>
      <trkpt lat="44.51878" lon="0.77471">
        <ele>90</ele>
        <time>2007-03-27T15:43:12Z</time>
      </trkpt>
      <trkpt lat="44.51869" lon="0.77443">
        <ele>90</ele>
        <time>2007-03-27T15:43:12Z</time>
      </trkpt>
      <trkpt lat="44.51861" lon="0.77425">
        <ele>90</ele>
        <time>2007-03-27T15:43:12Z</time>
      </trkpt>
      <trkpt lat="44.51843" lon="0.77452">
        <ele>90</ele>
        <time>2007-03-27T15:43:12Z</time>
      </trkpt>
      <trkpt lat="44.51814" lon="0.77501">
        <ele>91</ele>
        <time>2007-03-27T15:43:12Z</time>
      </trkpt>
      <trkpt lat="44.51787" lon="0.77551">
        <ele>92</ele>
        <time>2007-03-27T15:43:12Z</time>
      </trkpt>
      <trkpt lat="44.51759" lon="0.77593">
        <ele>94</ele>
        <time>2007-03-27T15:43:12Z</time>
      </trkpt>
      <trkpt lat="44.51729" lon="0.77625">
        <ele>97</ele>
        <time>2007-03-27T15:43:12Z</time>
      </trkpt>
      <trkpt lat="44.51695" lon="0.77657">
        <ele>99</ele>
        <time>2007-03-27T15:43:12Z</time>
      </trkpt>
      <trkpt lat="44.51665" lon="0.77682">
        <ele>100</ele>
        <time>2007-03-27T15:43:12Z</time>
      </trkpt>
      <trkpt lat="44.51633" lon="0.77706">
        <ele>99</ele>
        <time>2007-03-27T15:43:12Z</time>
      </trkpt>
      <trkpt lat="44.51599" lon="0.77724">
        <ele>100</ele>
        <time>2007-03-27T15:43:12Z</time>
      </trkpt>
      <trkpt lat="44.51572" lon="0.77734">
        <ele>100</ele>
        <time>2007-03-27T15:43:12Z</time>
      </trkpt>
      <trkpt lat="44.51519" lon="0.77753">
        <ele>100</ele>
        <time>2007-03-27T15:43:12Z</time>
      </trkpt>
      <trkpt lat="44.51462" lon="0.77777">
        <ele>101</ele>
        <time>2007-03-27T15:43:12Z</time>
      </trkpt>
      <trkpt lat="44.51381" lon="0.7781">
        <ele>104</ele>
        <time>2007-03-27T15:43:12Z</time>
      </trkpt>
      <trkpt lat="44.51369" lon="0.77764">
        <ele>105</ele>
        <time>2007-03-27T15:43:12Z</time>
      </trkpt>
      <trkpt lat="44.51338" lon="0.77661">
        <ele>106</ele>
        <time>2007-03-27T15:43:12Z</time>
      </trkpt>
      <trkpt lat="44.51304" lon="0.77549">
        <ele>103</ele>
        <time>2007-03-27T15:43:12Z</time>
      </trkpt>
      <trkpt lat="44.51275" lon="0.77438">
        <ele>101</ele>
        <time>2007-03-27T15:43:12Z</time>
      </trkpt>
      <trkpt lat="44.51291" lon="0.77437">
        <ele>101</ele>
        <time>2007-03-27T15:43:12Z</time>
      </trkpt>
      <trkpt lat="44.51308" lon="0.77387">
        <ele>101</ele>
        <time>2007-03-27T15:43:12Z</time>
      </trkpt>
      <trkpt lat="44.51332" lon="0.77259">
        <ele>100</ele>
        <time>2007-03-27T15:43:12Z</time>
      </trkpt>
      <trkpt lat="44.51353" lon="0.77118">
        <ele>93</ele>
        <time>2007-03-27T15:43:12Z</time>
      </trkpt>
      <trkpt lat="44.51373" lon="0.76984">
        <ele>92</ele>
        <time>2007-03-27T15:43:12Z</time>
      </trkpt>
      <trkpt lat="44.5139" lon="0.76924">
        <ele>92</ele>
        <time>2007-03-27T15:43:12Z</time>
      </trkpt>
      <trkpt lat="44.51427" lon="0.76865">
        <ele>91</ele>
        <time>2009-02-25T17:05:56Z</time>
      </trkpt>
      <trkpt lat="44.5146" lon="0.76774">
        <ele>81</ele>
        <time>2007-03-27T15:43:12Z</time>
      </trkpt>
      <trkpt lat="44.51459" lon="0.76746">
        <ele>79</ele>
        <time>2007-03-27T15:43:12Z</time>
      </trkpt>
      <trkpt lat="44.51434" lon="0.76747">
        <ele>81</ele>
        <time>2007-03-27T15:43:12Z</time>
      </trkpt>
      <trkpt lat="44.51411" lon="0.76744">
        <ele>81</ele>
        <time>2007-03-27T15:43:12Z</time>
      </trkpt>
      <trkpt lat="44.51373" lon="0.76728">
        <ele>80</ele>
        <time>2007-03-27T15:43:12Z</time>
      </trkpt>
      <trkpt lat="44.51334" lon="0.7671">
        <ele>82</ele>
        <time>2007-03-27T15:43:12Z</time>
      </trkpt>
      <trkpt lat="44.51305" lon="0.76694">
        <ele>83</ele>
        <time>2007-03-27T15:43:12Z</time>
      </trkpt>
      <trkpt lat="44.51265" lon="0.76665">
        <ele>84</ele>
        <time>2007-03-27T15:43:12Z</time>
      </trkpt>
      <trkpt lat="44.51246" lon="0.76653">
        <ele>84</ele>
        <time>2007-03-27T15:43:12Z</time>
      </trkpt>
      <trkpt lat="44.51219" lon="0.76644">
        <ele>85</ele>
        <time>2007-03-27T15:43:12Z</time>
      </trkpt>
      <trkpt lat="44.51194" lon="0.76637">
        <ele>85</ele>
        <time>2007-03-27T15:43:12Z</time>
      </trkpt>
      <trkpt lat="44.51166" lon="0.76616">
        <ele>80</ele>
        <time>2007-03-27T15:43:12Z</time>
      </trkpt>
      <trkpt lat="44.51153" lon="0.76607">
        <ele>79</ele>
        <time>2007-03-27T15:43:12Z</time>
      </trkpt>
      <trkpt lat="44.51131" lon="0.76579">
        <ele>77</ele>
        <time>2007-03-27T15:43:12Z</time>
      </trkpt>
      <trkpt lat="44.51109" lon="0.76553">
        <ele>78</ele>
        <time>2007-03-27T15:43:12Z</time>
      </trkpt>
      <trkpt lat="44.51052" lon="0.76514">
        <ele>78</ele>
        <time>2007-03-27T15:43:12Z</time>
      </trkpt>
      <trkpt lat="44.5102" lon="0.76499">
        <ele>78</ele>
        <time>2007-03-27T15:43:12Z</time>
      </trkpt>
      <trkpt lat="44.50906" lon="0.76463">
        <ele>76</ele>
        <time>2007-03-27T15:43:12Z</time>
      </trkpt>
      <trkpt lat="44.50807" lon="0.76433">
        <ele>77</ele>
        <time>2007-03-27T15:43:12Z</time>
      </trkpt>
      <trkpt lat="44.50786" lon="0.76436">
        <ele>76</ele>
        <time>2007-03-27T15:43:12Z</time>
      </trkpt>
      <trkpt lat="44.50757" lon="0.76473">
        <ele>78</ele>
        <time>2007-03-27T15:43:12Z</time>
      </trkpt>
      <trkpt lat="44.50632" lon="0.76628">
        <ele>76</ele>
        <time>2007-03-27T15:43:12Z</time>
      </trkpt>
      <trkpt lat="44.50602" lon="0.7666">
        <ele>76</ele>
        <time>2007-03-27T15:43:12Z</time>
      </trkpt>
      <trkpt lat="44.50573" lon="0.76702">
        <ele>77</ele>
        <time>2007-03-27T15:43:12Z</time>
      </trkpt>
      <trkpt lat="44.50539" lon="0.76743">
        <ele>78</ele>
        <time>2007-03-27T15:43:12Z</time>
      </trkpt>
      <trkpt lat="44.50503" lon="0.76763">
        <ele>78</ele>
        <time>2007-03-27T15:43:12Z</time>
      </trkpt>
      <trkpt lat="44.50422" lon="0.76803">
        <ele>79</ele>
        <time>2007-03-27T15:43:12Z</time>
      </trkpt>
      <trkpt lat="44.5039" lon="0.7682">
        <ele>78</ele>
        <time>2007-03-27T15:43:12Z</time>
      </trkpt>
      <trkpt lat="44.50357" lon="0.76841">
        <ele>75</ele>
        <time>2007-03-27T15:43:12Z</time>
      </trkpt>
      <trkpt lat="44.50333" lon="0.7681">
        <ele>73</ele>
        <time>2007-03-27T15:43:12Z</time>
      </trkpt>
      <trkpt lat="44.50312" lon="0.76773">
        <ele>71</ele>
        <time>2007-03-27T15:43:12Z</time>
      </trkpt>
      <trkpt lat="44.50261" lon="0.76734">
        <ele>71</ele>
        <time>2007-03-27T15:43:12Z</time>
      </trkpt>
      <trkpt lat="44.50229" lon="0.76718">
        <ele>71</ele>
        <time>2007-03-27T15:43:12Z</time>
      </trkpt>
      <trkpt lat="44.50183" lon="0.767">
        <ele>73</ele>
        <time>2007-03-27T15:43:12Z</time>
      </trkpt>
      <trkpt lat="44.50082" lon="0.76662">
        <ele>71</ele>
        <time>2007-03-27T15:43:12Z</time>
      </trkpt>
      <trkpt lat="44.50034" lon="0.76629">
        <ele>69</ele>
        <time>2007-03-27T15:43:12Z</time>
      </trkpt>
      <trkpt lat="44.4999" lon="0.76605">
        <ele>71</ele>
        <time>2007-03-27T15:43:12Z</time>
      </trkpt>
      <trkpt lat="44.49953" lon="0.76584">
        <ele>71</ele>
        <time>2007-03-27T15:43:12Z</time>
      </trkpt>
      <trkpt lat="44.49864" lon="0.76533">
        <ele>71</ele>
        <time>2007-03-27T15:43:12Z</time>
      </trkpt>
      <trkpt lat="44.49821" lon="0.76512">
        <ele>70</ele>
        <time>2007-03-27T15:43:12Z</time>
      </trkpt>
      <trkpt lat="44.49779" lon="0.76485">
        <ele>72</ele>
        <time>2007-03-27T15:43:12Z</time>
      </trkpt>
      <trkpt lat="44.49736" lon="0.76452">
        <ele>73</ele>
        <time>2007-03-27T15:43:12Z</time>
      </trkpt>
      <trkpt lat="44.49702" lon="0.76412">
        <ele>75</ele>
        <time>2007-03-27T15:43:12Z</time>
      </trkpt>
      <trkpt lat="44.49661" lon="0.76366">
        <ele>75</ele>
        <time>2007-03-27T15:43:12Z</time>
      </trkpt>
      <trkpt lat="44.49634" lon="0.76332">
        <ele>76</ele>
        <time>2007-03-27T15:43:12Z</time>
      </trkpt>
      <trkpt lat="44.49607" lon="0.76306">
        <ele>76</ele>
        <time>2007-03-27T15:43:12Z</time>
      </trkpt>
      <trkpt lat="44.49588" lon="0.76292">
        <ele>78</ele>
        <time>2007-03-27T15:43:12Z</time>
      </trkpt>
      <trkpt lat="44.49564" lon="0.76281">
        <ele>79</ele>
        <time>2007-03-27T15:43:12Z</time>
      </trkpt>
      <trkpt lat="44.49526" lon="0.76282">
        <ele>83</ele>
        <time>2007-03-27T15:43:12Z</time>
      </trkpt>
      <trkpt lat="44.49506" lon="0.76282">
        <ele>83</ele>
        <time>2007-03-27T15:43:12Z</time>
      </trkpt>
      <trkpt lat="44.49486" lon="0.76287">
        <ele>83</ele>
        <time>2007-03-27T15:43:12Z</time>
      </trkpt>
      <trkpt lat="44.49462" lon="0.76299">
        <ele>82</ele>
        <time>2007-03-27T15:43:12Z</time>
      </trkpt>
      <trkpt lat="44.49446" lon="0.76315">
        <ele>82</ele>
        <time>2007-03-27T15:43:12Z</time>
      </trkpt>
      <trkpt lat="44.49423" lon="0.76335">
        <ele>81</ele>
        <time>2007-03-27T15:43:12Z</time>
      </trkpt>
      <trkpt lat="44.49402" lon="0.76343">
        <ele>80</ele>
        <time>2007-03-27T15:43:12Z</time>
      </trkpt>
      <trkpt lat="44.49379" lon="0.7635">
        <ele>81</ele>
        <time>2007-03-27T15:43:12Z</time>
      </trkpt>
      <trkpt lat="44.49405" lon="0.76376">
        <ele>82</ele>
        <time>2007-03-27T15:43:12Z</time>
      </trkpt>
      <trkpt lat="44.49424" lon="0.76407">
        <ele>86</ele>
        <time>2007-03-27T15:43:12Z</time>
      </trkpt>
      <trkpt lat="44.49433" lon="0.76443">
        <ele>88</ele>
        <time>2007-03-27T15:43:12Z</time>
      </trkpt>
      <trkpt lat="44.4944" lon="0.76471">
        <ele>89</ele>
        <time>2007-03-27T15:43:12Z</time>
      </trkpt>
      <trkpt lat="44.49445" lon="0.76529">
        <ele>90</ele>
        <time>2007-03-27T15:43:12Z</time>
      </trkpt>
      <trkpt lat="44.49453" lon="0.76599">
        <ele>93</ele>
        <time>2007-03-27T15:43:12Z</time>
      </trkpt>
      <trkpt lat="44.49457" lon="0.76659">
        <ele>95</ele>
        <time>2007-03-27T15:43:12Z</time>
      </trkpt>
      <trkpt lat="44.49457" lon="0.76712">
        <ele>95</ele>
        <time>2007-03-27T15:43:12Z</time>
      </trkpt>
      <trkpt lat="44.49455" lon="0.76763">
        <ele>96</ele>
        <time>2007-03-27T15:43:12Z</time>
      </trkpt>
      <trkpt lat="44.49453" lon="0.76788">
        <ele>96</ele>
        <time>2007-03-27T15:43:12Z</time>
      </trkpt>
      <trkpt lat="44.49451" lon="0.76832">
        <ele>96</ele>
        <time>2007-03-27T15:43:12Z</time>
      </trkpt>
      <trkpt lat="44.49447" lon="0.76873">
        <ele>97</ele>
        <time>2007-03-27T15:43:12Z</time>
      </trkpt>
      <trkpt lat="44.49445" lon="0.76914">
        <ele>98</ele>
        <time>2007-03-27T15:43:12Z</time>
      </trkpt>
      <trkpt lat="44.49447" lon="0.76959">
        <ele>99</ele>
        <time>2007-03-27T15:43:12Z</time>
      </trkpt>
      <trkpt lat="44.49446" lon="0.77002">
        <ele>100</ele>
        <time>2007-03-27T15:43:12Z</time>
      </trkpt>
      <trkpt lat="44.49379" lon="0.76993">
        <ele>100</ele>
        <time>2007-03-27T15:43:12Z</time>
      </trkpt>
      <trkpt lat="44.49326" lon="0.76986">
        <ele>99</ele>
        <time>2007-03-27T15:43:12Z</time>
      </trkpt>
      <trkpt lat="44.49277" lon="0.76983">
        <ele>99</ele>
        <time>2007-03-27T15:43:12Z</time>
      </trkpt>
      <trkpt lat="44.49236" lon="0.76981">
        <ele>100</ele>
        <time>2007-03-27T15:43:12Z</time>
      </trkpt>
      <trkpt lat="44.49208" lon="0.76974">
        <ele>100</ele>
        <time>2007-03-27T15:43:12Z</time>
      </trkpt>
      <trkpt lat="44.49175" lon="0.76964">
        <ele>100</ele>
        <time>2007-03-27T15:43:12Z</time>
      </trkpt>
      <trkpt lat="44.49138" lon="0.76947">
        <ele>100</ele>
        <time>2007-03-27T15:43:12Z</time>
      </trkpt>
      <trkpt lat="44.491" lon="0.76923">
        <ele>98</ele>
        <time>2007-03-27T15:43:12Z</time>
      </trkpt>
      <trkpt lat="44.49063" lon="0.76895">
        <ele>96</ele>
        <time>2007-03-27T15:43:12Z</time>
      </trkpt>
      <trkpt lat="44.49036" lon="0.76869">
        <ele>94</ele>
        <time>2007-03-27T15:43:12Z</time>
      </trkpt>
      <trkpt lat="44.49009" lon="0.76847">
        <ele>93</ele>
        <time>2007-03-27T15:43:12Z</time>
      </trkpt>
      <trkpt lat="44.48995" lon="0.76838">
        <ele>93</ele>
        <time>2007-03-27T15:43:12Z</time>
      </trkpt>
      <trkpt lat="44.4898" lon="0.76837">
        <ele>91</ele>
        <time>2007-03-27T15:43:12Z</time>
      </trkpt>
      <trkpt lat="44.48967" lon="0.76838">
        <ele>91</ele>
        <time>2007-03-27T15:43:12Z</time>
      </trkpt>
      <trkpt lat="44.48955" lon="0.76846">
        <ele>89</ele>
        <time>2007-03-27T15:43:12Z</time>
      </trkpt>
      <trkpt lat="44.48933" lon="0.76861">
        <ele>87</ele>
        <time>2007-03-27T15:43:12Z</time>
      </trkpt>
      <trkpt lat="44.48904" lon="0.76872">
        <ele>83</ele>
        <time>2007-03-27T15:43:12Z</time>
      </trkpt>
      <trkpt lat="44.48866" lon="0.76881">
        <ele>78</ele>
        <time>2007-03-27T15:43:12Z</time>
      </trkpt>
      <trkpt lat="44.48808" lon="0.76894">
        <ele>72</ele>
        <time>2007-03-27T15:43:12Z</time>
      </trkpt>
      <trkpt lat="44.48779" lon="0.76902">
        <ele>70</ele>
        <time>2007-03-27T15:43:12Z</time>
      </trkpt>
      <trkpt lat="44.48765" lon="0.76914">
        <ele>69</ele>
        <time>2007-03-27T15:43:12Z</time>
      </trkpt>
      <trkpt lat="44.48745" lon="0.7694">
        <ele>68</ele>
        <time>2007-03-27T15:43:12Z</time>
      </trkpt>
      <trkpt lat="44.4872" lon="0.7698">
        <ele>66</ele>
        <time>2007-03-27T15:43:12Z</time>
      </trkpt>
      <trkpt lat="44.48699" lon="0.77005">
        <ele>66</ele>
        <time>2007-03-27T15:43:12Z</time>
      </trkpt>
      <trkpt lat="44.48678" lon="0.77033">
        <ele>66</ele>
        <time>2007-03-27T15:43:12Z</time>
      </trkpt>
      <trkpt lat="44.48656" lon="0.77057">
        <ele>67</ele>
        <time>2007-03-27T15:43:12Z</time>
      </trkpt>
      <trkpt lat="44.48644" lon="0.77063">
        <ele>68</ele>
        <time>2007-03-27T15:43:12Z</time>
      </trkpt>
      <trkpt lat="44.48623" lon="0.77073">
        <ele>70</ele>
        <time>2007-03-27T15:43:12Z</time>
      </trkpt>
      <trkpt lat="44.48604" lon="0.77077">
        <ele>72</ele>
        <time>2007-03-27T15:43:12Z</time>
      </trkpt>
      <trkpt lat="44.48583" lon="0.77089">
        <ele>76</ele>
        <time>2007-03-27T15:43:12Z</time>
      </trkpt>
      <trkpt lat="44.48564" lon="0.77099">
        <ele>80</ele>
        <time>2007-03-27T15:43:12Z</time>
      </trkpt>
      <trkpt lat="44.48543" lon="0.77112">
        <ele>84</ele>
        <time>2007-03-27T15:43:12Z</time>
      </trkpt>
      <trkpt lat="44.48521" lon="0.77126">
        <ele>89</ele>
        <time>2007-03-27T15:43:12Z</time>
      </trkpt>
      <trkpt lat="44.48491" lon="0.7713">
        <ele>91</ele>
        <time>2007-03-27T15:43:12Z</time>
      </trkpt>
      <trkpt lat="44.48458" lon="0.77133">
        <ele>93</ele>
        <time>2007-03-27T15:43:12Z</time>
      </trkpt>
      <trkpt lat="44.48425" lon="0.77135">
        <ele>94</ele>
        <time>2007-03-27T15:43:12Z</time>
      </trkpt>
      <trkpt lat="44.48407" lon="0.77137">
        <ele>94</ele>
        <time>2007-03-27T15:43:12Z</time>
      </trkpt>
      <trkpt lat="44.48387" lon="0.77146">
        <ele>94</ele>
        <time>2007-03-27T15:43:12Z</time>
      </trkpt>
      <trkpt lat="44.48365" lon="0.77162">
        <ele>93</ele>
        <time>2007-03-27T15:43:12Z</time>
      </trkpt>
      <trkpt lat="44.48349" lon="0.77177">
        <ele>93</ele>
        <time>2007-03-27T15:43:12Z</time>
      </trkpt>
      <trkpt lat="44.48328" lon="0.77201">
        <ele>93</ele>
        <time>2007-03-27T15:43:12Z</time>
      </trkpt>
      <trkpt lat="44.48302" lon="0.7717">
        <ele>91</ele>
        <time>2007-03-27T15:43:12Z</time>
      </trkpt>
      <trkpt lat="44.48296" lon="0.77147">
        <ele>90</ele>
        <time>2007-03-27T15:43:12Z</time>
      </trkpt>
      <trkpt lat="44.483" lon="0.77131">
        <ele>89</ele>
        <time>2007-03-27T15:43:12Z</time>
      </trkpt>
      <trkpt lat="44.48313" lon="0.77105">
        <ele>90</ele>
        <time>2007-03-27T15:43:12Z</time>
      </trkpt>
      <trkpt lat="44.48269" lon="0.77039">
        <ele>79</ele>
        <time>2009-02-25T17:05:56Z</time>
      </trkpt>
      <trkpt lat="44.48286" lon="0.76971">
        <ele>75</ele>
        <time>2009-02-25T17:05:56Z</time>
      </trkpt>
      <trkpt lat="44.48325" lon="0.76991">
        <ele>81</ele>
        <time>2009-02-25T17:05:56Z</time>
      </trkpt>
      <trkpt lat="44.48344" lon="0.77001">
        <ele>86</ele>
        <time>2007-03-27T15:43:12Z</time>
      </trkpt>
      <trkpt lat="44.48364" lon="0.76974">
        <ele>87</ele>
        <time>2007-03-27T15:43:12Z</time>
      </trkpt>
      <trkpt lat="44.48383" lon="0.76939">
        <ele>84</ele>
        <time>2007-03-27T15:43:12Z</time>
      </trkpt>
      <trkpt lat="44.48405" lon="0.76919">
        <ele>80</ele>
        <time>2007-03-27T15:43:12Z</time>
      </trkpt>
      <trkpt lat="44.48443" lon="0.76901">
        <ele>75</ele>
        <time>2007-03-27T15:43:12Z</time>
      </trkpt>
      <trkpt lat="44.48469" lon="0.76889">
        <ele>73</ele>
        <time>2007-03-27T15:43:12Z</time>
      </trkpt>
      <trkpt lat="44.48475" lon="0.76851">
        <ele>70</ele>
        <time>2007-03-27T15:43:12Z</time>
      </trkpt>
      <trkpt lat="44.48493" lon="0.76799">
        <ele>69</ele>
        <time>2007-03-27T15:43:12Z</time>
      </trkpt>
      <trkpt lat="44.48513" lon="0.76754">
        <ele>68</ele>
        <time>2007-03-27T15:43:12Z</time>
      </trkpt>
      <trkpt lat="44.48525" lon="0.76731">
        <ele>68</ele>
        <time>2007-03-27T15:43:12Z</time>
      </trkpt>
      <trkpt lat="44.4852" lon="0.76687">
        <ele>68</ele>
        <time>2007-03-27T15:43:12Z</time>
      </trkpt>
      <trkpt lat="44.48514" lon="0.76655">
        <ele>69</ele>
        <time>2007-03-27T15:43:12Z</time>
      </trkpt>
      <trkpt lat="44.48507" lon="0.76623">
        <ele>69</ele>
        <time>2007-03-27T15:43:12Z</time>
      </trkpt>
      <trkpt lat="44.48503" lon="0.76601">
        <ele>69</ele>
        <time>2007-03-27T15:43:12Z</time>
      </trkpt>
      <trkpt lat="44.48504" lon="0.76585">
        <ele>69</ele>
        <time>2007-03-27T15:43:12Z</time>
      </trkpt>
      <trkpt lat="44.48508" lon="0.76566">
        <ele>69</ele>
        <time>2007-03-27T15:43:12Z</time>
      </trkpt>
      <trkpt lat="44.48505" lon="0.76555">
        <ele>69</ele>
        <time>2007-03-27T15:43:12Z</time>
      </trkpt>
      <trkpt lat="44.48524" lon="0.76476">
        <ele>69</ele>
        <time>2007-03-27T15:43:12Z</time>
      </trkpt>
      <trkpt lat="44.48525" lon="0.76438">
        <ele>69</ele>
        <time>2007-03-27T15:43:12Z</time>
      </trkpt>
      <trkpt lat="44.4852" lon="0.76401">
        <ele>69</ele>
        <time>2007-03-27T15:43:12Z</time>
      </trkpt>
      <trkpt lat="44.48517" lon="0.76348">
        <ele>68</ele>
        <time>2007-03-27T15:43:12Z</time>
      </trkpt>
      <trkpt lat="44.48521" lon="0.76288">
        <ele>67</ele>
        <time>2007-03-27T15:43:12Z</time>
      </trkpt>
      <trkpt lat="44.48538" lon="0.76239">
        <ele>67</ele>
        <time>2007-03-27T15:43:12Z</time>
      </trkpt>
      <trkpt lat="44.48539" lon="0.76223">
        <ele>67</ele>
        <time>2007-03-27T15:43:12Z</time>
      </trkpt>
      <trkpt lat="44.48514" lon="0.76198">
        <ele>66</ele>
        <time>2007-03-27T15:43:12Z</time>
      </trkpt>
      <trkpt lat="44.48489" lon="0.7616">
        <ele>65</ele>
        <time>2009-02-25T17:05:56Z</time>
      </trkpt>
      <trkpt lat="44.48484" lon="0.76135">
        <ele>65</ele>
        <time>2009-02-25T17:05:56Z</time>
      </trkpt>
      <trkpt lat="44.48493" lon="0.76131">
        <ele>65</ele>
        <time>2009-02-25T17:05:56Z</time>
      </trkpt>
      <trkpt lat="44.4851" lon="0.76131">
        <ele>66</ele>
        <time>2007-03-27T15:43:12Z</time>
      </trkpt>
      <trkpt lat="44.48532" lon="0.76126">
        <ele>68</ele>
        <time>2007-03-27T15:43:12Z</time>
      </trkpt>
      <trkpt lat="44.4855" lon="0.76122">
        <ele>70</ele>
        <time>2007-03-27T15:43:12Z</time>
      </trkpt>
      <trkpt lat="44.48566" lon="0.76109">
        <ele>74</ele>
        <time>2007-03-27T15:43:12Z</time>
      </trkpt>
      <trkpt lat="44.48576" lon="0.76096">
        <ele>77</ele>
        <time>2007-03-27T15:43:12Z</time>
      </trkpt>
      <trkpt lat="44.48584" lon="0.76071">
        <ele>79</ele>
        <time>2007-03-27T15:43:12Z</time>
      </trkpt>
      <trkpt lat="44.48593" lon="0.76047">
        <ele>79</ele>
        <time>2007-03-27T15:43:12Z</time>
      </trkpt>
      <trkpt lat="44.48596" lon="0.76014">
        <ele>78</ele>
        <time>2007-03-27T15:43:12Z</time>
      </trkpt>
      <trkpt lat="44.48597" lon="0.75973">
        <ele>79</ele>
        <time>2007-03-27T15:43:12Z</time>
      </trkpt>
      <trkpt lat="44.48601" lon="0.75899">
        <ele>84</ele>
        <time>2007-03-27T15:43:12Z</time>
      </trkpt>
      <trkpt lat="44.48603" lon="0.75816">
        <ele>84</ele>
        <time>2007-03-27T15:43:12Z</time>
      </trkpt>
      <trkpt lat="44.486" lon="0.75797">
        <ele>84</ele>
        <time>2007-03-27T15:43:12Z</time>
      </trkpt>
      <trkpt lat="44.48597" lon="0.75772">
        <ele>83</ele>
        <time>2007-03-27T15:43:12Z</time>
      </trkpt>
      <trkpt lat="44.48589" lon="0.75753">
        <ele>81</ele>
        <time>2007-03-27T15:43:12Z</time>
      </trkpt>
      <trkpt lat="44.48587" lon="0.75731">
        <ele>81</ele>
        <time>2007-03-27T15:43:12Z</time>
      </trkpt>
      <trkpt lat="44.48587" lon="0.75705">
        <ele>81</ele>
        <time>2007-03-27T15:43:12Z</time>
      </trkpt>
      <trkpt lat="44.48588" lon="0.75697">
        <ele>80</ele>
        <time>2007-03-27T15:43:12Z</time>
      </trkpt>
      <trkpt lat="44.48595" lon="0.75675">
        <ele>80</ele>
        <time>2007-03-27T15:43:12Z</time>
      </trkpt>
      <trkpt lat="44.48524" lon="0.75691">
        <ele>69</ele>
        <time>2007-03-27T15:43:12Z</time>
      </trkpt>
      <trkpt lat="44.48513" lon="0.75625">
        <ele>69</ele>
        <time>2007-03-27T15:43:12Z</time>
      </trkpt>
      <trkpt lat="44.48507" lon="0.75606">
        <ele>69</ele>
        <time>2007-03-27T15:43:12Z</time>
      </trkpt>
      <trkpt lat="44.48488" lon="0.75569">
        <ele>68</ele>
        <time>2007-03-27T15:43:12Z</time>
      </trkpt>
      <trkpt lat="44.48482" lon="0.75515">
        <ele>70</ele>
        <time>2007-03-27T15:43:12Z</time>
      </trkpt>
      <trkpt lat="44.48397" lon="0.75277">
        <ele>71</ele>
        <time>2007-03-27T15:43:12Z</time>
      </trkpt>
      <trkpt lat="44.4841" lon="0.75231">
        <ele>75</ele>
        <time>2007-03-27T15:43:12Z</time>
      </trkpt>
      <trkpt lat="44.48414" lon="0.75198">
        <ele>79</ele>
        <time>2007-03-27T15:43:12Z</time>
      </trkpt>
      <trkpt lat="44.48417" lon="0.75174">
        <ele>81</ele>
        <time>2007-03-27T15:43:12Z</time>
      </trkpt>
      <trkpt lat="44.48411" lon="0.75122">
        <ele>87</ele>
        <time>2007-03-27T15:43:12Z</time>
      </trkpt>
      <trkpt lat="44.4841" lon="0.75092">
        <ele>91</ele>
        <time>2007-03-27T15:43:12Z</time>
      </trkpt>
      <trkpt lat="44.48415" lon="0.75052">
        <ele>94</ele>
        <time>2007-03-27T15:43:12Z</time>
      </trkpt>
      <trkpt lat="44.48417" lon="0.75026">
        <ele>96</ele>
        <time>2007-03-27T15:43:12Z</time>
      </trkpt>
      <trkpt lat="44.48418" lon="0.75003">
        <ele>96</ele>
        <time>2007-03-27T15:43:12Z</time>
      </trkpt>
      <trkpt lat="44.4841" lon="0.74987">
        <ele>97</ele>
        <time>2007-03-27T15:43:12Z</time>
      </trkpt>
      <trkpt lat="44.48392" lon="0.7498">
        <ele>97</ele>
        <time>2007-03-27T15:43:12Z</time>
      </trkpt>
      <trkpt lat="44.48375" lon="0.74969">
        <ele>97</ele>
        <time>2007-03-27T15:43:12Z</time>
      </trkpt>
      <trkpt lat="44.48361" lon="0.74962">
        <ele>97</ele>
        <time>2007-03-27T15:43:12Z</time>
      </trkpt>
      <trkpt lat="44.4835" lon="0.74948">
        <ele>97</ele>
        <time>2007-03-27T15:43:12Z</time>
      </trkpt>
      <trkpt lat="44.48342" lon="0.74934">
        <ele>97</ele>
        <time>2007-03-27T15:43:12Z</time>
      </trkpt>
      <trkpt lat="44.48339" lon="0.74917">
        <ele>96</ele>
        <time>2007-03-27T15:43:12Z</time>
      </trkpt>
      <trkpt lat="44.48342" lon="0.749">
        <ele>96</ele>
        <time>2007-03-27T15:43:12Z</time>
      </trkpt>
      <trkpt lat="44.4835" lon="0.74885">
        <ele>95</ele>
        <time>2007-03-27T15:43:12Z</time>
      </trkpt>
      <trkpt lat="44.48354" lon="0.74877">
        <ele>95</ele>
        <time>2007-03-27T15:43:12Z</time>
      </trkpt>
      <trkpt lat="44.48354" lon="0.74854">
        <ele>94</ele>
        <time>2007-03-27T15:43:12Z</time>
      </trkpt>
      <trkpt lat="44.48348" lon="0.7483">
        <ele>93</ele>
        <time>2007-03-27T15:43:12Z</time>
      </trkpt>
      <trkpt lat="44.48339" lon="0.74813">
        <ele>93</ele>
        <time>2007-03-27T15:43:12Z</time>
      </trkpt>
      <trkpt lat="44.48341" lon="0.74801">
        <ele>93</ele>
        <time>2007-03-27T15:43:12Z</time>
      </trkpt>
      <trkpt lat="44.48383" lon="0.74814">
        <ele>94</ele>
        <time>2007-03-27T15:43:12Z</time>
      </trkpt>
      <trkpt lat="44.4842" lon="0.74649">
        <ele>106</ele>
        <time>2007-03-27T15:43:12Z</time>
      </trkpt>
      <trkpt lat="44.48436" lon="0.74594">
        <ele>109</ele>
        <time>2007-03-27T15:43:12Z</time>
      </trkpt>
      <trkpt lat="44.48504" lon="0.74355">
        <ele>119</ele>
        <time>2007-03-27T15:43:12Z</time>
      </trkpt>
      <trkpt lat="44.48527" lon="0.74266">
        <ele>123</ele>
        <time>2007-03-27T15:43:12Z</time>
      </trkpt>
      <trkpt lat="44.48543" lon="0.742">
        <ele>128</ele>
        <time>2007-03-27T15:43:12Z</time>
      </trkpt>
      <trkpt lat="44.48573" lon="0.74113">
        <ele>134</ele>
        <time>2007-03-27T15:43:12Z</time>
      </trkpt>
      <trkpt lat="44.48608" lon="0.74002">
        <ele>140</ele>
        <time>2007-03-27T15:43:12Z</time>
      </trkpt>
      <trkpt lat="44.48624" lon="0.73945">
        <ele>145</ele>
        <time>2007-03-27T15:43:12Z</time>
      </trkpt>
      <trkpt lat="44.4863" lon="0.73893">
        <ele>150</ele>
        <time>2007-03-27T15:43:12Z</time>
      </trkpt>
      <trkpt lat="44.48634" lon="0.73838">
        <ele>153</ele>
        <time>2007-03-27T15:43:12Z</time>
      </trkpt>
      <trkpt lat="44.4863" lon="0.73786">
        <ele>155</ele>
        <time>2007-03-27T15:43:12Z</time>
      </trkpt>
      <trkpt lat="44.48627" lon="0.73725">
        <ele>156</ele>
        <time>2007-03-27T15:43:12Z</time>
      </trkpt>
      <trkpt lat="44.48628" lon="0.73654">
        <ele>156</ele>
        <time>2007-03-27T15:43:12Z</time>
      </trkpt>
      <trkpt lat="44.48637" lon="0.73603">
        <ele>157</ele>
        <time>2007-03-27T15:43:12Z</time>
      </trkpt>
      <trkpt lat="44.48651" lon="0.73564">
        <ele>158</ele>
        <time>2007-03-27T15:43:12Z</time>
      </trkpt>
      <trkpt lat="44.4868" lon="0.7351">
        <ele>161</ele>
        <time>2007-03-27T15:43:12Z</time>
      </trkpt>
      <trkpt lat="44.48708" lon="0.7346">
        <ele>160</ele>
        <time>2007-03-27T15:43:12Z</time>
      </trkpt>
      <trkpt lat="44.48743" lon="0.73407">
        <ele>159</ele>
        <time>2007-03-27T15:43:12Z</time>
      </trkpt>
      <trkpt lat="44.4879" lon="0.73385">
        <ele>159</ele>
        <time>2007-03-27T15:43:12Z</time>
      </trkpt>
      <trkpt lat="44.48859" lon="0.73365">
        <ele>156</ele>
        <time>2007-03-27T15:43:12Z</time>
      </trkpt>
      <trkpt lat="44.48895" lon="0.73362">
        <ele>155</ele>
        <time>2007-03-27T15:43:12Z</time>
      </trkpt>
      <trkpt lat="44.48919" lon="0.73347">
        <ele>154</ele>
        <time>2007-03-27T15:43:12Z</time>
      </trkpt>
      <trkpt lat="44.48935" lon="0.73333">
        <ele>154</ele>
        <time>2007-03-27T15:43:12Z</time>
      </trkpt>
      <trkpt lat="44.48958" lon="0.73307">
        <ele>155</ele>
        <time>2007-03-27T15:43:12Z</time>
      </trkpt>
      <trkpt lat="44.49" lon="0.73276">
        <ele>155</ele>
        <time>2007-03-27T15:43:12Z</time>
      </trkpt>
      <trkpt lat="44.49056" lon="0.7324">
        <ele>154</ele>
        <time>2007-03-27T15:43:12Z</time>
      </trkpt>
      <trkpt lat="44.49087" lon="0.73215">
        <ele>153</ele>
        <time>2007-03-27T15:43:12Z</time>
      </trkpt>
      <trkpt lat="44.49115" lon="0.73186">
        <ele>154</ele>
        <time>2007-03-27T15:43:12Z</time>
      </trkpt>
      <trkpt lat="44.49137" lon="0.73167">
        <ele>154</ele>
        <time>2007-03-27T15:43:12Z</time>
      </trkpt>
      <trkpt lat="44.49167" lon="0.73139">
        <ele>153</ele>
        <time>2007-03-27T15:43:12Z</time>
      </trkpt>
      <trkpt lat="44.49196" lon="0.73135">
        <ele>152</ele>
        <time>2007-03-27T15:43:12Z</time>
      </trkpt>
      <trkpt lat="44.49232" lon="0.73128">
        <ele>150</ele>
        <time>2007-03-27T15:43:12Z</time>
      </trkpt>
      <trkpt lat="44.49255" lon="0.73115">
        <ele>148</ele>
        <time>2007-03-27T15:43:12Z</time>
      </trkpt>
      <trkpt lat="44.49291" lon="0.7309">
        <ele>147</ele>
        <time>2007-03-27T15:43:12Z</time>
      </trkpt>
      <trkpt lat="44.49363" lon="0.73039">
        <ele>150</ele>
        <time>2007-03-27T15:43:12Z</time>
      </trkpt>
      <trkpt lat="44.49449" lon="0.72979">
        <ele>152</ele>
        <time>2007-03-27T15:43:12Z</time>
      </trkpt>
      <trkpt lat="44.49504" lon="0.72949">
        <ele>150</ele>
        <time>2007-03-27T15:43:12Z</time>
      </trkpt>
      <trkpt lat="44.49538" lon="0.72931">
        <ele>149</ele>
        <time>2007-03-27T15:43:12Z</time>
      </trkpt>
      <trkpt lat="44.496" lon="0.72905">
        <ele>149</ele>
        <time>2007-03-27T15:43:12Z</time>
      </trkpt>
      <trkpt lat="44.497" lon="0.7288">
        <ele>152</ele>
        <time>2007-03-27T15:43:12Z</time>
      </trkpt>
      <trkpt lat="44.49789" lon="0.72861">
        <ele>153</ele>
        <time>2007-03-27T15:43:12Z</time>
      </trkpt>
      <trkpt lat="44.49857" lon="0.72848">
        <ele>155</ele>
        <time>2007-03-27T15:43:12Z</time>
      </trkpt>
      <trkpt lat="44.49882" lon="0.72847">
        <ele>156</ele>
        <time>2007-03-27T15:43:12Z</time>
      </trkpt>
      <trkpt lat="44.49907" lon="0.72854">
        <ele>158</ele>
        <time>2007-03-27T15:43:12Z</time>
      </trkpt>
      <trkpt lat="44.49951" lon="0.72884">
        <ele>160</ele>
        <time>2007-03-27T15:43:12Z</time>
      </trkpt>
      <trkpt lat="44.50014" lon="0.72925">
        <ele>160</ele>
        <time>2007-03-27T15:43:12Z</time>
      </trkpt>
      <trkpt lat="44.50033" lon="0.72938">
        <ele>159</ele>
        <time>2007-03-27T15:43:12Z</time>
      </trkpt>
      <trkpt lat="44.50068" lon="0.72945">
        <ele>155</ele>
        <time>2007-03-27T15:43:12Z</time>
      </trkpt>
      <trkpt lat="44.50106" lon="0.72943">
        <ele>153</ele>
        <time>2007-03-27T15:43:12Z</time>
      </trkpt>
      <trkpt lat="44.50152" lon="0.7293">
        <ele>150</ele>
        <time>2007-03-27T15:43:12Z</time>
      </trkpt>
      <trkpt lat="44.50196" lon="0.72916">
        <ele>149</ele>
        <time>2007-03-27T15:43:12Z</time>
      </trkpt>
      <trkpt lat="44.50239" lon="0.72909">
        <ele>147</ele>
        <time>2007-03-27T15:43:12Z</time>
      </trkpt>
      <trkpt lat="44.50294" lon="0.72901">
        <ele>145</ele>
        <time>2007-03-27T15:43:12Z</time>
      </trkpt>
      <trkpt lat="44.50323" lon="0.729">
        <ele>147</ele>
        <time>2007-03-27T15:43:12Z</time>
      </trkpt>
      <trkpt lat="44.50356" lon="0.72909">
        <ele>148</ele>
        <time>2007-03-27T15:43:12Z</time>
      </trkpt>
      <trkpt lat="44.50375" lon="0.72908">
        <ele>150</ele>
        <time>2007-03-27T15:43:12Z</time>
      </trkpt>
      <trkpt lat="44.50393" lon="0.72903">
        <ele>152</ele>
        <time>2007-03-27T15:43:12Z</time>
      </trkpt>
      <trkpt lat="44.50408" lon="0.72915">
        <ele>151</ele>
        <time>2009-02-25T17:05:56Z</time>
      </trkpt>
      <trkpt lat="44.50428" lon="0.72932">
        <ele>151</ele>
        <time>2007-03-27T15:43:12Z</time>
      </trkpt>
      <trkpt lat="44.50438" lon="0.7291">
        <ele>152</ele>
        <time>2009-02-25T17:05:56Z</time>
      </trkpt>
      <trkpt lat="44.50443" lon="0.72891">
        <ele>152</ele>
        <time>2007-03-27T15:43:12Z</time>
      </trkpt>
      <trkpt lat="44.50449" lon="0.7285">
        <ele>152</ele>
        <time>2007-03-27T15:43:12Z</time>
      </trkpt>
      <trkpt lat="44.50452" lon="0.72771">
        <ele>155</ele>
        <time>2007-03-27T15:43:12Z</time>
      </trkpt>
      <trkpt lat="44.50454" lon="0.72688">
        <ele>158</ele>
        <time>2007-03-27T15:43:12Z</time>
      </trkpt>
      <trkpt lat="44.50459" lon="0.72576">
        <ele>157</ele>
        <time>2007-03-27T15:43:12Z</time>
      </trkpt>
      <trkpt lat="44.50462" lon="0.72518">
        <ele>160</ele>
        <time>2007-03-27T15:43:12Z</time>
      </trkpt>
      <trkpt lat="44.50463" lon="0.725">
        <ele>162</ele>
        <time>2007-03-27T15:43:12Z</time>
      </trkpt>
      <trkpt lat="44.50466" lon="0.72483">
        <ele>164</ele>
        <time>2007-03-27T15:43:12Z</time>
      </trkpt>
      <trkpt lat="44.50477" lon="0.72456">
        <ele>167</ele>
        <time>2007-03-27T15:43:12Z</time>
      </trkpt>
      <trkpt lat="44.50513" lon="0.72391">
        <ele>171</ele>
        <time>2007-03-27T15:43:12Z</time>
      </trkpt>
      <trkpt lat="44.50544" lon="0.72336">
        <ele>173</ele>
        <time>2007-03-27T15:43:12Z</time>
      </trkpt>
      <trkpt lat="44.50577" lon="0.72359">
        <ele>168</ele>
        <time>2007-03-27T15:43:12Z</time>
      </trkpt>
      <trkpt lat="44.50613" lon="0.7238">
        <ele>165</ele>
        <time>2007-03-27T15:43:12Z</time>
      </trkpt>
      <trkpt lat="44.50642" lon="0.72398">
        <ele>162</ele>
        <time>2007-03-27T15:43:12Z</time>
      </trkpt>
      <trkpt lat="44.50702" lon="0.72459">
        <ele>153</ele>
        <time>2007-03-27T15:43:12Z</time>
      </trkpt>
      <trkpt lat="44.50718" lon="0.72484">
        <ele>149</ele>
        <time>2007-03-27T15:43:12Z</time>
      </trkpt>
      <trkpt lat="44.50769" lon="0.7257">
        <ele>139</ele>
        <time>2007-03-27T15:43:12Z</time>
      </trkpt>
      <trkpt lat="44.50802" lon="0.7263">
        <ele>134</ele>
        <time>2007-03-27T15:43:12Z</time>
      </trkpt>
      <trkpt lat="44.50831" lon="0.72692">
        <ele>129</ele>
        <time>2007-03-27T15:43:12Z</time>
      </trkpt>
      <trkpt lat="44.50857" lon="0.72747">
        <ele>123</ele>
        <time>2007-03-27T15:43:12Z</time>
      </trkpt>
      <trkpt lat="44.50878" lon="0.728">
        <ele>118</ele>
        <time>2007-03-27T15:43:12Z</time>
      </trkpt>
      <trkpt lat="44.50895" lon="0.72846">
        <ele>116</ele>
        <time>2007-03-27T15:43:12Z</time>
      </trkpt>
      <trkpt lat="44.50922" lon="0.729">
        <ele>115</ele>
        <time>2007-03-27T15:43:12Z</time>
      </trkpt>
      <trkpt lat="44.50961" lon="0.7295">
        <ele>115</ele>
        <time>2007-03-27T15:43:12Z</time>
      </trkpt>
      <trkpt lat="44.50986" lon="0.72987">
        <ele>115</ele>
        <time>2007-03-27T15:43:12Z</time>
      </trkpt>
      <trkpt lat="44.51015" lon="0.73042">
        <ele>116</ele>
        <time>2007-03-27T15:43:12Z</time>
      </trkpt>
      <trkpt lat="44.51051" lon="0.73128">
        <ele>114</ele>
        <time>2007-03-27T15:43:12Z</time>
      </trkpt>
      <trkpt lat="44.51077" lon="0.73196">
        <ele>112</ele>
        <time>2007-03-27T15:43:12Z</time>
      </trkpt>
      <trkpt lat="44.51099" lon="0.73266">
        <ele>113</ele>
        <time>2007-03-27T15:43:12Z</time>
      </trkpt>
      <trkpt lat="44.51112" lon="0.73299">
        <ele>116</ele>
        <time>2007-03-27T15:43:12Z</time>
      </trkpt>
      <trkpt lat="44.5113" lon="0.73328">
        <ele>118</ele>
        <time>2007-03-27T15:43:12Z</time>
      </trkpt>
      <trkpt lat="44.51154" lon="0.73307">
        <ele>116</ele>
        <time>2007-03-27T15:43:12Z</time>
      </trkpt>
      <trkpt lat="44.51172" lon="0.73297">
        <ele>115</ele>
        <time>2007-03-27T15:43:12Z</time>
      </trkpt>
      <trkpt lat="44.51192" lon="0.7329">
        <ele>113</ele>
        <time>2007-03-27T15:43:12Z</time>
      </trkpt>
      <trkpt lat="44.51204" lon="0.73288">
        <ele>113</ele>
        <time>2007-03-27T15:43:12Z</time>
      </trkpt>
      <trkpt lat="44.5122" lon="0.73289">
        <ele>111</ele>
        <time>2009-02-25T17:05:56Z</time>
      </trkpt>
      <trkpt lat="44.51248" lon="0.73306">
        <ele>111</ele>
        <time>2007-03-27T15:43:12Z</time>
      </trkpt>
      <trkpt lat="44.51296" lon="0.73333">
        <ele>109</ele>
        <time>2007-03-27T15:43:12Z</time>
      </trkpt>
      <trkpt lat="44.51341" lon="0.7336">
        <ele>104</ele>
        <time>2007-03-27T15:43:12Z</time>
      </trkpt>
      <trkpt lat="44.51364" lon="0.73391">
        <ele>100</ele>
        <time>2007-03-27T15:43:12Z</time>
      </trkpt>
      <trkpt lat="44.51387" lon="0.73432">
        <ele>97</ele>
        <time>2007-03-27T15:43:12Z</time>
      </trkpt>
      <trkpt lat="44.51407" lon="0.73479">
        <ele>94</ele>
        <time>2007-03-27T15:43:12Z</time>
      </trkpt>
      <trkpt lat="44.51428" lon="0.73535">
        <ele>91</ele>
        <time>2007-03-27T15:43:12Z</time>
      </trkpt>
      <trkpt lat="44.51434" lon="0.73576">
        <ele>91</ele>
        <time>2007-03-27T15:43:12Z</time>
      </trkpt>
      <trkpt lat="44.51442" lon="0.73624">
        <ele>90</ele>
        <time>2007-03-27T15:43:12Z</time>
      </trkpt>
      <trkpt lat="44.51443" lon="0.73652">
        <ele>90</ele>
        <time>2007-03-27T15:43:12Z</time>
      </trkpt>
      <trkpt lat="44.51447" lon="0.73692">
        <ele>89</ele>
        <time>2007-03-27T15:43:12Z</time>
      </trkpt>
      <trkpt lat="44.51457" lon="0.73732">
        <ele>87</ele>
        <time>2007-03-27T15:43:12Z</time>
      </trkpt>
      <trkpt lat="44.51472" lon="0.73766">
        <ele>84</ele>
        <time>2007-03-27T15:43:12Z</time>
      </trkpt>
      <trkpt lat="44.51499" lon="0.73817">
        <ele>81</ele>
        <time>2007-03-27T15:43:12Z</time>
      </trkpt>
      <trkpt lat="44.51514" lon="0.73853">
        <ele>80</ele>
        <time>2007-03-27T15:43:12Z</time>
      </trkpt>
      <trkpt lat="44.5154" lon="0.73909">
        <ele>79</ele>
        <time>2007-03-27T15:43:12Z</time>
      </trkpt>
      <trkpt lat="44.51556" lon="0.73934">
        <ele>78</ele>
        <time>2007-03-27T15:43:12Z</time>
      </trkpt>
      <trkpt lat="44.51578" lon="0.73964">
        <ele>77</ele>
        <time>2007-03-27T15:43:12Z</time>
      </trkpt>
      <trkpt lat="44.51609" lon="0.73993">
        <ele>76</ele>
        <time>2007-03-27T15:43:12Z</time>
      </trkpt>
      <trkpt lat="44.51642" lon="0.74027">
        <ele>74</ele>
        <time>2007-03-27T15:43:12Z</time>
      </trkpt>
      <trkpt lat="44.51669" lon="0.74047">
        <ele>73</ele>
        <time>2007-03-27T15:43:12Z</time>
      </trkpt>
      <trkpt lat="44.51725" lon="0.74078">
        <ele>72</ele>
        <time>2007-03-27T15:43:12Z</time>
      </trkpt>
      <trkpt lat="44.51782" lon="0.74114">
        <ele>71</ele>
        <time>2007-03-27T15:43:12Z</time>
      </trkpt>
      <trkpt lat="44.51835" lon="0.74158">
        <ele>71</ele>
        <time>2007-03-27T15:43:12Z</time>
      </trkpt>
      <trkpt lat="44.51861" lon="0.74183">
        <ele>71</ele>
        <time>2007-03-27T15:43:12Z</time>
      </trkpt>
      <trkpt lat="44.51906" lon="0.74218">
        <ele>71</ele>
        <time>2007-03-27T15:43:12Z</time>
      </trkpt>
      <trkpt lat="44.51939" lon="0.74253">
        <ele>73</ele>
        <time>2007-03-27T15:43:12Z</time>
      </trkpt>
      <trkpt lat="44.51955" lon="0.7427">
        <ele>75</ele>
        <time>2007-03-27T15:43:12Z</time>
      </trkpt>
      <trkpt lat="44.51969" lon="0.74288">
        <ele>78</ele>
        <time>2007-03-27T15:43:12Z</time>
      </trkpt>
      <trkpt lat="44.51981" lon="0.74291">
        <ele>81</ele>
        <time>2007-03-27T15:43:12Z</time>
      </trkpt>
      <trkpt lat="44.51996" lon="0.74292">
        <ele>83</ele>
        <time>2007-03-27T15:43:12Z</time>
      </trkpt>
      <trkpt lat="44.52005" lon="0.74292">
        <ele>85</ele>
        <time>2007-03-27T15:43:12Z</time>
      </trkpt>
      <trkpt lat="44.52021" lon="0.74288">
        <ele>87</ele>
        <time>2007-03-27T15:43:12Z</time>
      </trkpt>
      <trkpt lat="44.52039" lon="0.74275">
        <ele>86</ele>
        <time>2007-03-27T15:43:12Z</time>
      </trkpt>
      <trkpt lat="44.52064" lon="0.74257">
        <ele>83</ele>
        <time>2007-03-27T15:43:12Z</time>
      </trkpt>
      <trkpt lat="44.52084" lon="0.74241">
        <ele>83</ele>
        <time>2007-03-27T15:43:12Z</time>
      </trkpt>
      <trkpt lat="44.52099" lon="0.74229">
        <ele>85</ele>
        <time>2007-03-27T15:43:12Z</time>
      </trkpt>
      <trkpt lat="44.52119" lon="0.74224">
        <ele>90</ele>
        <time>2007-03-27T15:43:12Z</time>
      </trkpt>
      <trkpt lat="44.52146" lon="0.74179">
        <ele>97</ele>
        <time>2007-03-27T15:43:12Z</time>
      </trkpt>
      <trkpt lat="44.52167" lon="0.74138">
        <ele>97</ele>
        <time>2007-03-27T15:43:12Z</time>
      </trkpt>
      <trkpt lat="44.52197" lon="0.7411">
        <ele>95</ele>
        <time>2007-03-27T15:43:12Z</time>
      </trkpt>
      <trkpt lat="44.52226" lon="0.74097">
        <ele>94</ele>
        <time>2007-03-27T15:43:12Z</time>
      </trkpt>
      <trkpt lat="44.52276" lon="0.74083">
        <ele>88</ele>
        <time>2007-03-27T15:43:12Z</time>
      </trkpt>
      <trkpt lat="44.52316" lon="0.74083">
        <ele>85</ele>
        <time>2007-03-27T15:43:12Z</time>
      </trkpt>
      <trkpt lat="44.5234" lon="0.74084">
        <ele>82</ele>
        <time>2007-03-27T15:43:12Z</time>
      </trkpt>
      <trkpt lat="44.52378" lon="0.74099">
        <ele>79</ele>
        <time>2007-03-27T15:43:12Z</time>
      </trkpt>
      <trkpt lat="44.52411" lon="0.74125">
        <ele>78</ele>
        <time>2007-03-27T15:43:12Z</time>
      </trkpt>
      <trkpt lat="44.52461" lon="0.74159">
        <ele>77</ele>
        <time>2007-03-27T15:43:12Z</time>
      </trkpt>
      <trkpt lat="44.52489" lon="0.74181">
        <ele>78</ele>
        <time>2007-03-27T15:43:12Z</time>
      </trkpt>
      <trkpt lat="44.52502" lon="0.74193">
        <ele>78</ele>
        <time>2007-03-27T15:43:12Z</time>
      </trkpt>
      <trkpt lat="44.52519" lon="0.74199">
        <ele>78</ele>
        <time>2007-03-27T15:43:12Z</time>
      </trkpt>
      <trkpt lat="44.52564" lon="0.74197">
        <ele>78</ele>
        <time>2007-03-27T15:43:12Z</time>
      </trkpt>
      <trkpt lat="44.52607" lon="0.7419">
        <ele>77</ele>
        <time>2007-03-27T15:43:12Z</time>
      </trkpt>
      <trkpt lat="44.52631" lon="0.74194">
        <ele>77</ele>
        <time>2007-03-27T15:43:12Z</time>
      </trkpt>
      <trkpt lat="44.52661" lon="0.7421">
        <ele>78</ele>
        <time>2007-03-27T15:43:12Z</time>
      </trkpt>
      <trkpt lat="44.52671" lon="0.74216">
        <ele>78</ele>
        <time>2009-02-25T17:05:56Z</time>
      </trkpt>
      <trkpt lat="44.52685" lon="0.74217">
        <ele>78</ele>
        <time>2007-03-27T15:43:12Z</time>
      </trkpt>
      <trkpt lat="44.52708" lon="0.74217">
        <ele>79</ele>
        <time>2007-03-27T15:43:12Z</time>
      </trkpt>
      <trkpt lat="44.52718" lon="0.7422">
        <ele>79</ele>
        <time>2009-02-25T17:05:56Z</time>
      </trkpt>
      <trkpt lat="44.52725" lon="0.74237">
        <ele>80</ele>
        <time>2007-03-27T15:43:12Z</time>
      </trkpt>
      <trkpt lat="44.5275" lon="0.74282">
        <ele>82</ele>
        <time>2007-03-27T15:43:12Z</time>
      </trkpt>
      <trkpt lat="44.52763" lon="0.74316">
        <ele>84</ele>
        <time>2007-03-27T15:43:12Z</time>
      </trkpt>
      <trkpt lat="44.52767" lon="0.74353">
        <ele>86</ele>
        <time>2007-03-27T15:43:12Z</time>
      </trkpt>
      <trkpt lat="44.52768" lon="0.74385">
        <ele>88</ele>
        <time>2007-03-27T15:43:12Z</time>
      </trkpt>
      <trkpt lat="44.5277" lon="0.74419">
        <ele>91</ele>
        <time>2007-03-27T15:43:12Z</time>
      </trkpt>
      <trkpt lat="44.52815" lon="0.74413">
        <ele>85</ele>
        <time>2007-03-27T15:43:12Z</time>
      </trkpt>
      <trkpt lat="44.52835" lon="0.74418">
        <ele>82</ele>
        <time>2007-03-27T15:43:12Z</time>
      </trkpt>
      <trkpt lat="44.52872" lon="0.74432">
        <ele>81</ele>
        <time>2009-02-25T17:05:56Z</time>
      </trkpt>
      <trkpt lat="44.52884" lon="0.74444">
        <ele>82</ele>
        <time>2007-03-27T15:43:12Z</time>
      </trkpt>
      <trkpt lat="44.5292" lon="0.74462">
        <ele>89</ele>
        <time>2009-02-25T17:05:56Z</time>
      </trkpt>
      <trkpt lat="44.52946" lon="0.74477">
        <ele>89</ele>
        <time>2007-03-27T15:43:12Z</time>
      </trkpt>
      <trkpt lat="44.52948" lon="0.74485">
        <ele>89</ele>
        <time>2009-02-25T17:05:56Z</time>
      </trkpt>
      <trkpt lat="44.52945" lon="0.74496">
        <ele>91</ele>
        <time>2007-03-27T15:43:12Z</time>
      </trkpt>
      <trkpt lat="44.52957" lon="0.74508">
        <ele>89</ele>
        <time>2007-03-27T15:43:12Z</time>
      </trkpt>
      <trkpt lat="44.52966" lon="0.74587">
        <ele>90</ele>
        <time>2007-03-27T15:43:12Z</time>
      </trkpt>
      <trkpt lat="44.5297" lon="0.7464">
        <ele>90</ele>
        <time>2007-03-27T15:43:12Z</time>
      </trkpt>
      <trkpt lat="44.52971" lon="0.74689">
        <ele>92</ele>
        <time>2007-03-27T15:43:12Z</time>
      </trkpt>
      <trkpt lat="44.5299" lon="0.74731">
        <ele>91</ele>
        <time>2007-03-27T15:43:12Z</time>
      </trkpt>
      <trkpt lat="44.52991" lon="0.74779">
        <ele>92</ele>
        <time>2007-03-27T15:43:12Z</time>
      </trkpt>
      <trkpt lat="44.52996" lon="0.74837">
        <ele>92</ele>
        <time>2007-03-27T15:43:12Z</time>
      </trkpt>
      <trkpt lat="44.52996" lon="0.74863">
        <ele>94</ele>
        <time>2007-03-27T15:43:12Z</time>
      </trkpt>
      <trkpt lat="44.52994" lon="0.74892">
        <ele>95</ele>
        <time>2007-03-27T15:43:12Z</time>
      </trkpt>
      <trkpt lat="44.52979" lon="0.74913">
        <ele>98</ele>
        <time>2007-03-27T15:43:12Z</time>
      </trkpt>
      <trkpt lat="44.52964" lon="0.74925">
        <ele>100</ele>
        <time>2007-03-27T15:43:12Z</time>
      </trkpt>
      <trkpt lat="44.52955" lon="0.74942">
        <ele>102</ele>
        <time>2007-03-27T15:43:12Z</time>
      </trkpt>
      <trkpt lat="44.52949" lon="0.74997">
        <ele>103</ele>
        <time>2007-03-27T15:43:12Z</time>
      </trkpt>
      <trkpt lat="44.52947" lon="0.75067">
        <ele>103</ele>
        <time>2007-03-27T15:43:12Z</time>
      </trkpt>
      <trkpt lat="44.52946" lon="0.75106">
        <ele>102</ele>
        <time>2007-03-27T15:43:12Z</time>
      </trkpt>
      <trkpt lat="44.52944" lon="0.75126">
        <ele>102</ele>
        <time>2007-03-27T15:43:12Z</time>
      </trkpt>
      <trkpt lat="44.52933" lon="0.7515">
        <ele>102</ele>
        <time>2007-03-27T15:43:12Z</time>
      </trkpt>
      <trkpt lat="44.5291" lon="0.75184">
        <ele>102</ele>
        <time>2007-03-27T15:43:12Z</time>
      </trkpt>
      <trkpt lat="44.52886" lon="0.75224">
        <ele>103</ele>
        <time>2007-03-27T15:43:12Z</time>
      </trkpt>
      <trkpt lat="44.52882" lon="0.75227">
        <ele>103</ele>
        <time>2007-03-27T15:43:12Z</time>
      </trkpt>
      <trkpt lat="44.52862" lon="0.75284">
        <ele>104</ele>
        <time>2007-03-27T15:43:12Z</time>
      </trkpt>
      <trkpt lat="44.52847" lon="0.75321">
        <ele>105</ele>
        <time>2007-03-27T15:43:12Z</time>
      </trkpt>
      <trkpt lat="44.52853" lon="0.75357">
        <ele>106</ele>
        <time>2007-03-27T15:43:12Z</time>
      </trkpt>
      <trkpt lat="44.52855" lon="0.7538">
        <ele>107</ele>
        <time>2009-02-25T17:05:56Z</time>
      </trkpt>
      <trkpt lat="44.52854" lon="0.75398">
        <ele>107</ele>
        <time>2009-02-25T17:05:56Z</time>
      </trkpt>
      <trkpt lat="44.52866" lon="0.75397">
        <ele>108</ele>
        <time>2009-02-25T17:05:56Z</time>
      </trkpt>
      <trkpt lat="44.52884" lon="0.75394">
        <ele>110</ele>
        <time>2007-03-27T15:43:12Z</time>
      </trkpt>
      <trkpt lat="44.52905" lon="0.75384">
        <ele>111</ele>
        <time>2007-03-27T15:43:12Z</time>
      </trkpt>
      <trkpt lat="44.52924" lon="0.75371">
        <ele>111</ele>
        <time>2007-03-27T15:43:12Z</time>
      </trkpt>
      <trkpt lat="44.52939" lon="0.75359">
        <ele>112</ele>
        <time>2007-03-27T15:43:12Z</time>
      </trkpt>
      <trkpt lat="44.52956" lon="0.75341">
        <ele>112</ele>
        <time>2007-03-27T15:43:12Z</time>
      </trkpt>
      <trkpt lat="44.52969" lon="0.75335">
        <ele>112</ele>
        <time>2007-03-27T15:43:12Z</time>
      </trkpt>
      <trkpt lat="44.52979" lon="0.75331">
        <ele>113</ele>
        <time>2007-03-27T15:43:12Z</time>
      </trkpt>
      <trkpt lat="44.52997" lon="0.75347">
        <ele>114</ele>
        <time>2007-03-27T15:43:12Z</time>
      </trkpt>
      <trkpt lat="44.53016" lon="0.75371">
        <ele>115</ele>
        <time>2007-03-27T15:43:12Z</time>
      </trkpt>
      <trkpt lat="44.5303" lon="0.75398">
        <ele>116</ele>
        <time>2007-03-27T15:43:12Z</time>
      </trkpt>
      <trkpt lat="44.5304" lon="0.75419">
        <ele>117</ele>
        <time>2007-03-27T15:43:12Z</time>
      </trkpt>
      <trkpt lat="44.53048" lon="0.75452">
        <ele>118</ele>
        <time>2007-03-27T15:43:12Z</time>
      </trkpt>
      <trkpt lat="44.53058" lon="0.75491">
        <ele>118</ele>
        <time>2007-03-27T15:43:12Z</time>
      </trkpt>
      <trkpt lat="44.53094" lon="0.75477">
        <ele>120</ele>
        <time>2007-03-27T15:43:12Z</time>
      </trkpt>
      <trkpt lat="44.53117" lon="0.75477">
        <ele>120</ele>
        <time>2007-03-27T15:43:12Z</time>
      </trkpt>
      <trkpt lat="44.53142" lon="0.75476">
        <ele>120</ele>
        <time>2007-03-27T15:43:12Z</time>
      </trkpt>
      <trkpt lat="44.53187" lon="0.75476">
        <ele>121</ele>
        <time>2007-03-27T15:43:12Z</time>
      </trkpt>
      <trkpt lat="44.53195" lon="0.75487">
        <ele>121</ele>
        <time>2009-02-25T17:05:56Z</time>
      </trkpt>
      <trkpt lat="44.53189" lon="0.75546">
        <ele>123</ele>
        <time>2007-03-27T15:43:12Z</time>
      </trkpt>
      <trkpt lat="44.53183" lon="0.75621">
        <ele>123</ele>
        <time>2007-03-27T15:43:12Z</time>
      </trkpt>
      <trkpt lat="44.53179" lon="0.75673">
        <ele>123</ele>
        <time>2007-03-27T15:43:12Z</time>
      </trkpt>
      <trkpt lat="44.53178" lon="0.75716">
        <ele>123</ele>
        <time>2007-03-27T15:43:12Z</time>
      </trkpt>
      <trkpt lat="44.53176" lon="0.75764">
        <ele>123</ele>
        <time>2007-03-27T15:43:12Z</time>
      </trkpt>
      <trkpt lat="44.53178" lon="0.7583">
        <ele>123</ele>
        <time>2007-03-27T15:43:12Z</time>
      </trkpt>
      <trkpt lat="44.5318" lon="0.75888">
        <ele>122</ele>
        <time>2007-03-27T15:43:12Z</time>
      </trkpt>
      <trkpt lat="44.53182" lon="0.75936">
        <ele>121</ele>
        <time>2007-03-27T15:43:12Z</time>
      </trkpt>
      <trkpt lat="44.53179" lon="0.75988">
        <ele>122</ele>
        <time>2007-03-27T15:43:12Z</time>
      </trkpt>
      <trkpt lat="44.53176" lon="0.76041">
        <ele>122</ele>
        <time>2007-03-27T15:43:12Z</time>
      </trkpt>
      <trkpt lat="44.53175" lon="0.76085">
        <ele>123</ele>
        <time>2007-03-27T15:43:12Z</time>
      </trkpt>
      <trkpt lat="44.53176" lon="0.76112">
        <ele>123</ele>
        <time>2007-03-27T15:43:12Z</time>
      </trkpt>
      <trkpt lat="44.53182" lon="0.76156">
        <ele>125</ele>
        <time>2007-03-27T15:43:12Z</time>
      </trkpt>
      <trkpt lat="44.53197" lon="0.76245">
        <ele>128</ele>
        <time>2007-03-27T15:43:12Z</time>
      </trkpt>
      <trkpt lat="44.53205" lon="0.76309">
        <ele>131</ele>
        <time>2007-03-27T15:43:12Z</time>
      </trkpt>
      <trkpt lat="44.53212" lon="0.76358">
        <ele>134</ele>
        <time>2007-03-27T15:43:12Z</time>
      </trkpt>
      <trkpt lat="44.5321" lon="0.76391">
        <ele>135</ele>
        <time>2007-03-27T15:43:12Z</time>
      </trkpt>
      <trkpt lat="44.53206" lon="0.76433">
        <ele>136</ele>
        <time>2007-03-27T15:43:12Z</time>
      </trkpt>
      <trkpt lat="44.53195" lon="0.76482">
        <ele>137</ele>
        <time>2007-03-27T15:43:12Z</time>
      </trkpt>
      <trkpt lat="44.53194" lon="0.76517">
        <ele>139</ele>
        <time>2007-03-27T15:43:12Z</time>
      </trkpt>
      <trkpt lat="44.53192" lon="0.76556">
        <ele>147</ele>
        <time>2007-03-27T15:43:12Z</time>
      </trkpt>
      <trkpt lat="44.53167" lon="0.76571">
        <ele>149</ele>
        <time>2007-03-27T15:43:12Z</time>
      </trkpt>
      <trkpt lat="44.53146" lon="0.76587">
        <ele>150</ele>
        <time>2007-03-27T15:43:12Z</time>
      </trkpt>
      <trkpt lat="44.53129" lon="0.76605">
        <ele>150</ele>
        <time>2007-03-27T15:43:12Z</time>
      </trkpt>
      <trkpt lat="44.53112" lon="0.76628">
        <ele>151</ele>
        <time>2007-03-27T15:43:12Z</time>
      </trkpt>
      <trkpt lat="44.53097" lon="0.76664">
        <ele>153</ele>
        <time>2007-03-27T15:43:12Z</time>
      </trkpt>
      <trkpt lat="44.53083" lon="0.76707">
        <ele>157</ele>
        <time>2007-03-27T15:43:12Z</time>
      </trkpt>
      <trkpt lat="44.53071" lon="0.76736">
        <ele>157</ele>
        <time>2007-03-27T15:43:12Z</time>
      </trkpt>
      <trkpt lat="44.53063" lon="0.76769">
        <ele>158</ele>
        <time>2007-03-27T15:43:12Z</time>
      </trkpt>
      <trkpt lat="44.53053" lon="0.76804">
        <ele>157</ele>
        <time>2007-03-27T15:43:12Z</time>
      </trkpt>
      <trkpt lat="44.53052" lon="0.76826">
        <ele>157</ele>
        <time>2007-03-27T15:43:12Z</time>
      </trkpt>
      <trkpt lat="44.53046" lon="0.7684">
        <ele>157</ele>
        <time>2009-02-25T17:05:56Z</time>
      </trkpt>
      <trkpt lat="44.5304" lon="0.76836">
        <ele>156</ele>
        <time>2009-02-25T17:05:56Z</time>
      </trkpt>
      <trkpt lat="44.5303" lon="0.76861">
        <ele>153</ele>
        <time>2007-03-27T15:43:12Z</time>
      </trkpt>
      <trkpt lat="44.53" lon="0.76865">
        <ele>148</ele>
        <time>2007-03-27T15:43:12Z</time>
      </trkpt>
    </trkseg>
  </trk>
  <trk>
    <name><![CDATA[2009MonflanquinDavidBas]]></name>
    <extensions>
      <line xmlns="http://www.topografix.com/GPX/gpx_style/0/2">
        <color>00FF00</color>
        <width>4</width>
      </line>
    </extensions>
    <trkseg>
      <trkpt lat="44.53022" lon="0.76868">
        <ele>152</ele>
        <time>2007-03-27T15:43:12Z</time>
      </trkpt>
      <trkpt lat="44.53026" lon="0.76873">
        <ele>152</ele>
        <time>2009-01-04T18:51:07Z</time>
      </trkpt>
      <trkpt lat="44.53037" lon="0.76884">
        <ele>154</ele>
        <time>2009-01-04T18:51:07Z</time>
      </trkpt>
      <trkpt lat="44.53051" lon="0.76871">
        <ele>157</ele>
        <time>2007-03-27T15:43:12Z</time>
      </trkpt>
      <trkpt lat="44.5306" lon="0.76847">
        <ele>160</ele>
        <time>2007-03-27T15:43:12Z</time>
      </trkpt>
      <trkpt lat="44.53065" lon="0.76827">
        <ele>161</ele>
        <time>2007-03-27T15:43:12Z</time>
      </trkpt>
      <trkpt lat="44.53071" lon="0.76806">
        <ele>161</ele>
        <time>2009-01-04T18:51:07Z</time>
      </trkpt>
      <trkpt lat="44.53075" lon="0.76792">
        <ele>161</ele>
        <time>2007-03-27T15:43:12Z</time>
      </trkpt>
      <trkpt lat="44.53081" lon="0.76781">
        <ele>161</ele>
        <time>2007-03-27T15:43:12Z</time>
      </trkpt>
      <trkpt lat="44.53089" lon="0.76779">
        <ele>163</ele>
        <time>2007-03-27T15:43:12Z</time>
      </trkpt>
      <trkpt lat="44.53103" lon="0.76774">
        <ele>165</ele>
        <time>2007-03-27T15:43:12Z</time>
      </trkpt>
      <trkpt lat="44.53129" lon="0.76786">
        <ele>168</ele>
        <time>2007-03-27T15:43:12Z</time>
      </trkpt>
      <trkpt lat="44.53222" lon="0.76836">
        <ele>179</ele>
        <time>2007-03-27T15:43:12Z</time>
      </trkpt>
      <trkpt lat="44.53234" lon="0.7683">
        <ele>180</ele>
        <time>2009-01-04T18:51:07Z</time>
      </trkpt>
      <trkpt lat="44.53269" lon="0.76846">
        <ele>181</ele>
        <time>2009-01-04T18:51:07Z</time>
      </trkpt>
      <trkpt lat="44.53275" lon="0.76852">
        <ele>181</ele>
        <time>2009-01-04T18:51:07Z</time>
      </trkpt>
      <trkpt lat="44.53297" lon="0.76857">
        <ele>180</ele>
        <time>2009-01-04T18:51:07Z</time>
      </trkpt>
      <trkpt lat="44.53305" lon="0.76863">
        <ele>180</ele>
        <time>2007-03-27T15:43:12Z</time>
      </trkpt>
      <trkpt lat="44.53321" lon="0.76874">
        <ele>179</ele>
        <time>2007-03-27T15:43:12Z</time>
      </trkpt>
      <trkpt lat="44.53343" lon="0.76887">
        <ele>176</ele>
        <time>2007-03-27T15:43:12Z</time>
      </trkpt>
      <trkpt lat="44.5336" lon="0.76898">
        <ele>172</ele>
        <time>2007-03-27T15:43:12Z</time>
      </trkpt>
      <trkpt lat="44.53335" lon="0.76911">
        <ele>171</ele>
        <time>2009-01-04T18:51:07Z</time>
      </trkpt>
      <trkpt lat="44.53355" lon="0.76914">
        <ele>169</ele>
        <time>2009-01-04T18:51:07Z</time>
      </trkpt>
      <trkpt lat="44.5337" lon="0.7692">
        <ele>167</ele>
        <time>2009-01-04T18:51:07Z</time>
      </trkpt>
      <trkpt lat="44.53385" lon="0.76929">
        <ele>162</ele>
        <time>2009-01-04T18:51:07Z</time>
      </trkpt>
      <trkpt lat="44.53383" lon="0.76939">
        <ele>161</ele>
        <time>2009-01-04T18:51:07Z</time>
      </trkpt>
      <trkpt lat="44.53374" lon="0.76948">
        <ele>160</ele>
        <time>2009-01-04T18:51:07Z</time>
      </trkpt>
      <trkpt lat="44.53377" lon="0.76958">
        <ele>158</ele>
        <time>2009-01-04T18:51:07Z</time>
      </trkpt>
      <trkpt lat="44.534" lon="0.7696">
        <ele>155</ele>
        <time>2007-03-27T15:43:12Z</time>
      </trkpt>
      <trkpt lat="44.53388" lon="0.76982">
        <ele>153</ele>
        <time>2007-03-27T15:43:12Z</time>
      </trkpt>
      <trkpt lat="44.53366" lon="0.77006">
        <ele>152</ele>
        <time>2007-03-27T15:43:12Z</time>
      </trkpt>
      <trkpt lat="44.5336" lon="0.77021">
        <ele>149</ele>
        <time>2007-03-27T15:43:12Z</time>
      </trkpt>
      <trkpt lat="44.53393" lon="0.77052">
        <ele>146</ele>
        <time>2007-03-27T15:43:12Z</time>
      </trkpt>
      <trkpt lat="44.53448" lon="0.77109">
        <ele>141</ele>
        <time>2007-03-27T15:43:12Z</time>
      </trkpt>
      <trkpt lat="44.53482" lon="0.77144">
        <ele>135</ele>
        <time>2007-03-27T15:43:12Z</time>
      </trkpt>
      <trkpt lat="44.53502" lon="0.77179">
        <ele>132</ele>
        <time>2007-03-27T15:43:12Z</time>
      </trkpt>
      <trkpt lat="44.53558" lon="0.77285">
        <ele>126</ele>
        <time>2007-03-27T15:43:12Z</time>
      </trkpt>
      <trkpt lat="44.53584" lon="0.77268">
        <ele>126</ele>
        <time>2007-03-27T15:43:12Z</time>
      </trkpt>
      <trkpt lat="44.53598" lon="0.77262">
        <ele>125</ele>
        <time>2007-03-27T15:43:12Z</time>
      </trkpt>
      <trkpt lat="44.5379" lon="0.77201">
        <ele>119</ele>
        <time>2007-03-27T15:43:12Z</time>
      </trkpt>
      <trkpt lat="44.53901" lon="0.77156">
        <ele>116</ele>
        <time>2007-03-27T15:43:12Z</time>
      </trkpt>
      <trkpt lat="44.53927" lon="0.77153">
        <ele>115</ele>
        <time>2007-03-27T15:43:12Z</time>
      </trkpt>
      <trkpt lat="44.53979" lon="0.77163">
        <ele>114</ele>
        <time>2007-03-27T15:43:12Z</time>
      </trkpt>
      <trkpt lat="44.54031" lon="0.77177">
        <ele>112</ele>
        <time>2007-03-27T15:43:12Z</time>
      </trkpt>
      <trkpt lat="44.54084" lon="0.77201">
        <ele>109</ele>
        <time>2007-03-27T15:43:12Z</time>
      </trkpt>
      <trkpt lat="44.54113" lon="0.77216">
        <ele>106</ele>
        <time>2007-03-27T15:43:12Z</time>
      </trkpt>
      <trkpt lat="44.54134" lon="0.7722">
        <ele>103</ele>
        <time>2007-03-27T15:43:12Z</time>
      </trkpt>
      <trkpt lat="44.54163" lon="0.77216">
        <ele>101</ele>
        <time>2007-03-27T15:43:12Z</time>
      </trkpt>
      <trkpt lat="44.54201" lon="0.77202">
        <ele>100</ele>
        <time>2007-03-27T15:43:12Z</time>
      </trkpt>
      <trkpt lat="44.54228" lon="0.77202">
        <ele>99</ele>
        <time>2007-03-27T15:43:12Z</time>
      </trkpt>
      <trkpt lat="44.54251" lon="0.77214">
        <ele>96</ele>
        <time>2007-03-27T15:43:12Z</time>
      </trkpt>
      <trkpt lat="44.54274" lon="0.77224">
        <ele>94</ele>
        <time>2007-03-27T15:43:12Z</time>
      </trkpt>
      <trkpt lat="44.54303" lon="0.77212">
        <ele>92</ele>
        <time>2007-03-27T15:43:12Z</time>
      </trkpt>
      <trkpt lat="44.54334" lon="0.77208">
        <ele>91</ele>
        <time>2007-03-27T15:43:12Z</time>
      </trkpt>
      <trkpt lat="44.54397" lon="0.77194">
        <ele>90</ele>
        <time>2007-03-27T15:43:12Z</time>
      </trkpt>
      <trkpt lat="44.5442" lon="0.77185">
        <ele>90</ele>
        <time>2007-03-27T15:43:12Z</time>
      </trkpt>
      <trkpt lat="44.54472" lon="0.77163">
        <ele>90</ele>
        <time>2007-03-27T15:43:12Z</time>
      </trkpt>
      <trkpt lat="44.545" lon="0.77152">
        <ele>90</ele>
        <time>2007-03-27T15:43:12Z</time>
      </trkpt>
      <trkpt lat="44.54542" lon="0.77135">
        <ele>88</ele>
        <time>2007-03-27T15:43:12Z</time>
      </trkpt>
      <trkpt lat="44.54566" lon="0.77118">
        <ele>85</ele>
        <time>2007-03-27T15:43:12Z</time>
      </trkpt>
      <trkpt lat="44.54583" lon="0.77102">
        <ele>83</ele>
        <time>2007-03-27T15:43:12Z</time>
      </trkpt>
      <trkpt lat="44.54631" lon="0.7705">
        <ele>79</ele>
        <time>2007-03-27T15:43:12Z</time>
      </trkpt>
      <trkpt lat="44.54672" lon="0.77002">
        <ele>79</ele>
        <time>2007-03-27T15:43:12Z</time>
      </trkpt>
      <trkpt lat="44.54712" lon="0.76973">
        <ele>80</ele>
        <time>2007-03-27T15:43:12Z</time>
      </trkpt>
      <trkpt lat="44.54707" lon="0.76956">
        <ele>79</ele>
        <time>2007-03-27T15:43:12Z</time>
      </trkpt>
      <trkpt lat="44.54715" lon="0.76946">
        <ele>79</ele>
        <time>2007-03-27T15:43:12Z</time>
      </trkpt>
      <trkpt lat="44.54711" lon="0.76885">
        <ele>79</ele>
        <time>2007-03-27T15:43:12Z</time>
      </trkpt>
      <trkpt lat="44.54746" lon="0.76885">
        <ele>81</ele>
        <time>2007-03-27T15:43:12Z</time>
      </trkpt>
      <trkpt lat="44.54758" lon="0.76874">
        <ele>82</ele>
        <time>2007-03-27T15:43:12Z</time>
      </trkpt>
      <trkpt lat="44.54764" lon="0.76817">
        <ele>85</ele>
        <time>2007-03-27T15:43:12Z</time>
      </trkpt>
      <trkpt lat="44.54769" lon="0.76701">
        <ele>91</ele>
        <time>2007-03-27T15:43:12Z</time>
      </trkpt>
      <trkpt lat="44.54809" lon="0.76673">
        <ele>93</ele>
        <time>2007-03-27T15:43:12Z</time>
      </trkpt>
      <trkpt lat="44.54837" lon="0.76659">
        <ele>93</ele>
        <time>2007-03-27T15:43:12Z</time>
      </trkpt>
      <trkpt lat="44.54849" lon="0.76645">
        <ele>95</ele>
        <time>2007-03-27T15:43:12Z</time>
      </trkpt>
      <trkpt lat="44.54848" lon="0.76568">
        <ele>104</ele>
        <time>2007-03-27T15:43:12Z</time>
      </trkpt>
      <trkpt lat="44.54832" lon="0.76528">
        <ele>104</ele>
        <time>2007-03-27T15:43:12Z</time>
      </trkpt>
      <trkpt lat="44.54814" lon="0.76495">
        <ele>101</ele>
        <time>2007-03-27T15:43:12Z</time>
      </trkpt>
      <trkpt lat="44.548" lon="0.76459">
        <ele>98</ele>
        <time>2007-03-27T15:43:12Z</time>
      </trkpt>
      <trkpt lat="44.54785" lon="0.76417">
        <ele>94</ele>
        <time>2007-03-27T15:43:12Z</time>
      </trkpt>
      <trkpt lat="44.54789" lon="0.76403">
        <ele>94</ele>
        <time>2007-03-27T15:43:12Z</time>
      </trkpt>
      <trkpt lat="44.54841" lon="0.76342">
        <ele>96</ele>
        <time>2007-03-27T15:43:12Z</time>
      </trkpt>
      <trkpt lat="44.54828" lon="0.76282">
        <ele>88</ele>
        <time>2007-03-27T15:43:12Z</time>
      </trkpt>
      <trkpt lat="44.54806" lon="0.76228">
        <ele>84</ele>
        <time>2007-03-27T15:43:12Z</time>
      </trkpt>
      <trkpt lat="44.54789" lon="0.76199">
        <ele>82</ele>
        <time>2007-03-27T15:43:12Z</time>
      </trkpt>
      <trkpt lat="44.5477" lon="0.76177">
        <ele>80</ele>
        <time>2007-03-27T15:43:12Z</time>
      </trkpt>
      <trkpt lat="44.5476" lon="0.76163">
        <ele>79</ele>
        <time>2007-03-27T15:43:12Z</time>
      </trkpt>
      <trkpt lat="44.54753" lon="0.76151">
        <ele>79</ele>
        <time>2007-03-27T15:43:12Z</time>
      </trkpt>
      <trkpt lat="44.54752" lon="0.76134">
        <ele>79</ele>
        <time>2007-03-27T15:43:12Z</time>
      </trkpt>
      <trkpt lat="44.54754" lon="0.76105">
        <ele>78</ele>
        <time>2007-03-27T15:43:12Z</time>
      </trkpt>
      <trkpt lat="44.54763" lon="0.7607">
        <ele>78</ele>
        <time>2007-03-27T15:43:12Z</time>
      </trkpt>
      <trkpt lat="44.54767" lon="0.76025">
        <ele>78</ele>
        <time>2007-03-27T15:43:12Z</time>
      </trkpt>
      <trkpt lat="44.54764" lon="0.75868">
        <ele>80</ele>
        <time>2007-03-27T15:43:12Z</time>
      </trkpt>
      <trkpt lat="44.54764" lon="0.75844">
        <ele>80</ele>
        <time>2007-03-27T15:43:12Z</time>
      </trkpt>
      <trkpt lat="44.54775" lon="0.75811">
        <ele>82</ele>
        <time>2007-03-27T15:43:12Z</time>
      </trkpt>
      <trkpt lat="44.54785" lon="0.75791">
        <ele>83</ele>
        <time>2007-03-27T15:43:12Z</time>
      </trkpt>
      <trkpt lat="44.54799" lon="0.75778">
        <ele>85</ele>
        <time>2007-03-27T15:43:12Z</time>
      </trkpt>
      <trkpt lat="44.54823" lon="0.75765">
        <ele>86</ele>
        <time>2007-03-27T15:43:12Z</time>
      </trkpt>
      <trkpt lat="44.54859" lon="0.75756">
        <ele>87</ele>
        <time>2007-03-27T15:43:12Z</time>
      </trkpt>
      <trkpt lat="44.54879" lon="0.75746">
        <ele>87</ele>
        <time>2007-03-27T15:43:12Z</time>
      </trkpt>
      <trkpt lat="44.54895" lon="0.75729">
        <ele>88</ele>
        <time>2007-03-27T15:43:12Z</time>
      </trkpt>
      <trkpt lat="44.5491" lon="0.75697">
        <ele>91</ele>
        <time>2007-03-27T15:43:12Z</time>
      </trkpt>
      <trkpt lat="44.54924" lon="0.75666">
        <ele>94</ele>
        <time>2007-03-27T15:43:12Z</time>
      </trkpt>
      <trkpt lat="44.54945" lon="0.75642">
        <ele>98</ele>
        <time>2007-03-27T15:43:12Z</time>
      </trkpt>
      <trkpt lat="44.55007" lon="0.75595">
        <ele>104</ele>
        <time>2007-03-27T15:43:12Z</time>
      </trkpt>
      <trkpt lat="44.55047" lon="0.75559">
        <ele>107</ele>
        <time>2007-03-27T15:43:12Z</time>
      </trkpt>
      <trkpt lat="44.55093" lon="0.75534">
        <ele>110</ele>
        <time>2007-03-27T15:43:12Z</time>
      </trkpt>
      <trkpt lat="44.55115" lon="0.7551">
        <ele>115</ele>
        <time>2007-03-27T15:43:12Z</time>
      </trkpt>
      <trkpt lat="44.55135" lon="0.75478">
        <ele>121</ele>
        <time>2007-03-27T15:43:12Z</time>
      </trkpt>
      <trkpt lat="44.5515" lon="0.75453">
        <ele>123</ele>
        <time>2007-03-27T15:43:12Z</time>
      </trkpt>
      <trkpt lat="44.55199" lon="0.75418">
        <ele>127</ele>
        <time>2007-03-27T15:43:12Z</time>
      </trkpt>
      <trkpt lat="44.5525" lon="0.75379">
        <ele>128</ele>
        <time>2007-03-27T15:43:12Z</time>
      </trkpt>
      <trkpt lat="44.55303" lon="0.75354">
        <ele>127</ele>
        <time>2007-03-27T15:43:12Z</time>
      </trkpt>
      <trkpt lat="44.55351" lon="0.75332">
        <ele>126</ele>
        <time>2007-03-27T15:43:12Z</time>
      </trkpt>
      <trkpt lat="44.55397" lon="0.75299">
        <ele>126</ele>
        <time>2007-03-27T15:43:12Z</time>
      </trkpt>
      <trkpt lat="44.55444" lon="0.75254">
        <ele>128</ele>
        <time>2007-03-27T15:43:12Z</time>
      </trkpt>
      <trkpt lat="44.55469" lon="0.75216">
        <ele>129</ele>
        <time>2007-03-27T15:43:12Z</time>
      </trkpt>
      <trkpt lat="44.55489" lon="0.75188">
        <ele>130</ele>
        <time>2007-03-27T15:43:12Z</time>
      </trkpt>
      <trkpt lat="44.55506" lon="0.75136">
        <ele>132</ele>
        <time>2007-03-27T15:43:12Z</time>
      </trkpt>
      <trkpt lat="44.55528" lon="0.75091">
        <ele>132</ele>
        <time>2007-03-27T15:43:12Z</time>
      </trkpt>
      <trkpt lat="44.55557" lon="0.75024">
        <ele>130</ele>
        <time>2007-03-27T15:43:12Z</time>
      </trkpt>
      <trkpt lat="44.55578" lon="0.74984">
        <ele>128</ele>
        <time>2007-03-27T15:43:12Z</time>
      </trkpt>
      <trkpt lat="44.55605" lon="0.7494">
        <ele>124</ele>
        <time>2007-03-27T15:43:12Z</time>
      </trkpt>
      <trkpt lat="44.55638" lon="0.74884">
        <ele>119</ele>
        <time>2007-03-27T15:43:12Z</time>
      </trkpt>
      <trkpt lat="44.55653" lon="0.74841">
        <ele>118</ele>
        <time>2007-03-27T15:43:12Z</time>
      </trkpt>
      <trkpt lat="44.55656" lon="0.748">
        <ele>115</ele>
        <time>2007-03-27T15:43:12Z</time>
      </trkpt>
      <trkpt lat="44.5566" lon="0.7477">
        <ele>112</ele>
        <time>2007-03-27T15:43:12Z</time>
      </trkpt>
      <trkpt lat="44.55668" lon="0.74738">
        <ele>110</ele>
        <time>2007-03-27T15:43:12Z</time>
      </trkpt>
      <trkpt lat="44.55682" lon="0.74702">
        <ele>108</ele>
        <time>2007-03-27T15:43:12Z</time>
      </trkpt>
      <trkpt lat="44.55699" lon="0.74665">
        <ele>107</ele>
        <time>2007-03-27T15:43:12Z</time>
      </trkpt>
      <trkpt lat="44.55765" lon="0.7452">
        <ele>119</ele>
        <time>2007-03-27T15:43:12Z</time>
      </trkpt>
      <trkpt lat="44.55812" lon="0.74432">
        <ele>124</ele>
        <time>2007-03-27T15:43:12Z</time>
      </trkpt>
      <trkpt lat="44.5585" lon="0.74392">
        <ele>129</ele>
        <time>2007-03-27T15:43:12Z</time>
      </trkpt>
      <trkpt lat="44.55892" lon="0.7435">
        <ele>132</ele>
        <time>2007-03-27T15:43:12Z</time>
      </trkpt>
      <trkpt lat="44.55923" lon="0.74319">
        <ele>133</ele>
        <time>2007-03-27T15:43:12Z</time>
      </trkpt>
      <trkpt lat="44.55944" lon="0.74293">
        <ele>134</ele>
        <time>2007-03-27T15:43:12Z</time>
      </trkpt>
      <trkpt lat="44.55967" lon="0.74259">
        <ele>136</ele>
        <time>2007-03-27T15:43:12Z</time>
      </trkpt>
      <trkpt lat="44.55988" lon="0.74238">
        <ele>137</ele>
        <time>2007-03-27T15:43:12Z</time>
      </trkpt>
      <trkpt lat="44.55999" lon="0.74232">
        <ele>137</ele>
        <time>2007-03-27T15:43:12Z</time>
      </trkpt>
      <trkpt lat="44.56053" lon="0.74224">
        <ele>139</ele>
        <time>2007-03-27T15:43:12Z</time>
      </trkpt>
      <trkpt lat="44.5613" lon="0.74173">
        <ele>140</ele>
        <time>2007-03-27T15:43:12Z</time>
      </trkpt>
      <trkpt lat="44.56159" lon="0.74149">
        <ele>141</ele>
        <time>2007-03-27T15:43:12Z</time>
      </trkpt>
      <trkpt lat="44.56268" lon="0.7405">
        <ele>139</ele>
        <time>2007-03-27T15:43:12Z</time>
      </trkpt>
      <trkpt lat="44.56308" lon="0.74009">
        <ele>140</ele>
        <time>2007-03-27T15:43:12Z</time>
      </trkpt>
      <trkpt lat="44.56323" lon="0.7399">
        <ele>140</ele>
        <time>2007-03-27T15:43:12Z</time>
      </trkpt>
      <trkpt lat="44.56342" lon="0.73955">
        <ele>141</ele>
        <time>2007-03-27T15:43:12Z</time>
      </trkpt>
      <trkpt lat="44.56356" lon="0.7392">
        <ele>140</ele>
        <time>2007-03-27T15:43:12Z</time>
      </trkpt>
      <trkpt lat="44.56372" lon="0.73877">
        <ele>138</ele>
        <time>2007-03-27T15:43:12Z</time>
      </trkpt>
      <trkpt lat="44.56389" lon="0.73846">
        <ele>136</ele>
        <time>2007-03-27T15:43:12Z</time>
      </trkpt>
      <trkpt lat="44.56413" lon="0.73814">
        <ele>134</ele>
        <time>2007-03-27T15:43:12Z</time>
      </trkpt>
      <trkpt lat="44.5643" lon="0.73779">
        <ele>132</ele>
        <time>2007-03-27T15:43:12Z</time>
      </trkpt>
      <trkpt lat="44.56497" lon="0.73614">
        <ele>125</ele>
        <time>2007-03-27T15:43:12Z</time>
      </trkpt>
      <trkpt lat="44.56516" lon="0.73577">
        <ele>124</ele>
        <time>2007-03-27T15:43:12Z</time>
      </trkpt>
      <trkpt lat="44.5654" lon="0.73521">
        <ele>121</ele>
        <time>2007-03-27T15:43:12Z</time>
      </trkpt>
      <trkpt lat="44.56564" lon="0.73458">
        <ele>114</ele>
        <time>2007-03-27T15:43:12Z</time>
      </trkpt>
      <trkpt lat="44.56573" lon="0.73428">
        <ele>112</ele>
        <time>2007-03-27T15:43:12Z</time>
      </trkpt>
      <trkpt lat="44.56594" lon="0.73359">
        <ele>114</ele>
        <time>2007-03-27T15:43:12Z</time>
      </trkpt>
      <trkpt lat="44.56619" lon="0.73291">
        <ele>121</ele>
        <time>2007-03-27T15:43:12Z</time>
      </trkpt>
      <trkpt lat="44.56615" lon="0.73272">
        <ele>122</ele>
        <time>2007-03-27T15:43:12Z</time>
      </trkpt>
      <trkpt lat="44.56621" lon="0.73252">
        <ele>123</ele>
        <time>2007-03-27T15:43:12Z</time>
      </trkpt>
      <trkpt lat="44.56644" lon="0.7319">
        <ele>126</ele>
        <time>2007-03-27T15:43:12Z</time>
      </trkpt>
      <trkpt lat="44.56628" lon="0.73165">
        <ele>125</ele>
        <time>2007-03-27T15:43:12Z</time>
      </trkpt>
      <trkpt lat="44.56611" lon="0.73135">
        <ele>124</ele>
        <time>2007-03-27T15:43:12Z</time>
      </trkpt>
      <trkpt lat="44.56602" lon="0.73118">
        <ele>122</ele>
        <time>2007-03-27T15:43:12Z</time>
      </trkpt>
      <trkpt lat="44.56588" lon="0.73109">
        <ele>121</ele>
        <time>2007-03-27T15:43:12Z</time>
      </trkpt>
      <trkpt lat="44.56573" lon="0.73113">
        <ele>120</ele>
        <time>2007-03-27T15:43:12Z</time>
      </trkpt>
      <trkpt lat="44.5628" lon="0.73271">
        <ele>114</ele>
        <time>2007-03-27T15:43:12Z</time>
      </trkpt>
      <trkpt lat="44.56263" lon="0.73276">
        <ele>114</ele>
        <time>2007-03-27T15:43:12Z</time>
      </trkpt>
      <trkpt lat="44.56246" lon="0.73275">
        <ele>115</ele>
        <time>2007-03-27T15:43:12Z</time>
      </trkpt>
      <trkpt lat="44.56221" lon="0.73266">
        <ele>116</ele>
        <time>2007-03-27T15:43:12Z</time>
      </trkpt>
      <trkpt lat="44.56167" lon="0.73235">
        <ele>115</ele>
        <time>2007-03-27T15:43:12Z</time>
      </trkpt>
      <trkpt lat="44.56133" lon="0.73215">
        <ele>114</ele>
        <time>2007-03-27T15:43:12Z</time>
      </trkpt>
      <trkpt lat="44.56102" lon="0.73205">
        <ele>114</ele>
        <time>2007-03-27T15:43:12Z</time>
      </trkpt>
      <trkpt lat="44.56082" lon="0.73185">
        <ele>115</ele>
        <time>2007-03-27T15:43:12Z</time>
      </trkpt>
      <trkpt lat="44.56039" lon="0.73142">
        <ele>119</ele>
        <time>2007-03-27T15:43:12Z</time>
      </trkpt>
      <trkpt lat="44.55988" lon="0.73082">
        <ele>121</ele>
        <time>2007-03-27T15:43:12Z</time>
      </trkpt>
      <trkpt lat="44.55928" lon="0.7301">
        <ele>122</ele>
        <time>2007-03-27T15:43:12Z</time>
      </trkpt>
      <trkpt lat="44.55876" lon="0.72952">
        <ele>120</ele>
        <time>2007-03-27T15:43:12Z</time>
      </trkpt>
      <trkpt lat="44.55851" lon="0.72898">
        <ele>119</ele>
        <time>2007-03-27T15:43:12Z</time>
      </trkpt>
      <trkpt lat="44.55793" lon="0.72778">
        <ele>121</ele>
        <time>2007-03-27T15:43:12Z</time>
      </trkpt>
      <trkpt lat="44.55785" lon="0.72772">
        <ele>122</ele>
        <time>2007-03-27T15:43:12Z</time>
      </trkpt>
      <trkpt lat="44.55845" lon="0.72653">
        <ele>124</ele>
        <time>2007-03-27T15:43:12Z</time>
      </trkpt>
      <trkpt lat="44.55865" lon="0.7263">
        <ele>124</ele>
        <time>2007-03-27T15:43:12Z</time>
      </trkpt>
      <trkpt lat="44.55901" lon="0.72599">
        <ele>126</ele>
        <time>2007-03-27T15:43:12Z</time>
      </trkpt>
      <trkpt lat="44.55921" lon="0.72584">
        <ele>126</ele>
        <time>2007-03-27T15:43:12Z</time>
      </trkpt>
      <trkpt lat="44.55966" lon="0.72555">
        <ele>127</ele>
        <time>2007-03-27T15:43:12Z</time>
      </trkpt>
      <trkpt lat="44.55998" lon="0.72541">
        <ele>129</ele>
        <time>2007-03-27T15:43:12Z</time>
      </trkpt>
      <trkpt lat="44.56015" lon="0.72528">
        <ele>129</ele>
        <time>2007-03-27T15:43:12Z</time>
      </trkpt>
      <trkpt lat="44.56056" lon="0.72488">
        <ele>131</ele>
        <time>2007-03-27T15:43:12Z</time>
      </trkpt>
      <trkpt lat="44.56118" lon="0.72458">
        <ele>135</ele>
        <time>2007-03-27T15:43:12Z</time>
      </trkpt>
      <trkpt lat="44.56161" lon="0.7243">
        <ele>138</ele>
        <time>2007-03-27T15:43:12Z</time>
      </trkpt>
      <trkpt lat="44.56179" lon="0.72416">
        <ele>139</ele>
        <time>2007-03-27T15:43:12Z</time>
      </trkpt>
      <trkpt lat="44.56205" lon="0.72389">
        <ele>140</ele>
        <time>2007-03-27T15:43:12Z</time>
      </trkpt>
      <trkpt lat="44.56408" lon="0.72279">
        <ele>159</ele>
        <time>2007-03-27T15:43:12Z</time>
      </trkpt>
      <trkpt lat="44.56384" lon="0.7226">
        <ele>157</ele>
        <time>2007-03-27T15:43:12Z</time>
      </trkpt>
      <trkpt lat="44.56368" lon="0.72244">
        <ele>156</ele>
        <time>2007-03-27T15:43:12Z</time>
      </trkpt>
      <trkpt lat="44.56339" lon="0.72209">
        <ele>154</ele>
        <time>2007-03-27T15:43:12Z</time>
      </trkpt>
      <trkpt lat="44.56319" lon="0.72195">
        <ele>153</ele>
        <time>2007-03-27T15:43:12Z</time>
      </trkpt>
      <trkpt lat="44.56285" lon="0.7217">
        <ele>152</ele>
        <time>2007-03-27T15:43:12Z</time>
      </trkpt>
      <trkpt lat="44.56253" lon="0.72136">
        <ele>151</ele>
        <time>2007-03-27T15:43:12Z</time>
      </trkpt>
      <trkpt lat="44.5622" lon="0.7211">
        <ele>151</ele>
        <time>2007-03-27T15:43:12Z</time>
      </trkpt>
      <trkpt lat="44.56156" lon="0.72055">
        <ele>149</ele>
        <time>2007-03-27T15:43:12Z</time>
      </trkpt>
      <trkpt lat="44.56135" lon="0.72032">
        <ele>149</ele>
        <time>2007-03-27T15:43:12Z</time>
      </trkpt>
      <trkpt lat="44.56117" lon="0.71997">
        <ele>150</ele>
        <time>2007-03-27T15:43:12Z</time>
      </trkpt>
      <trkpt lat="44.561" lon="0.71967">
        <ele>150</ele>
        <time>2007-03-27T15:43:12Z</time>
      </trkpt>
      <trkpt lat="44.56077" lon="0.71937">
        <ele>149</ele>
        <time>2007-03-27T15:43:12Z</time>
      </trkpt>
      <trkpt lat="44.56046" lon="0.71903">
        <ele>150</ele>
        <time>2007-03-27T15:43:12Z</time>
      </trkpt>
      <trkpt lat="44.56015" lon="0.71861">
        <ele>150</ele>
        <time>2007-03-27T15:43:12Z</time>
      </trkpt>
      <trkpt lat="44.5596" lon="0.71765">
        <ele>146</ele>
        <time>2007-03-27T15:43:12Z</time>
      </trkpt>
      <trkpt lat="44.55942" lon="0.71747">
        <ele>144</ele>
        <time>2007-03-27T15:43:12Z</time>
      </trkpt>
      <trkpt lat="44.55905" lon="0.71723">
        <ele>142</ele>
        <time>2007-03-27T15:43:12Z</time>
      </trkpt>
      <trkpt lat="44.55882" lon="0.71719">
        <ele>141</ele>
        <time>2007-03-27T15:43:12Z</time>
      </trkpt>
      <trkpt lat="44.55814" lon="0.71715">
        <ele>140</ele>
        <time>2007-03-27T15:43:12Z</time>
      </trkpt>
      <trkpt lat="44.55787" lon="0.71715">
        <ele>141</ele>
        <time>2007-03-27T15:43:12Z</time>
      </trkpt>
      <trkpt lat="44.55749" lon="0.71707">
        <ele>142</ele>
        <time>2007-03-27T15:43:12Z</time>
      </trkpt>
      <trkpt lat="44.55722" lon="0.7173">
        <ele>143</ele>
        <time>2007-03-27T15:43:12Z</time>
      </trkpt>
      <trkpt lat="44.55686" lon="0.71756">
        <ele>143</ele>
        <time>2007-03-27T15:43:12Z</time>
      </trkpt>
      <trkpt lat="44.55652" lon="0.71779">
        <ele>144</ele>
        <time>2007-03-27T15:43:12Z</time>
      </trkpt>
      <trkpt lat="44.55601" lon="0.71812">
        <ele>145</ele>
        <time>2007-03-27T15:43:12Z</time>
      </trkpt>
      <trkpt lat="44.55583" lon="0.71827">
        <ele>145</ele>
        <time>2007-03-27T15:43:12Z</time>
      </trkpt>
      <trkpt lat="44.55564" lon="0.71843">
        <ele>145</ele>
        <time>2007-03-27T15:43:12Z</time>
      </trkpt>
      <trkpt lat="44.55541" lon="0.71873">
        <ele>146</ele>
        <time>2007-03-27T15:43:12Z</time>
      </trkpt>
      <trkpt lat="44.55483" lon="0.71954">
        <ele>148</ele>
        <time>2007-03-27T15:43:12Z</time>
      </trkpt>
      <trkpt lat="44.5544" lon="0.71971">
        <ele>149</ele>
        <time>2007-03-27T15:43:12Z</time>
      </trkpt>
      <trkpt lat="44.55409" lon="0.71992">
        <ele>150</ele>
        <time>2007-03-27T15:43:12Z</time>
      </trkpt>
      <trkpt lat="44.55379" lon="0.72015">
        <ele>149</ele>
        <time>2007-03-27T15:43:12Z</time>
      </trkpt>
      <trkpt lat="44.55334" lon="0.7204">
        <ele>147</ele>
        <time>2007-03-27T15:43:12Z</time>
      </trkpt>
      <trkpt lat="44.55245" lon="0.72093">
        <ele>145</ele>
        <time>2007-03-27T15:43:12Z</time>
      </trkpt>
      <trkpt lat="44.55209" lon="0.72102">
        <ele>143</ele>
        <time>2007-03-27T15:43:12Z</time>
      </trkpt>
      <trkpt lat="44.55175" lon="0.72114">
        <ele>142</ele>
        <time>2007-03-27T15:43:12Z</time>
      </trkpt>
      <trkpt lat="44.55132" lon="0.7213">
        <ele>141</ele>
        <time>2007-03-27T15:43:12Z</time>
      </trkpt>
      <trkpt lat="44.55086" lon="0.72152">
        <ele>141</ele>
        <time>2007-03-27T15:43:12Z</time>
      </trkpt>
      <trkpt lat="44.55031" lon="0.72195">
        <ele>141</ele>
        <time>2007-03-27T15:43:12Z</time>
      </trkpt>
      <trkpt lat="44.54998" lon="0.72221">
        <ele>140</ele>
        <time>2007-03-27T15:43:12Z</time>
      </trkpt>
      <trkpt lat="44.54937" lon="0.72278">
        <ele>140</ele>
        <time>2007-03-27T15:43:12Z</time>
      </trkpt>
      <trkpt lat="44.54906" lon="0.72305">
        <ele>140</ele>
        <time>2007-03-27T15:43:12Z</time>
      </trkpt>
      <trkpt lat="44.54863" lon="0.72336">
        <ele>141</ele>
        <time>2007-03-27T15:43:12Z</time>
      </trkpt>
      <trkpt lat="44.54824" lon="0.72393">
        <ele>140</ele>
        <time>2009-01-04T18:51:07Z</time>
      </trkpt>
      <trkpt lat="44.54784" lon="0.72453">
        <ele>141</ele>
        <time>2009-01-04T18:51:07Z</time>
      </trkpt>
      <trkpt lat="44.54765" lon="0.72493">
        <ele>139</ele>
        <time>2007-03-27T15:43:12Z</time>
      </trkpt>
      <trkpt lat="44.54727" lon="0.72444">
        <ele>144</ele>
        <time>2007-03-27T15:43:12Z</time>
      </trkpt>
      <trkpt lat="44.54667" lon="0.72494">
        <ele>145</ele>
        <time>2007-03-27T15:43:12Z</time>
      </trkpt>
      <trkpt lat="44.54627" lon="0.72524">
        <ele>146</ele>
        <time>2007-03-27T15:43:12Z</time>
      </trkpt>
      <trkpt lat="44.54579" lon="0.72563">
        <ele>146</ele>
        <time>2007-03-27T15:43:12Z</time>
      </trkpt>
      <trkpt lat="44.54541" lon="0.72594">
        <ele>146</ele>
        <time>2007-03-27T15:43:12Z</time>
      </trkpt>
      <trkpt lat="44.54506" lon="0.72626">
        <ele>146</ele>
        <time>2007-03-27T15:43:12Z</time>
      </trkpt>
      <trkpt lat="44.54481" lon="0.72635">
        <ele>145</ele>
        <time>2007-03-27T15:43:12Z</time>
      </trkpt>
      <trkpt lat="44.54428" lon="0.72652">
        <ele>144</ele>
        <time>2007-03-27T15:43:12Z</time>
      </trkpt>
      <trkpt lat="44.54376" lon="0.72682">
        <ele>142</ele>
        <time>2007-03-27T15:43:12Z</time>
      </trkpt>
      <trkpt lat="44.54339" lon="0.72704">
        <ele>141</ele>
        <time>2007-03-27T15:43:12Z</time>
      </trkpt>
      <trkpt lat="44.54267" lon="0.72759">
        <ele>137</ele>
        <time>2007-03-27T15:43:12Z</time>
      </trkpt>
      <trkpt lat="44.54214" lon="0.72805">
        <ele>135</ele>
        <time>2007-03-27T15:43:12Z</time>
      </trkpt>
      <trkpt lat="44.54179" lon="0.72824">
        <ele>135</ele>
        <time>2007-03-27T15:43:12Z</time>
      </trkpt>
      <trkpt lat="44.54156" lon="0.7283">
        <ele>136</ele>
        <time>2007-03-27T15:43:12Z</time>
      </trkpt>
      <trkpt lat="44.54133" lon="0.72827">
        <ele>138</ele>
        <time>2007-03-27T15:43:12Z</time>
      </trkpt>
      <trkpt lat="44.54085" lon="0.72829">
        <ele>139</ele>
        <time>2007-03-27T15:43:12Z</time>
      </trkpt>
      <trkpt lat="44.5405" lon="0.72842">
        <ele>141</ele>
        <time>2007-03-27T15:43:12Z</time>
      </trkpt>
      <trkpt lat="44.54034" lon="0.72797">
        <ele>142</ele>
        <time>2007-03-27T15:43:12Z</time>
      </trkpt>
      <trkpt lat="44.54014" lon="0.72771">
        <ele>142</ele>
        <time>2007-03-27T15:43:12Z</time>
      </trkpt>
      <trkpt lat="44.53987" lon="0.72748">
        <ele>142</ele>
        <time>2007-03-27T15:43:12Z</time>
      </trkpt>
      <trkpt lat="44.53856" lon="0.72651">
        <ele>139</ele>
        <time>2007-03-27T15:43:12Z</time>
      </trkpt>
      <trkpt lat="44.53878" lon="0.72549">
        <ele>135</ele>
        <time>2007-03-27T15:43:12Z</time>
      </trkpt>
      <trkpt lat="44.53894" lon="0.72477">
        <ele>133</ele>
        <time>2007-03-27T15:43:12Z</time>
      </trkpt>
      <trkpt lat="44.53898" lon="0.7244">
        <ele>132</ele>
        <time>2007-03-27T15:43:12Z</time>
      </trkpt>
      <trkpt lat="44.53675" lon="0.72391">
        <ele>121</ele>
        <time>2007-03-27T15:43:12Z</time>
      </trkpt>
      <trkpt lat="44.53656" lon="0.7245">
        <ele>119</ele>
        <time>2007-03-27T15:43:12Z</time>
      </trkpt>
      <trkpt lat="44.53599" lon="0.72649">
        <ele>122</ele>
        <time>2007-03-27T15:43:12Z</time>
      </trkpt>
      <trkpt lat="44.53599" lon="0.7269">
        <ele>121</ele>
        <time>2007-03-27T15:43:12Z</time>
      </trkpt>
      <trkpt lat="44.53586" lon="0.72713">
        <ele>119</ele>
        <time>2007-03-27T15:43:12Z</time>
      </trkpt>
      <trkpt lat="44.53562" lon="0.72737">
        <ele>117</ele>
        <time>2007-03-27T15:43:12Z</time>
      </trkpt>
      <trkpt lat="44.53542" lon="0.72756">
        <ele>114</ele>
        <time>2007-03-27T15:43:12Z</time>
      </trkpt>
      <trkpt lat="44.53525" lon="0.72771">
        <ele>112</ele>
        <time>2007-03-27T15:43:12Z</time>
      </trkpt>
      <trkpt lat="44.53517" lon="0.72787">
        <ele>110</ele>
        <time>2007-03-27T15:43:12Z</time>
      </trkpt>
      <trkpt lat="44.53516" lon="0.72817">
        <ele>110</ele>
        <time>2007-03-27T15:43:12Z</time>
      </trkpt>
      <trkpt lat="44.53516" lon="0.72861">
        <ele>111</ele>
        <time>2007-03-27T15:43:12Z</time>
      </trkpt>
      <trkpt lat="44.53514" lon="0.72889">
        <ele>112</ele>
        <time>2007-03-27T15:43:12Z</time>
      </trkpt>
      <trkpt lat="44.53508" lon="0.7291">
        <ele>112</ele>
        <time>2007-03-27T15:43:12Z</time>
      </trkpt>
      <trkpt lat="44.53496" lon="0.7294">
        <ele>111</ele>
        <time>2007-03-27T15:43:12Z</time>
      </trkpt>
      <trkpt lat="44.53502" lon="0.73015">
        <ele>113</ele>
        <time>2007-03-27T15:43:12Z</time>
      </trkpt>
      <trkpt lat="44.53519" lon="0.73052">
        <ele>114</ele>
        <time>2007-03-27T15:43:12Z</time>
      </trkpt>
      <trkpt lat="44.53497" lon="0.73091">
        <ele>114</ele>
        <time>2007-03-27T15:43:12Z</time>
      </trkpt>
      <trkpt lat="44.53462" lon="0.73134">
        <ele>115</ele>
        <time>2007-03-27T15:43:12Z</time>
      </trkpt>
      <trkpt lat="44.53446" lon="0.73168">
        <ele>116</ele>
        <time>2007-03-27T15:43:12Z</time>
      </trkpt>
      <trkpt lat="44.53432" lon="0.73203">
        <ele>117</ele>
        <time>2007-03-27T15:43:12Z</time>
      </trkpt>
      <trkpt lat="44.53416" lon="0.73216">
        <ele>117</ele>
        <time>2007-03-27T15:43:12Z</time>
      </trkpt>
      <trkpt lat="44.53385" lon="0.73231">
        <ele>116</ele>
        <time>2007-03-27T15:43:12Z</time>
      </trkpt>
      <trkpt lat="44.5331" lon="0.7326">
        <ele>115</ele>
        <time>2007-03-27T15:43:12Z</time>
      </trkpt>
      <trkpt lat="44.53252" lon="0.73291">
        <ele>113</ele>
        <time>2007-03-27T15:43:12Z</time>
      </trkpt>
      <trkpt lat="44.5322" lon="0.73317">
        <ele>113</ele>
        <time>2007-03-27T15:43:12Z</time>
      </trkpt>
      <trkpt lat="44.53189" lon="0.7335">
        <ele>112</ele>
        <time>2007-03-27T15:43:12Z</time>
      </trkpt>
      <trkpt lat="44.53157" lon="0.73383">
        <ele>112</ele>
        <time>2007-03-27T15:43:12Z</time>
      </trkpt>
      <trkpt lat="44.53124" lon="0.73427">
        <ele>112</ele>
        <time>2007-03-27T15:43:12Z</time>
      </trkpt>
      <trkpt lat="44.53096" lon="0.73465">
        <ele>112</ele>
        <time>2007-03-27T15:43:12Z</time>
      </trkpt>
      <trkpt lat="44.53079" lon="0.735">
        <ele>111</ele>
        <time>2007-03-27T15:43:12Z</time>
      </trkpt>
      <trkpt lat="44.53067" lon="0.73523">
        <ele>111</ele>
        <time>2007-03-27T15:43:12Z</time>
      </trkpt>
      <trkpt lat="44.53045" lon="0.73525">
        <ele>111</ele>
        <time>2007-03-27T15:43:12Z</time>
      </trkpt>
      <trkpt lat="44.53014" lon="0.7352">
        <ele>112</ele>
        <time>2007-03-27T15:43:12Z</time>
      </trkpt>
      <trkpt lat="44.52965" lon="0.7351">
        <ele>111</ele>
        <time>2007-03-27T15:43:12Z</time>
      </trkpt>
      <trkpt lat="44.52938" lon="0.73517">
        <ele>111</ele>
        <time>2007-03-27T15:43:12Z</time>
      </trkpt>
      <trkpt lat="44.52904" lon="0.73553">
        <ele>110</ele>
        <time>2007-03-27T15:43:12Z</time>
      </trkpt>
      <trkpt lat="44.52817" lon="0.73648">
        <ele>106</ele>
        <time>2007-03-27T15:43:12Z</time>
      </trkpt>
      <trkpt lat="44.52791" lon="0.73675">
        <ele>104</ele>
        <time>2007-03-27T15:43:12Z</time>
      </trkpt>
      <trkpt lat="44.52775" lon="0.73709">
        <ele>102</ele>
        <time>2007-03-27T15:43:12Z</time>
      </trkpt>
      <trkpt lat="44.5276" lon="0.73753">
        <ele>102</ele>
        <time>2007-03-27T15:43:12Z</time>
      </trkpt>
      <trkpt lat="44.52725" lon="0.73781">
        <ele>98</ele>
        <time>2007-03-27T15:43:12Z</time>
      </trkpt>
      <trkpt lat="44.52672" lon="0.73812">
        <ele>89</ele>
        <time>2007-03-27T15:43:12Z</time>
      </trkpt>
      <trkpt lat="44.52601" lon="0.73838">
        <ele>80</ele>
        <time>2007-03-27T15:43:12Z</time>
      </trkpt>
      <trkpt lat="44.52601" lon="0.73871">
        <ele>79</ele>
        <time>2007-03-27T15:43:12Z</time>
      </trkpt>
      <trkpt lat="44.52611" lon="0.73894">
        <ele>79</ele>
        <time>2007-03-27T15:43:12Z</time>
      </trkpt>
      <trkpt lat="44.52627" lon="0.73925">
        <ele>78</ele>
        <time>2007-03-27T15:43:12Z</time>
      </trkpt>
      <trkpt lat="44.52652" lon="0.73951">
        <ele>77</ele>
        <time>2007-03-27T15:43:12Z</time>
      </trkpt>
      <trkpt lat="44.52684" lon="0.73946">
        <ele>77</ele>
        <time>2007-03-27T15:43:12Z</time>
      </trkpt>
      <trkpt lat="44.52707" lon="0.7395">
        <ele>77</ele>
        <time>2007-03-27T15:43:12Z</time>
      </trkpt>
      <trkpt lat="44.5272" lon="0.73957">
        <ele>76</ele>
        <time>2007-03-27T15:43:12Z</time>
      </trkpt>
      <trkpt lat="44.52735" lon="0.7398">
        <ele>74</ele>
        <time>2007-03-27T15:43:12Z</time>
      </trkpt>
      <trkpt lat="44.5274" lon="0.74016">
        <ele>72</ele>
        <time>2007-03-27T15:43:12Z</time>
      </trkpt>
      <trkpt lat="44.5274" lon="0.74054">
        <ele>73</ele>
        <time>2007-03-27T15:43:12Z</time>
      </trkpt>
      <trkpt lat="44.52737" lon="0.74106">
        <ele>74</ele>
        <time>2007-03-27T15:43:12Z</time>
      </trkpt>
      <trkpt lat="44.52734" lon="0.74156">
        <ele>75</ele>
        <time>2007-03-27T15:43:12Z</time>
      </trkpt>
      <trkpt lat="44.52729" lon="0.74191">
        <ele>78</ele>
        <time>2007-03-27T15:43:12Z</time>
      </trkpt>
      <trkpt lat="44.52719" lon="0.74234">
        <ele>80</ele>
        <time>2007-03-27T15:43:12Z</time>
      </trkpt>
      <trkpt lat="44.52733" lon="0.74252">
        <ele>81</ele>
        <time>2007-03-27T15:43:12Z</time>
      </trkpt>
      <trkpt lat="44.52762" lon="0.74311">
        <ele>84</ele>
        <time>2007-03-27T15:43:12Z</time>
      </trkpt>
      <trkpt lat="44.52769" lon="0.74382">
        <ele>88</ele>
        <time>2007-03-27T15:43:12Z</time>
      </trkpt>
      <trkpt lat="44.52769" lon="0.74421">
        <ele>91</ele>
        <time>2007-03-27T15:43:12Z</time>
      </trkpt>
      <trkpt lat="44.528" lon="0.74414">
        <ele>87</ele>
        <time>2007-03-27T15:43:12Z</time>
      </trkpt>
      <trkpt lat="44.52824" lon="0.74413">
        <ele>84</ele>
        <time>2007-03-27T15:43:12Z</time>
      </trkpt>
      <trkpt lat="44.5286" lon="0.74428">
        <ele>81</ele>
        <time>2007-03-27T15:43:12Z</time>
      </trkpt>
      <trkpt lat="44.52888" lon="0.74444">
        <ele>83</ele>
        <time>2007-03-27T15:43:12Z</time>
      </trkpt>
      <trkpt lat="44.52948" lon="0.74474">
        <ele>88</ele>
        <time>2007-03-27T15:43:12Z</time>
      </trkpt>
      <trkpt lat="44.52944" lon="0.74493">
        <ele>91</ele>
        <time>2007-03-27T15:43:12Z</time>
      </trkpt>
      <trkpt lat="44.52955" lon="0.74508">
        <ele>90</ele>
        <time>2007-03-27T15:43:12Z</time>
      </trkpt>
      <trkpt lat="44.52959" lon="0.7454">
        <ele>90</ele>
        <time>2007-03-27T15:43:12Z</time>
      </trkpt>
      <trkpt lat="44.52965" lon="0.7459">
        <ele>90</ele>
        <time>2007-03-27T15:43:12Z</time>
      </trkpt>
      <trkpt lat="44.52969" lon="0.74643">
        <ele>90</ele>
        <time>2007-03-27T15:43:12Z</time>
      </trkpt>
      <trkpt lat="44.52972" lon="0.74687">
        <ele>92</ele>
        <time>2007-03-27T15:43:12Z</time>
      </trkpt>
      <trkpt lat="44.52983" lon="0.74714">
        <ele>91</ele>
        <time>2007-03-27T15:43:12Z</time>
      </trkpt>
      <trkpt lat="44.52991" lon="0.74743">
        <ele>91</ele>
        <time>2007-03-27T15:43:12Z</time>
      </trkpt>
      <trkpt lat="44.52993" lon="0.74784">
        <ele>92</ele>
        <time>2007-03-27T15:43:12Z</time>
      </trkpt>
      <trkpt lat="44.52993" lon="0.74822">
        <ele>92</ele>
        <time>2007-03-27T15:43:12Z</time>
      </trkpt>
      <trkpt lat="44.52996" lon="0.74858">
        <ele>93</ele>
        <time>2007-03-27T15:43:12Z</time>
      </trkpt>
      <trkpt lat="44.52996" lon="0.74888">
        <ele>95</ele>
        <time>2007-03-27T15:43:12Z</time>
      </trkpt>
      <trkpt lat="44.52987" lon="0.74904">
        <ele>97</ele>
        <time>2007-03-27T15:43:12Z</time>
      </trkpt>
      <trkpt lat="44.52976" lon="0.74912">
        <ele>98</ele>
        <time>2007-03-27T15:43:12Z</time>
      </trkpt>
      <trkpt lat="44.52965" lon="0.74918">
        <ele>100</ele>
        <time>2007-03-27T15:43:12Z</time>
      </trkpt>
      <trkpt lat="44.52957" lon="0.74944">
        <ele>102</ele>
        <time>2007-03-27T15:43:12Z</time>
      </trkpt>
      <trkpt lat="44.52949" lon="0.74997">
        <ele>103</ele>
        <time>2007-03-27T15:43:12Z</time>
      </trkpt>
      <trkpt lat="44.52947" lon="0.75046">
        <ele>103</ele>
        <time>2007-03-27T15:43:12Z</time>
      </trkpt>
      <trkpt lat="44.52947" lon="0.75089">
        <ele>103</ele>
        <time>2007-03-27T15:43:12Z</time>
      </trkpt>
      <trkpt lat="44.52947" lon="0.75112">
        <ele>102</ele>
        <time>2007-03-27T15:43:12Z</time>
      </trkpt>
      <trkpt lat="44.52938" lon="0.75142">
        <ele>102</ele>
        <time>2007-03-27T15:43:12Z</time>
      </trkpt>
      <trkpt lat="44.52914" lon="0.75179">
        <ele>103</ele>
        <time>2007-03-27T15:43:12Z</time>
      </trkpt>
      <trkpt lat="44.52895" lon="0.7521">
        <ele>102</ele>
        <time>2007-03-27T15:43:12Z</time>
      </trkpt>
      <trkpt lat="44.52876" lon="0.75246">
        <ele>103</ele>
        <time>2007-03-27T15:43:12Z</time>
      </trkpt>
      <trkpt lat="44.52871" lon="0.75261">
        <ele>103</ele>
        <time>2007-03-27T15:43:12Z</time>
      </trkpt>
      <trkpt lat="44.52866" lon="0.75281">
        <ele>104</ele>
        <time>2007-03-27T15:43:12Z</time>
      </trkpt>
      <trkpt lat="44.52847" lon="0.75318">
        <ele>104</ele>
        <time>2007-03-27T15:43:12Z</time>
      </trkpt>
      <trkpt lat="44.52853" lon="0.75344">
        <ele>105</ele>
        <time>2007-03-27T15:43:12Z</time>
      </trkpt>
      <trkpt lat="44.52854" lon="0.7536">
        <ele>106</ele>
        <time>2007-03-27T15:43:12Z</time>
      </trkpt>
      <trkpt lat="44.52854" lon="0.75399">
        <ele>107</ele>
        <time>2007-03-27T15:43:12Z</time>
      </trkpt>
      <trkpt lat="44.52868" lon="0.75402">
        <ele>109</ele>
        <time>2007-03-27T15:43:12Z</time>
      </trkpt>
      <trkpt lat="44.52899" lon="0.75392">
        <ele>111</ele>
        <time>2007-03-27T15:43:12Z</time>
      </trkpt>
      <trkpt lat="44.52929" lon="0.75367">
        <ele>111</ele>
        <time>2007-03-27T15:43:12Z</time>
      </trkpt>
      <trkpt lat="44.52952" lon="0.75345">
        <ele>112</ele>
        <time>2007-03-27T15:43:12Z</time>
      </trkpt>
      <trkpt lat="44.52976" lon="0.75328">
        <ele>112</ele>
        <time>2007-03-27T15:43:12Z</time>
      </trkpt>
      <trkpt lat="44.52983" lon="0.75336">
        <ele>113</ele>
        <time>2007-03-27T15:43:12Z</time>
      </trkpt>
      <trkpt lat="44.53008" lon="0.75359">
        <ele>115</ele>
        <time>2007-03-27T15:43:12Z</time>
      </trkpt>
      <trkpt lat="44.53036" lon="0.75404">
        <ele>116</ele>
        <time>2007-03-27T15:43:12Z</time>
      </trkpt>
      <trkpt lat="44.53044" lon="0.75432">
        <ele>117</ele>
        <time>2007-03-27T15:43:12Z</time>
      </trkpt>
      <trkpt lat="44.53058" lon="0.7549">
        <ele>118</ele>
        <time>2007-03-27T15:43:12Z</time>
      </trkpt>
      <trkpt lat="44.53075" lon="0.75484">
        <ele>119</ele>
        <time>2007-03-27T15:43:12Z</time>
      </trkpt>
      <trkpt lat="44.53105" lon="0.75477">
        <ele>120</ele>
        <time>2007-03-27T15:43:12Z</time>
      </trkpt>
      <trkpt lat="44.53146" lon="0.75475">
        <ele>120</ele>
        <time>2007-03-27T15:43:12Z</time>
      </trkpt>
      <trkpt lat="44.53188" lon="0.75476">
        <ele>121</ele>
        <time>2007-03-27T15:43:12Z</time>
      </trkpt>
      <trkpt lat="44.53195" lon="0.75486">
        <ele>121</ele>
        <time>2009-01-04T18:51:07Z</time>
      </trkpt>
      <trkpt lat="44.53181" lon="0.75616">
        <ele>123</ele>
        <time>2007-03-27T15:43:12Z</time>
      </trkpt>
      <trkpt lat="44.53178" lon="0.75712">
        <ele>123</ele>
        <time>2007-03-27T15:43:12Z</time>
      </trkpt>
      <trkpt lat="44.53179" lon="0.75835">
        <ele>123</ele>
        <time>2007-03-27T15:43:12Z</time>
      </trkpt>
      <trkpt lat="44.53182" lon="0.75917">
        <ele>122</ele>
        <time>2007-03-27T15:43:12Z</time>
      </trkpt>
      <trkpt lat="44.53178" lon="0.76002">
        <ele>122</ele>
        <time>2007-03-27T15:43:12Z</time>
      </trkpt>
      <trkpt lat="44.53175" lon="0.76082">
        <ele>123</ele>
        <time>2007-03-27T15:43:12Z</time>
      </trkpt>
      <trkpt lat="44.53179" lon="0.76138">
        <ele>124</ele>
        <time>2007-03-27T15:43:12Z</time>
      </trkpt>
      <trkpt lat="44.53185" lon="0.76187">
        <ele>126</ele>
        <time>2007-03-27T15:43:12Z</time>
      </trkpt>
      <trkpt lat="44.53209" lon="0.76332">
        <ele>132</ele>
        <time>2007-03-27T15:43:12Z</time>
      </trkpt>
      <trkpt lat="44.5321" lon="0.76364">
        <ele>134</ele>
        <time>2007-03-27T15:43:12Z</time>
      </trkpt>
      <trkpt lat="44.53209" lon="0.76389">
        <ele>135</ele>
        <time>2007-03-27T15:43:12Z</time>
      </trkpt>
      <trkpt lat="44.53208" lon="0.7642">
        <ele>135</ele>
        <time>2007-03-27T15:43:12Z</time>
      </trkpt>
      <trkpt lat="44.53196" lon="0.76479">
        <ele>137</ele>
        <time>2007-03-27T15:43:12Z</time>
      </trkpt>
      <trkpt lat="44.53192" lon="0.76517">
        <ele>139</ele>
        <time>2007-03-27T15:43:12Z</time>
      </trkpt>
      <trkpt lat="44.5319" lon="0.76555">
        <ele>147</ele>
        <time>2007-03-27T15:43:12Z</time>
      </trkpt>
      <trkpt lat="44.53154" lon="0.76581">
        <ele>150</ele>
        <time>2007-03-27T15:43:12Z</time>
      </trkpt>
      <trkpt lat="44.53129" lon="0.76603">
        <ele>150</ele>
        <time>2007-03-27T15:43:12Z</time>
      </trkpt>
      <trkpt lat="44.53116" lon="0.76621">
        <ele>151</ele>
        <time>2007-03-27T15:43:12Z</time>
      </trkpt>
      <trkpt lat="44.53101" lon="0.76648">
        <ele>152</ele>
        <time>2007-03-27T15:43:12Z</time>
      </trkpt>
      <trkpt lat="44.53091" lon="0.76682">
        <ele>155</ele>
        <time>2007-03-27T15:43:12Z</time>
      </trkpt>
      <trkpt lat="44.53079" lon="0.76707">
        <ele>156</ele>
        <time>2007-03-27T15:43:12Z</time>
      </trkpt>
      <trkpt lat="44.53069" lon="0.7675">
        <ele>158</ele>
        <time>2007-03-27T15:43:12Z</time>
      </trkpt>
      <trkpt lat="44.53058" lon="0.76785">
        <ele>157</ele>
        <time>2007-03-27T15:43:12Z</time>
      </trkpt>
      <trkpt lat="44.53052" lon="0.76808">
        <ele>157</ele>
        <time>2007-03-27T15:43:12Z</time>
      </trkpt>
      <trkpt lat="44.53045" lon="0.76842">
        <ele>157</ele>
        <time>2007-03-27T15:43:12Z</time>
      </trkpt>
      <trkpt lat="44.53037" lon="0.76848">
        <ele>155</ele>
        <time>2007-03-27T15:43:12Z</time>
      </trkpt>
      <trkpt lat="44.53022" lon="0.76868">
        <ele>152</ele>
        <time>2007-03-27T15:43:12Z</time>
      </trkpt>
    </trkseg>
  </trk>
  <trk>
    <name><![CDATA[2015CailladellesCrouzillac]]></name>
    <extensions>
      <line xmlns="http://www.topografix.com/GPX/gpx_style/0/2">
        <color>FF0000</color>
        <width>4</width>
      </line>
    </extensions>
    <trkseg>
      <trkpt lat="44.50686" lon="0.70734">
        <ele>212</ele>
      </trkpt>
      <trkpt lat="44.50664" lon="0.70743">
        <ele>212</ele>
      </trkpt>
      <trkpt lat="44.50649" lon="0.70748">
        <ele>212</ele>
      </trkpt>
      <trkpt lat="44.5063" lon="0.70758">
        <ele>211</ele>
      </trkpt>
      <trkpt lat="44.50596" lon="0.70767">
        <ele>211</ele>
      </trkpt>
      <trkpt lat="44.50548" lon="0.70773">
        <ele>211</ele>
      </trkpt>
      <trkpt lat="44.50518" lon="0.70772">
        <ele>211</ele>
      </trkpt>
      <trkpt lat="44.50499" lon="0.70774">
        <ele>210</ele>
      </trkpt>
      <trkpt lat="44.50469" lon="0.70786">
        <ele>210</ele>
      </trkpt>
      <trkpt lat="44.50433" lon="0.70803">
        <ele>207</ele>
      </trkpt>
      <trkpt lat="44.50405" lon="0.70822">
        <ele>205</ele>
      </trkpt>
      <trkpt lat="44.50379" lon="0.70848">
        <ele>201</ele>
      </trkpt>
      <trkpt lat="44.50353" lon="0.70874">
        <ele>195</ele>
      </trkpt>
      <trkpt lat="44.50331" lon="0.70905">
        <ele>191</ele>
      </trkpt>
      <trkpt lat="44.50299" lon="0.7094">
        <ele>184</ele>
      </trkpt>
      <trkpt lat="44.50264" lon="0.70985">
        <ele>180</ele>
      </trkpt>
      <trkpt lat="44.50252" lon="0.71006">
        <ele>179</ele>
      </trkpt>
      <trkpt lat="44.50239" lon="0.7103">
        <ele>178</ele>
      </trkpt>
      <trkpt lat="44.50225" lon="0.71041">
        <ele>176</ele>
      </trkpt>
      <trkpt lat="44.50204" lon="0.71053">
        <ele>174</ele>
      </trkpt>
      <trkpt lat="44.50191" lon="0.7106">
        <ele>173</ele>
      </trkpt>
      <trkpt lat="44.50172" lon="0.71062">
        <ele>170</ele>
      </trkpt>
      <trkpt lat="44.50144" lon="0.71064">
        <ele>168</ele>
      </trkpt>
      <trkpt lat="44.50114" lon="0.71067">
        <ele>166</ele>
      </trkpt>
      <trkpt lat="44.5009" lon="0.71064">
        <ele>164</ele>
      </trkpt>
      <trkpt lat="44.50054" lon="0.71059">
        <ele>162</ele>
      </trkpt>
      <trkpt lat="44.50027" lon="0.71058">
        <ele>161</ele>
      </trkpt>
      <trkpt lat="44.50002" lon="0.71059">
        <ele>160</ele>
      </trkpt>
      <trkpt lat="44.49981" lon="0.71059">
        <ele>158</ele>
      </trkpt>
      <trkpt lat="44.49955" lon="0.71065">
        <ele>157</ele>
      </trkpt>
      <trkpt lat="44.4992" lon="0.71064">
        <ele>156</ele>
      </trkpt>
      <trkpt lat="44.49906" lon="0.71065">
        <ele>155</ele>
      </trkpt>
      <trkpt lat="44.49883" lon="0.71051">
        <ele>155</ele>
      </trkpt>
      <trkpt lat="44.49846" lon="0.71029">
        <ele>153</ele>
      </trkpt>
      <trkpt lat="44.498" lon="0.70994">
        <ele>152</ele>
      </trkpt>
      <trkpt lat="44.49761" lon="0.7097">
        <ele>149</ele>
      </trkpt>
      <trkpt lat="44.49719" lon="0.70937">
        <ele>147</ele>
      </trkpt>
      <trkpt lat="44.49677" lon="0.70906">
        <ele>147</ele>
      </trkpt>
      <trkpt lat="44.49638" lon="0.70876">
        <ele>148</ele>
      </trkpt>
      <trkpt lat="44.49604" lon="0.70852">
        <ele>149</ele>
      </trkpt>
      <trkpt lat="44.49562" lon="0.70828">
        <ele>150</ele>
      </trkpt>
      <trkpt lat="44.49532" lon="0.70802">
        <ele>152</ele>
      </trkpt>
      <trkpt lat="44.49511" lon="0.70784">
        <ele>151</ele>
      </trkpt>
      <trkpt lat="44.49489" lon="0.70756">
        <ele>150</ele>
      </trkpt>
      <trkpt lat="44.49464" lon="0.70721">
        <ele>148</ele>
      </trkpt>
      <trkpt lat="44.49435" lon="0.70673">
        <ele>145</ele>
      </trkpt>
      <trkpt lat="44.49409" lon="0.70627">
        <ele>141</ele>
      </trkpt>
      <trkpt lat="44.49385" lon="0.70572">
        <ele>136</ele>
      </trkpt>
      <trkpt lat="44.49368" lon="0.70551">
        <ele>133</ele>
      </trkpt>
      <trkpt lat="44.49357" lon="0.70531">
        <ele>131</ele>
      </trkpt>
      <trkpt lat="44.49335" lon="0.70492">
        <ele>126</ele>
      </trkpt>
      <trkpt lat="44.49309" lon="0.70433">
        <ele>120</ele>
      </trkpt>
      <trkpt lat="44.49293" lon="0.7038">
        <ele>116</ele>
      </trkpt>
      <trkpt lat="44.49277" lon="0.70326">
        <ele>111</ele>
      </trkpt>
      <trkpt lat="44.49265" lon="0.70284">
        <ele>108</ele>
      </trkpt>
      <trkpt lat="44.49254" lon="0.70229">
        <ele>106</ele>
      </trkpt>
      <trkpt lat="44.49242" lon="0.70182">
        <ele>105</ele>
      </trkpt>
      <trkpt lat="44.49237" lon="0.70142">
        <ele>103</ele>
      </trkpt>
      <trkpt lat="44.49237" lon="0.70116">
        <ele>102</ele>
      </trkpt>
      <trkpt lat="44.49235" lon="0.70101">
        <ele>101</ele>
      </trkpt>
      <trkpt lat="44.49229" lon="0.70073">
        <ele>99</ele>
      </trkpt>
      <trkpt lat="44.49209" lon="0.70026">
        <ele>97</ele>
      </trkpt>
      <trkpt lat="44.49192" lon="0.69987">
        <ele>95</ele>
      </trkpt>
      <trkpt lat="44.49167" lon="0.69941">
        <ele>93</ele>
      </trkpt>
      <trkpt lat="44.49148" lon="0.69921">
        <ele>91</ele>
      </trkpt>
      <trkpt lat="44.49131" lon="0.69896">
        <ele>90</ele>
      </trkpt>
      <trkpt lat="44.49119" lon="0.69876">
        <ele>89</ele>
      </trkpt>
      <trkpt lat="44.49108" lon="0.69858">
        <ele>88</ele>
      </trkpt>
      <trkpt lat="44.491" lon="0.69839">
        <ele>87</ele>
      </trkpt>
      <trkpt lat="44.49093" lon="0.69828">
        <ele>87</ele>
      </trkpt>
      <trkpt lat="44.49078" lon="0.69823">
        <ele>87</ele>
      </trkpt>
      <trkpt lat="44.4906" lon="0.69822">
        <ele>87</ele>
      </trkpt>
      <trkpt lat="44.49041" lon="0.69822">
        <ele>87</ele>
      </trkpt>
      <trkpt lat="44.49022" lon="0.69823">
        <ele>88</ele>
      </trkpt>
      <trkpt lat="44.48994" lon="0.69817">
        <ele>89</ele>
      </trkpt>
      <trkpt lat="44.48967" lon="0.69804">
        <ele>90</ele>
      </trkpt>
      <trkpt lat="44.48944" lon="0.69794">
        <ele>91</ele>
      </trkpt>
      <trkpt lat="44.48924" lon="0.69777">
        <ele>92</ele>
      </trkpt>
      <trkpt lat="44.48908" lon="0.69749">
        <ele>94</ele>
      </trkpt>
      <trkpt lat="44.48897" lon="0.69731">
        <ele>95</ele>
      </trkpt>
      <trkpt lat="44.48857" lon="0.69667">
        <ele>99</ele>
      </trkpt>
      <trkpt lat="44.4884" lon="0.69643">
        <ele>99</ele>
      </trkpt>
      <trkpt lat="44.48853" lon="0.69581">
        <ele>101</ele>
      </trkpt>
      <trkpt lat="44.4886" lon="0.69559">
        <ele>102</ele>
      </trkpt>
      <trkpt lat="44.48898" lon="0.69506">
        <ele>104</ele>
      </trkpt>
      <trkpt lat="44.48916" lon="0.69483">
        <ele>106</ele>
      </trkpt>
      <trkpt lat="44.48927" lon="0.69453">
        <ele>107</ele>
      </trkpt>
      <trkpt lat="44.48941" lon="0.69414">
        <ele>108</ele>
      </trkpt>
      <trkpt lat="44.48959" lon="0.69367">
        <ele>110</ele>
      </trkpt>
      <trkpt lat="44.48989" lon="0.69302">
        <ele>112</ele>
      </trkpt>
      <trkpt lat="44.49009" lon="0.69262">
        <ele>113</ele>
      </trkpt>
      <trkpt lat="44.49017" lon="0.69237">
        <ele>114</ele>
      </trkpt>
      <trkpt lat="44.49021" lon="0.69215">
        <ele>115</ele>
      </trkpt>
      <trkpt lat="44.49026" lon="0.69179">
        <ele>118</ele>
      </trkpt>
      <trkpt lat="44.49038" lon="0.69167">
        <ele>120</ele>
      </trkpt>
      <trkpt lat="44.49059" lon="0.69143">
        <ele>125</ele>
      </trkpt>
      <trkpt lat="44.49071" lon="0.69119">
        <ele>128</ele>
      </trkpt>
      <trkpt lat="44.49089" lon="0.6912">
        <ele>131</ele>
      </trkpt>
      <trkpt lat="44.49101" lon="0.69103">
        <ele>133</ele>
      </trkpt>
      <trkpt lat="44.49112" lon="0.69082">
        <ele>137</ele>
      </trkpt>
      <trkpt lat="44.49123" lon="0.69053">
        <ele>140</ele>
      </trkpt>
      <trkpt lat="44.49145" lon="0.69007">
        <ele>142</ele>
      </trkpt>
      <trkpt lat="44.49163" lon="0.68969">
        <ele>143</ele>
      </trkpt>
      <trkpt lat="44.49184" lon="0.68907">
        <ele>144</ele>
      </trkpt>
      <trkpt lat="44.49194" lon="0.68877">
        <ele>144</ele>
      </trkpt>
      <trkpt lat="44.49216" lon="0.68805">
        <ele>145</ele>
      </trkpt>
      <trkpt lat="44.49224" lon="0.68764">
        <ele>147</ele>
      </trkpt>
      <trkpt lat="44.49237" lon="0.68729">
        <ele>148</ele>
      </trkpt>
      <trkpt lat="44.49253" lon="0.6869">
        <ele>150</ele>
      </trkpt>
      <trkpt lat="44.49274" lon="0.68642">
        <ele>151</ele>
      </trkpt>
      <trkpt lat="44.49313" lon="0.6858">
        <ele>151</ele>
      </trkpt>
      <trkpt lat="44.49354" lon="0.6852">
        <ele>151</ele>
      </trkpt>
      <trkpt lat="44.49372" lon="0.68493">
        <ele>150</ele>
      </trkpt>
      <trkpt lat="44.49388" lon="0.68469">
        <ele>149</ele>
      </trkpt>
      <trkpt lat="44.49396" lon="0.6844">
        <ele>150</ele>
      </trkpt>
      <trkpt lat="44.49404" lon="0.68423">
        <ele>151</ele>
      </trkpt>
      <trkpt lat="44.49413" lon="0.68383">
        <ele>151</ele>
      </trkpt>
      <trkpt lat="44.49426" lon="0.68326">
        <ele>154</ele>
      </trkpt>
      <trkpt lat="44.4943" lon="0.68297">
        <ele>156</ele>
      </trkpt>
      <trkpt lat="44.49476" lon="0.68309">
        <ele>154</ele>
      </trkpt>
      <trkpt lat="44.49521" lon="0.68327">
        <ele>148</ele>
      </trkpt>
      <trkpt lat="44.49541" lon="0.68336">
        <ele>145</ele>
      </trkpt>
      <trkpt lat="44.49583" lon="0.68355">
        <ele>139</ele>
      </trkpt>
      <trkpt lat="44.49612" lon="0.68367">
        <ele>134</ele>
      </trkpt>
      <trkpt lat="44.4963" lon="0.68374">
        <ele>132</ele>
      </trkpt>
      <trkpt lat="44.49657" lon="0.68378">
        <ele>130</ele>
      </trkpt>
      <trkpt lat="44.49683" lon="0.68383">
        <ele>129</ele>
      </trkpt>
      <trkpt lat="44.49699" lon="0.68381">
        <ele>130</ele>
      </trkpt>
      <trkpt lat="44.49744" lon="0.68383">
        <ele>130</ele>
      </trkpt>
      <trkpt lat="44.49778" lon="0.68387">
        <ele>129</ele>
      </trkpt>
      <trkpt lat="44.49798" lon="0.68393">
        <ele>128</ele>
      </trkpt>
      <trkpt lat="44.49819" lon="0.68401">
        <ele>128</ele>
      </trkpt>
      <trkpt lat="44.49841" lon="0.68424">
        <ele>128</ele>
      </trkpt>
      <trkpt lat="44.49858" lon="0.68452">
        <ele>129</ele>
      </trkpt>
      <trkpt lat="44.49871" lon="0.68478">
        <ele>129</ele>
      </trkpt>
      <trkpt lat="44.49878" lon="0.68503">
        <ele>131</ele>
      </trkpt>
      <trkpt lat="44.49879" lon="0.68521">
        <ele>132</ele>
      </trkpt>
      <trkpt lat="44.49882" lon="0.6855">
        <ele>135</ele>
      </trkpt>
      <trkpt lat="44.49884" lon="0.68583">
        <ele>137</ele>
      </trkpt>
      <trkpt lat="44.49893" lon="0.68608">
        <ele>139</ele>
      </trkpt>
      <trkpt lat="44.499" lon="0.68625">
        <ele>141</ele>
      </trkpt>
      <trkpt lat="44.49926" lon="0.68661">
        <ele>145</ele>
      </trkpt>
      <trkpt lat="44.49966" lon="0.68713">
        <ele>147</ele>
      </trkpt>
      <trkpt lat="44.49992" lon="0.68756">
        <ele>148</ele>
      </trkpt>
      <trkpt lat="44.50012" lon="0.68803">
        <ele>149</ele>
      </trkpt>
      <trkpt lat="44.50025" lon="0.68838">
        <ele>149</ele>
      </trkpt>
      <trkpt lat="44.5003" lon="0.68862">
        <ele>149</ele>
      </trkpt>
      <trkpt lat="44.50039" lon="0.68885">
        <ele>148</ele>
      </trkpt>
      <trkpt lat="44.5003" lon="0.68948">
        <ele>144</ele>
      </trkpt>
      <trkpt lat="44.50021" lon="0.68996">
        <ele>142</ele>
      </trkpt>
      <trkpt lat="44.50017" lon="0.6903">
        <ele>140</ele>
      </trkpt>
      <trkpt lat="44.50015" lon="0.69054">
        <ele>139</ele>
      </trkpt>
      <trkpt lat="44.50013" lon="0.69084">
        <ele>137</ele>
      </trkpt>
      <trkpt lat="44.50013" lon="0.69098">
        <ele>136</ele>
      </trkpt>
      <trkpt lat="44.50014" lon="0.69131">
        <ele>134</ele>
      </trkpt>
      <trkpt lat="44.50015" lon="0.69154">
        <ele>133</ele>
      </trkpt>
      <trkpt lat="44.50022" lon="0.69176">
        <ele>131</ele>
      </trkpt>
      <trkpt lat="44.50035" lon="0.69215">
        <ele>129</ele>
      </trkpt>
      <trkpt lat="44.50059" lon="0.69272">
        <ele>124</ele>
      </trkpt>
      <trkpt lat="44.50069" lon="0.69296">
        <ele>122</ele>
      </trkpt>
      <trkpt lat="44.5008" lon="0.69303">
        <ele>120</ele>
      </trkpt>
      <trkpt lat="44.50093" lon="0.69309">
        <ele>119</ele>
      </trkpt>
      <trkpt lat="44.50115" lon="0.69307">
        <ele>116</ele>
      </trkpt>
      <trkpt lat="44.50125" lon="0.69297">
        <ele>115</ele>
      </trkpt>
      <trkpt lat="44.5014" lon="0.69286">
        <ele>114</ele>
      </trkpt>
      <trkpt lat="44.5015" lon="0.69281">
        <ele>113</ele>
      </trkpt>
      <trkpt lat="44.5016" lon="0.69284">
        <ele>111</ele>
      </trkpt>
      <trkpt lat="44.50196" lon="0.69319">
        <ele>106</ele>
      </trkpt>
      <trkpt lat="44.50266" lon="0.69381">
        <ele>102</ele>
      </trkpt>
      <trkpt lat="44.50324" lon="0.6942">
        <ele>106</ele>
      </trkpt>
      <trkpt lat="44.50361" lon="0.69447">
        <ele>111</ele>
      </trkpt>
      <trkpt lat="44.50407" lon="0.69485">
        <ele>115</ele>
      </trkpt>
      <trkpt lat="44.50484" lon="0.69533">
        <ele>119</ele>
      </trkpt>
      <trkpt lat="44.5051" lon="0.69537">
        <ele>120</ele>
      </trkpt>
      <trkpt lat="44.50567" lon="0.6954">
        <ele>123</ele>
      </trkpt>
      <trkpt lat="44.50611" lon="0.69549">
        <ele>128</ele>
      </trkpt>
      <trkpt lat="44.50624" lon="0.69556">
        <ele>130</ele>
      </trkpt>
      <trkpt lat="44.50635" lon="0.69573">
        <ele>131</ele>
      </trkpt>
      <trkpt lat="44.50657" lon="0.69579">
        <ele>133</ele>
      </trkpt>
      <trkpt lat="44.50684" lon="0.69579">
        <ele>136</ele>
      </trkpt>
      <trkpt lat="44.50713" lon="0.69582">
        <ele>138</ele>
      </trkpt>
      <trkpt lat="44.50738" lon="0.69581">
        <ele>139</ele>
      </trkpt>
      <trkpt lat="44.50747" lon="0.69546">
        <ele>142</ele>
      </trkpt>
      <trkpt lat="44.50756" lon="0.69507">
        <ele>145</ele>
      </trkpt>
      <trkpt lat="44.50761" lon="0.69466">
        <ele>150</ele>
      </trkpt>
      <trkpt lat="44.50765" lon="0.694">
        <ele>154</ele>
      </trkpt>
      <trkpt lat="44.50774" lon="0.69379">
        <ele>155</ele>
      </trkpt>
      <trkpt lat="44.50803" lon="0.69307">
        <ele>158</ele>
      </trkpt>
      <trkpt lat="44.50818" lon="0.69275">
        <ele>158</ele>
      </trkpt>
      <trkpt lat="44.50837" lon="0.69256">
        <ele>159</ele>
      </trkpt>
      <trkpt lat="44.50858" lon="0.69243">
        <ele>159</ele>
      </trkpt>
      <trkpt lat="44.5092" lon="0.69199">
        <ele>161</ele>
      </trkpt>
      <trkpt lat="44.5096" lon="0.69171">
        <ele>161</ele>
      </trkpt>
      <trkpt lat="44.50978" lon="0.69101">
        <ele>161</ele>
      </trkpt>
      <trkpt lat="44.50998" lon="0.69019">
        <ele>159</ele>
      </trkpt>
      <trkpt lat="44.51053" lon="0.69064">
        <ele>155</ele>
      </trkpt>
      <trkpt lat="44.51086" lon="0.69093">
        <ele>153</ele>
      </trkpt>
      <trkpt lat="44.51108" lon="0.69107">
        <ele>151</ele>
      </trkpt>
      <trkpt lat="44.51123" lon="0.69119">
        <ele>150</ele>
      </trkpt>
      <trkpt lat="44.51132" lon="0.69133">
        <ele>150</ele>
      </trkpt>
      <trkpt lat="44.51143" lon="0.69151">
        <ele>150</ele>
      </trkpt>
      <trkpt lat="44.51143" lon="0.69172">
        <ele>151</ele>
      </trkpt>
      <trkpt lat="44.51144" lon="0.69198">
        <ele>152</ele>
      </trkpt>
      <trkpt lat="44.51151" lon="0.69233">
        <ele>149</ele>
      </trkpt>
      <trkpt lat="44.51162" lon="0.69294">
        <ele>145</ele>
      </trkpt>
      <trkpt lat="44.51181" lon="0.6937">
        <ele>138</ele>
      </trkpt>
      <trkpt lat="44.5119" lon="0.69403">
        <ele>136</ele>
      </trkpt>
      <trkpt lat="44.51214" lon="0.69388">
        <ele>134</ele>
      </trkpt>
      <trkpt lat="44.51254" lon="0.69366">
        <ele>132</ele>
      </trkpt>
      <trkpt lat="44.51284" lon="0.69334">
        <ele>132</ele>
      </trkpt>
      <trkpt lat="44.51328" lon="0.69297">
        <ele>130</ele>
      </trkpt>
      <trkpt lat="44.51365" lon="0.69259">
        <ele>127</ele>
      </trkpt>
      <trkpt lat="44.51383" lon="0.69245">
        <ele>125</ele>
      </trkpt>
      <trkpt lat="44.51402" lon="0.69228">
        <ele>125</ele>
      </trkpt>
      <trkpt lat="44.51408" lon="0.69208">
        <ele>126</ele>
      </trkpt>
      <trkpt lat="44.51428" lon="0.69152">
        <ele>127</ele>
      </trkpt>
      <trkpt lat="44.51456" lon="0.69081">
        <ele>128</ele>
      </trkpt>
      <trkpt lat="44.51473" lon="0.69074">
        <ele>126</ele>
      </trkpt>
      <trkpt lat="44.51487" lon="0.69083">
        <ele>126</ele>
      </trkpt>
      <trkpt lat="44.51504" lon="0.69093">
        <ele>126</ele>
      </trkpt>
      <trkpt lat="44.51519" lon="0.69115">
        <ele>127</ele>
      </trkpt>
      <trkpt lat="44.51555" lon="0.69145">
        <ele>130</ele>
      </trkpt>
      <trkpt lat="44.51588" lon="0.6917">
        <ele>134</ele>
      </trkpt>
      <trkpt lat="44.5166" lon="0.69218">
        <ele>141</ele>
      </trkpt>
      <trkpt lat="44.51685" lon="0.69244">
        <ele>144</ele>
      </trkpt>
      <trkpt lat="44.51731" lon="0.69282">
        <ele>151</ele>
      </trkpt>
      <trkpt lat="44.51779" lon="0.69316">
        <ele>159</ele>
      </trkpt>
      <trkpt lat="44.51789" lon="0.69322">
        <ele>160</ele>
      </trkpt>
      <trkpt lat="44.51803" lon="0.693">
        <ele>160</ele>
      </trkpt>
      <trkpt lat="44.51816" lon="0.69273">
        <ele>160</ele>
      </trkpt>
      <trkpt lat="44.51842" lon="0.69216">
        <ele>159</ele>
      </trkpt>
      <trkpt lat="44.51858" lon="0.6917">
        <ele>159</ele>
      </trkpt>
      <trkpt lat="44.51869" lon="0.69147">
        <ele>160</ele>
      </trkpt>
      <trkpt lat="44.5187" lon="0.69122">
        <ele>161</ele>
      </trkpt>
      <trkpt lat="44.51871" lon="0.69108">
        <ele>161</ele>
      </trkpt>
      <trkpt lat="44.51876" lon="0.69089">
        <ele>162</ele>
      </trkpt>
      <trkpt lat="44.51886" lon="0.6909">
        <ele>165</ele>
      </trkpt>
      <trkpt lat="44.51894" lon="0.6907">
        <ele>168</ele>
      </trkpt>
      <trkpt lat="44.51903" lon="0.69032">
        <ele>172</ele>
      </trkpt>
      <trkpt lat="44.51911" lon="0.69001">
        <ele>174</ele>
      </trkpt>
      <trkpt lat="44.51918" lon="0.68971">
        <ele>176</ele>
      </trkpt>
      <trkpt lat="44.51923" lon="0.68929">
        <ele>177</ele>
      </trkpt>
      <trkpt lat="44.5193" lon="0.68902">
        <ele>179</ele>
      </trkpt>
      <trkpt lat="44.51935" lon="0.68872">
        <ele>182</ele>
      </trkpt>
      <trkpt lat="44.51933" lon="0.68848">
        <ele>182</ele>
      </trkpt>
      <trkpt lat="44.51926" lon="0.68822">
        <ele>181</ele>
      </trkpt>
      <trkpt lat="44.51917" lon="0.688">
        <ele>180</ele>
      </trkpt>
      <trkpt lat="44.51919" lon="0.68754">
        <ele>181</ele>
      </trkpt>
      <trkpt lat="44.51922" lon="0.68718">
        <ele>181</ele>
      </trkpt>
      <trkpt lat="44.51922" lon="0.68688">
        <ele>178</ele>
      </trkpt>
      <trkpt lat="44.51917" lon="0.68674">
        <ele>176</ele>
      </trkpt>
      <trkpt lat="44.51907" lon="0.68629">
        <ele>169</ele>
      </trkpt>
      <trkpt lat="44.51902" lon="0.68607">
        <ele>166</ele>
      </trkpt>
      <trkpt lat="44.51906" lon="0.68579">
        <ele>165</ele>
      </trkpt>
      <trkpt lat="44.5191" lon="0.68508">
        <ele>162</ele>
      </trkpt>
      <trkpt lat="44.51921" lon="0.68475">
        <ele>162</ele>
      </trkpt>
      <trkpt lat="44.51932" lon="0.68422">
        <ele>162</ele>
      </trkpt>
      <trkpt lat="44.5194" lon="0.68399">
        <ele>163</ele>
      </trkpt>
      <trkpt lat="44.51966" lon="0.68412">
        <ele>161</ele>
      </trkpt>
      <trkpt lat="44.51983" lon="0.68421">
        <ele>158</ele>
      </trkpt>
      <trkpt lat="44.52006" lon="0.68434">
        <ele>155</ele>
      </trkpt>
      <trkpt lat="44.52022" lon="0.68443">
        <ele>154</ele>
      </trkpt>
      <trkpt lat="44.52057" lon="0.68483">
        <ele>151</ele>
      </trkpt>
      <trkpt lat="44.5209" lon="0.68528">
        <ele>149</ele>
      </trkpt>
      <trkpt lat="44.52119" lon="0.68579">
        <ele>149</ele>
      </trkpt>
      <trkpt lat="44.52148" lon="0.68633">
        <ele>149</ele>
      </trkpt>
      <trkpt lat="44.5217" lon="0.68687">
        <ele>151</ele>
      </trkpt>
      <trkpt lat="44.52183" lon="0.68715">
        <ele>151</ele>
      </trkpt>
      <trkpt lat="44.52193" lon="0.68729">
        <ele>151</ele>
      </trkpt>
      <trkpt lat="44.52217" lon="0.68746">
        <ele>151</ele>
      </trkpt>
      <trkpt lat="44.52238" lon="0.68755">
        <ele>151</ele>
      </trkpt>
      <trkpt lat="44.52256" lon="0.68762">
        <ele>151</ele>
      </trkpt>
      <trkpt lat="44.52272" lon="0.68761">
        <ele>150</ele>
      </trkpt>
      <trkpt lat="44.52286" lon="0.68763">
        <ele>150</ele>
      </trkpt>
      <trkpt lat="44.52304" lon="0.68759">
        <ele>149</ele>
      </trkpt>
      <trkpt lat="44.5235" lon="0.6874">
        <ele>145</ele>
      </trkpt>
      <trkpt lat="44.52382" lon="0.68728">
        <ele>142</ele>
      </trkpt>
      <trkpt lat="44.524" lon="0.68725">
        <ele>142</ele>
      </trkpt>
      <trkpt lat="44.52422" lon="0.68726">
        <ele>141</ele>
      </trkpt>
      <trkpt lat="44.52441" lon="0.68731">
        <ele>141</ele>
      </trkpt>
      <trkpt lat="44.52438" lon="0.68766">
        <ele>139</ele>
      </trkpt>
      <trkpt lat="44.52437" lon="0.68824">
        <ele>137</ele>
      </trkpt>
      <trkpt lat="44.52435" lon="0.6886">
        <ele>137</ele>
      </trkpt>
      <trkpt lat="44.5245" lon="0.68902">
        <ele>137</ele>
      </trkpt>
      <trkpt lat="44.52466" lon="0.68935">
        <ele>136</ele>
      </trkpt>
      <trkpt lat="44.52478" lon="0.68971">
        <ele>135</ele>
      </trkpt>
      <trkpt lat="44.52486" lon="0.69014">
        <ele>131</ele>
      </trkpt>
      <trkpt lat="44.52494" lon="0.6905">
        <ele>129</ele>
      </trkpt>
      <trkpt lat="44.52508" lon="0.69099">
        <ele>125</ele>
      </trkpt>
      <trkpt lat="44.52535" lon="0.69158">
        <ele>119</ele>
      </trkpt>
      <trkpt lat="44.52554" lon="0.69204">
        <ele>115</ele>
      </trkpt>
      <trkpt lat="44.5257" lon="0.69232">
        <ele>114</ele>
      </trkpt>
      <trkpt lat="44.52595" lon="0.69271">
        <ele>116</ele>
      </trkpt>
      <trkpt lat="44.52617" lon="0.69314">
        <ele>120</ele>
      </trkpt>
      <trkpt lat="44.52634" lon="0.69357">
        <ele>126</ele>
      </trkpt>
      <trkpt lat="44.52641" lon="0.69403">
        <ele>130</ele>
      </trkpt>
      <trkpt lat="44.52657" lon="0.69479">
        <ele>129</ele>
      </trkpt>
      <trkpt lat="44.52659" lon="0.69497">
        <ele>127</ele>
      </trkpt>
      <trkpt lat="44.52678" lon="0.69614">
        <ele>120</ele>
      </trkpt>
      <trkpt lat="44.52696" lon="0.69705">
        <ele>116</ele>
      </trkpt>
      <trkpt lat="44.52701" lon="0.69763">
        <ele>115</ele>
      </trkpt>
      <trkpt lat="44.52668" lon="0.69781">
        <ele>115</ele>
      </trkpt>
      <trkpt lat="44.52672" lon="0.6982">
        <ele>113</ele>
      </trkpt>
      <trkpt lat="44.52688" lon="0.69873">
        <ele>112</ele>
      </trkpt>
      <trkpt lat="44.52699" lon="0.69892">
        <ele>112</ele>
      </trkpt>
      <trkpt lat="44.52707" lon="0.69938">
        <ele>113</ele>
      </trkpt>
      <trkpt lat="44.52708" lon="0.69964">
        <ele>113</ele>
      </trkpt>
      <trkpt lat="44.52703" lon="0.70005">
        <ele>114</ele>
      </trkpt>
      <trkpt lat="44.52682" lon="0.70133">
        <ele>121</ele>
      </trkpt>
      <trkpt lat="44.52682" lon="0.70151">
        <ele>122</ele>
      </trkpt>
      <trkpt lat="44.5269" lon="0.70176">
        <ele>124</ele>
      </trkpt>
      <trkpt lat="44.52706" lon="0.70195">
        <ele>124</ele>
      </trkpt>
      <trkpt lat="44.52714" lon="0.70231">
        <ele>126</ele>
      </trkpt>
      <trkpt lat="44.52704" lon="0.70236">
        <ele>126</ele>
      </trkpt>
      <trkpt lat="44.52679" lon="0.70244">
        <ele>127</ele>
      </trkpt>
      <trkpt lat="44.52644" lon="0.70256">
        <ele>128</ele>
      </trkpt>
      <trkpt lat="44.52612" lon="0.70254">
        <ele>129</ele>
      </trkpt>
      <trkpt lat="44.52579" lon="0.7025">
        <ele>130</ele>
      </trkpt>
      <trkpt lat="44.52483" lon="0.70244">
        <ele>134</ele>
      </trkpt>
      <trkpt lat="44.52465" lon="0.70241">
        <ele>135</ele>
      </trkpt>
      <trkpt lat="44.52441" lon="0.70254">
        <ele>136</ele>
      </trkpt>
      <trkpt lat="44.52406" lon="0.70255">
        <ele>138</ele>
      </trkpt>
      <trkpt lat="44.52392" lon="0.70256">
        <ele>139</ele>
      </trkpt>
      <trkpt lat="44.52338" lon="0.70257">
        <ele>143</ele>
      </trkpt>
      <trkpt lat="44.52306" lon="0.70258">
        <ele>144</ele>
      </trkpt>
      <trkpt lat="44.52279" lon="0.70272">
        <ele>145</ele>
      </trkpt>
      <trkpt lat="44.52233" lon="0.70292">
        <ele>147</ele>
      </trkpt>
      <trkpt lat="44.52199" lon="0.7031">
        <ele>148</ele>
      </trkpt>
      <trkpt lat="44.52168" lon="0.70322">
        <ele>150</ele>
      </trkpt>
      <trkpt lat="44.5215" lon="0.70326">
        <ele>152</ele>
      </trkpt>
      <trkpt lat="44.52132" lon="0.70328">
        <ele>154</ele>
      </trkpt>
      <trkpt lat="44.52106" lon="0.70332">
        <ele>156</ele>
      </trkpt>
      <trkpt lat="44.52086" lon="0.70327">
        <ele>158</ele>
      </trkpt>
      <trkpt lat="44.5205" lon="0.70319">
        <ele>162</ele>
      </trkpt>
      <trkpt lat="44.52037" lon="0.70316">
        <ele>163</ele>
      </trkpt>
      <trkpt lat="44.52017" lon="0.70312">
        <ele>165</ele>
      </trkpt>
      <trkpt lat="44.51996" lon="0.70308">
        <ele>168</ele>
      </trkpt>
      <trkpt lat="44.51968" lon="0.70315">
        <ele>170</ele>
        <extensions>
          <visugpx:TrkExtension xmlns:visugpx="https://www.visugpx.com/editgpx/">
            <visugpx:node>1</visugpx:node>
            </visugpx:TrkExtension>
        </extensions>
      </trkpt>
    </trkseg>
  </trk>
  <trk>
    <name><![CDATA[2015CailladellesCrouzillacLiaison]]></name>
    <extensions>
      <line xmlns="http://www.topografix.com/GPX/gpx_style/0/2">
        <color>00FFFF</color>
        <width>4</width>
      </line>
    </extensions>
    <trkseg>
      <trkpt lat="44.49431" lon="0.68297">
        <ele>156</ele>
      </trkpt>
      <trkpt lat="44.4944" lon="0.68267">
        <ele>159</ele>
      </trkpt>
      <trkpt lat="44.49468" lon="0.68211">
        <ele>161</ele>
      </trkpt>
      <trkpt lat="44.49501" lon="0.68162">
        <ele>162</ele>
      </trkpt>
      <trkpt lat="44.49532" lon="0.68126">
        <ele>161</ele>
      </trkpt>
      <trkpt lat="44.49546" lon="0.6811">
        <ele>160</ele>
      </trkpt>
      <trkpt lat="44.49557" lon="0.68085">
        <ele>161</ele>
      </trkpt>
      <trkpt lat="44.49563" lon="0.68073">
        <ele>162</ele>
      </trkpt>
      <trkpt lat="44.49568" lon="0.68056">
        <ele>164</ele>
      </trkpt>
    </trkseg>
  </trk>
  <trk>
    <name><![CDATA[CailladellesBoulede]]></name>
    <extensions>
      <line xmlns="http://www.topografix.com/GPX/gpx_style/0/2">
        <color>FFFF00</color>
        <width>4</width>
      </line>
    </extensions>
    <trkseg>
      <trkpt lat="44.51967" lon="0.70315">
        <ele>170</ele>
      </trkpt>
      <trkpt lat="44.51967" lon="0.70325">
        <ele>170</ele>
      </trkpt>
      <trkpt lat="44.51966" lon="0.70357">
        <ele>169</ele>
      </trkpt>
      <trkpt lat="44.51963" lon="0.70403">
        <ele>168</ele>
      </trkpt>
      <trkpt lat="44.51959" lon="0.70451">
        <ele>166</ele>
      </trkpt>
      <trkpt lat="44.51959" lon="0.70488">
        <ele>165</ele>
      </trkpt>
      <trkpt lat="44.5195" lon="0.70528">
        <ele>165</ele>
      </trkpt>
      <trkpt lat="44.51942" lon="0.70571">
        <ele>165</ele>
      </trkpt>
      <trkpt lat="44.51923" lon="0.7062">
        <ele>166</ele>
      </trkpt>
      <trkpt lat="44.51905" lon="0.70656">
        <ele>166</ele>
      </trkpt>
      <trkpt lat="44.51878" lon="0.70692">
        <ele>167</ele>
      </trkpt>
      <trkpt lat="44.51855" lon="0.70714">
        <ele>170</ele>
      </trkpt>
      <trkpt lat="44.51841" lon="0.70734">
        <ele>170</ele>
      </trkpt>
      <trkpt lat="44.51835" lon="0.70761">
        <ele>170</ele>
      </trkpt>
      <trkpt lat="44.51822" lon="0.70769">
        <ele>169</ele>
      </trkpt>
      <trkpt lat="44.51835" lon="0.70809">
        <ele>167</ele>
      </trkpt>
      <trkpt lat="44.51847" lon="0.70864">
        <ele>162</ele>
      </trkpt>
      <trkpt lat="44.51854" lon="0.70897">
        <ele>158</ele>
      </trkpt>
      <trkpt lat="44.51858" lon="0.70916">
        <ele>156</ele>
      </trkpt>
      <trkpt lat="44.519" lon="0.70943">
        <ele>154</ele>
      </trkpt>
      <trkpt lat="44.51936" lon="0.70966">
        <ele>154</ele>
      </trkpt>
      <trkpt lat="44.51961" lon="0.70982">
        <ele>154</ele>
      </trkpt>
      <trkpt lat="44.52" lon="0.70985">
        <ele>153</ele>
      </trkpt>
      <trkpt lat="44.52037" lon="0.70991">
        <ele>150</ele>
      </trkpt>
      <trkpt lat="44.52073" lon="0.71029">
        <ele>144</ele>
      </trkpt>
      <trkpt lat="44.52104" lon="0.71063">
        <ele>142</ele>
      </trkpt>
      <trkpt lat="44.52134" lon="0.7109">
        <ele>142</ele>
      </trkpt>
      <trkpt lat="44.52146" lon="0.71095">
        <ele>143</ele>
      </trkpt>
      <trkpt lat="44.52167" lon="0.7109">
        <ele>144</ele>
      </trkpt>
      <trkpt lat="44.52197" lon="0.7108">
        <ele>145</ele>
      </trkpt>
      <trkpt lat="44.52234" lon="0.71071">
        <ele>146</ele>
      </trkpt>
      <trkpt lat="44.52266" lon="0.71128">
        <ele>144</ele>
      </trkpt>
      <trkpt lat="44.52297" lon="0.7119">
        <ele>144</ele>
      </trkpt>
      <trkpt lat="44.52317" lon="0.71228">
        <ele>144</ele>
      </trkpt>
      <trkpt lat="44.52339" lon="0.71254">
        <ele>143</ele>
      </trkpt>
      <trkpt lat="44.52367" lon="0.71277">
        <ele>140</ele>
      </trkpt>
      <trkpt lat="44.52406" lon="0.71309">
        <ele>139</ele>
      </trkpt>
      <trkpt lat="44.52441" lon="0.7134">
        <ele>137</ele>
      </trkpt>
      <trkpt lat="44.52483" lon="0.71382">
        <ele>132</ele>
      </trkpt>
      <trkpt lat="44.52486" lon="0.71423">
        <ele>130</ele>
      </trkpt>
      <trkpt lat="44.52493" lon="0.71439">
        <ele>129</ele>
      </trkpt>
      <trkpt lat="44.52526" lon="0.71471">
        <ele>124</ele>
      </trkpt>
      <trkpt lat="44.52559" lon="0.71501">
        <ele>122</ele>
      </trkpt>
      <trkpt lat="44.52607" lon="0.71554">
        <ele>118.67</ele>
      </trkpt>
      <trkpt lat="44.5264" lon="0.71587">
        <ele>115</ele>
      </trkpt>
      <trkpt lat="44.52684" lon="0.71632">
        <ele>112</ele>
      </trkpt>
      <trkpt lat="44.52737" lon="0.71687">
        <ele>108</ele>
      </trkpt>
      <trkpt lat="44.52769" lon="0.71717">
        <ele>105</ele>
      </trkpt>
      <trkpt lat="44.52791" lon="0.71701">
        <ele>107</ele>
      </trkpt>
      <trkpt lat="44.52816" lon="0.71691">
        <ele>106</ele>
      </trkpt>
      <trkpt lat="44.52868" lon="0.71656">
        <ele>104</ele>
      </trkpt>
      <trkpt lat="44.52915" lon="0.71621">
        <ele>99</ele>
      </trkpt>
      <trkpt lat="44.5295" lon="0.71584">
        <ele>96</ele>
      </trkpt>
      <trkpt lat="44.5299" lon="0.71548">
        <ele>95</ele>
      </trkpt>
      <trkpt lat="44.53033" lon="0.71507">
        <ele>94</ele>
      </trkpt>
      <trkpt lat="44.53073" lon="0.71481">
        <ele>93</ele>
      </trkpt>
      <trkpt lat="44.53107" lon="0.71456">
        <ele>91</ele>
      </trkpt>
      <trkpt lat="44.53127" lon="0.71443">
        <ele>89</ele>
      </trkpt>
      <trkpt lat="44.5311" lon="0.71476">
        <ele>90</ele>
      </trkpt>
      <trkpt lat="44.53122" lon="0.71512">
        <ele>88</ele>
      </trkpt>
      <trkpt lat="44.53139" lon="0.71566">
        <ele>85</ele>
      </trkpt>
      <trkpt lat="44.53177" lon="0.71684">
        <ele>80</ele>
      </trkpt>
      <trkpt lat="44.53211" lon="0.71805">
        <ele>80</ele>
      </trkpt>
      <trkpt lat="44.53236" lon="0.71886">
        <ele>78</ele>
      </trkpt>
      <trkpt lat="44.53254" lon="0.71944">
        <ele>78</ele>
      </trkpt>
      <trkpt lat="44.53269" lon="0.71989">
        <ele>81</ele>
      </trkpt>
      <trkpt lat="44.5329" lon="0.72054">
        <ele>87</ele>
      </trkpt>
      <trkpt lat="44.53296" lon="0.7207">
        <ele>88</ele>
      </trkpt>
      <trkpt lat="44.53306" lon="0.72099">
        <ele>88.85</ele>
      </trkpt>
      <trkpt lat="44.53315" lon="0.7213">
        <ele>89.73</ele>
      </trkpt>
      <trkpt lat="44.53322" lon="0.72164">
        <ele>92.59</ele>
      </trkpt>
      <trkpt lat="44.53325" lon="0.7221">
        <ele>99</ele>
      </trkpt>
      <trkpt lat="44.53318" lon="0.72243">
        <ele>101.04</ele>
      </trkpt>
      <trkpt lat="44.53314" lon="0.72286">
        <ele>103.54</ele>
      </trkpt>
      <trkpt lat="44.53327" lon="0.7232">
        <ele>105.24</ele>
      </trkpt>
      <trkpt lat="44.53357" lon="0.72333">
        <ele>105.24</ele>
      </trkpt>
      <trkpt lat="44.53399" lon="0.72352">
        <ele>104.19</ele>
      </trkpt>
      <trkpt lat="44.53455" lon="0.72371">
        <ele>103.99</ele>
      </trkpt>
      <trkpt lat="44.53538" lon="0.724">
        <ele>107.63</ele>
      </trkpt>
      <trkpt lat="44.53613" lon="0.72428">
        <ele>112.5</ele>
      </trkpt>
      <trkpt lat="44.5366" lon="0.7244">
        <ele>117</ele>
      </trkpt>
      <trkpt lat="44.53638" lon="0.72515">
        <ele>116</ele>
      </trkpt>
      <trkpt lat="44.5362" lon="0.72581">
        <ele>120</ele>
      </trkpt>
      <trkpt lat="44.536" lon="0.72645">
        <ele>123</ele>
      </trkpt>
      <trkpt lat="44.53599" lon="0.72679">
        <ele>121</ele>
      </trkpt>
      <trkpt lat="44.53595" lon="0.72701">
        <ele>120</ele>
      </trkpt>
      <trkpt lat="44.53577" lon="0.72723">
        <ele>118</ele>
      </trkpt>
      <trkpt lat="44.53557" lon="0.72742">
        <ele>116</ele>
      </trkpt>
      <trkpt lat="44.5353" lon="0.72768">
        <ele>112</ele>
      </trkpt>
      <trkpt lat="44.53516" lon="0.72787">
        <ele>110</ele>
      </trkpt>
      <trkpt lat="44.53515" lon="0.72822">
        <ele>108</ele>
      </trkpt>
      <trkpt lat="44.53517" lon="0.72851">
        <ele>110</ele>
      </trkpt>
      <trkpt lat="44.53511" lon="0.72892">
        <ele>109</ele>
      </trkpt>
      <trkpt lat="44.53498" lon="0.72932">
        <ele>109</ele>
      </trkpt>
      <trkpt lat="44.53497" lon="0.72953">
        <ele>110</ele>
      </trkpt>
      <trkpt lat="44.53503" lon="0.7302">
        <ele>110</ele>
      </trkpt>
      <trkpt lat="44.53518" lon="0.73049">
        <ele>112</ele>
      </trkpt>
      <trkpt lat="44.53497" lon="0.73091">
        <ele>112</ele>
      </trkpt>
      <trkpt lat="44.53469" lon="0.73133">
        <ele>112</ele>
      </trkpt>
      <trkpt lat="44.53455" lon="0.73153">
        <ele>113</ele>
      </trkpt>
      <trkpt lat="44.53431" lon="0.732">
        <ele>116</ele>
      </trkpt>
      <trkpt lat="44.53409" lon="0.73221">
        <ele>114</ele>
      </trkpt>
      <trkpt lat="44.53353" lon="0.7324">
        <ele>112</ele>
      </trkpt>
      <trkpt lat="44.53296" lon="0.73265">
        <ele>110</ele>
      </trkpt>
      <trkpt lat="44.53227" lon="0.73306">
        <ele>109</ele>
      </trkpt>
      <trkpt lat="44.53186" lon="0.73358">
        <ele>113</ele>
      </trkpt>
      <trkpt lat="44.53157" lon="0.73386">
        <ele>114</ele>
      </trkpt>
      <trkpt lat="44.53125" lon="0.73422">
        <ele>111</ele>
      </trkpt>
      <trkpt lat="44.53103" lon="0.73456">
        <ele>111</ele>
      </trkpt>
      <trkpt lat="44.53084" lon="0.73487">
        <ele>111</ele>
      </trkpt>
      <trkpt lat="44.53069" lon="0.73516">
        <ele>111</ele>
      </trkpt>
      <trkpt lat="44.53058" lon="0.73525">
        <ele>111</ele>
      </trkpt>
      <trkpt lat="44.53046" lon="0.73526">
        <ele>111</ele>
      </trkpt>
      <trkpt lat="44.53024" lon="0.7352">
        <ele>114</ele>
      </trkpt>
      <trkpt lat="44.52985" lon="0.73515">
        <ele>111</ele>
      </trkpt>
      <trkpt lat="44.52942" lon="0.73511">
        <ele>111</ele>
      </trkpt>
      <trkpt lat="44.52902" lon="0.73553">
        <ele>110</ele>
      </trkpt>
      <trkpt lat="44.52838" lon="0.73625">
        <ele>107</ele>
      </trkpt>
      <trkpt lat="44.52791" lon="0.73672">
        <ele>103</ele>
      </trkpt>
      <trkpt lat="44.5277" lon="0.73713">
        <ele>101</ele>
      </trkpt>
      <trkpt lat="44.52768" lon="0.7373">
        <ele>101</ele>
      </trkpt>
      <trkpt lat="44.52765" lon="0.73744">
        <ele>100</ele>
      </trkpt>
      <trkpt lat="44.52755" lon="0.73758">
        <ele>99</ele>
      </trkpt>
      <trkpt lat="44.52735" lon="0.73771">
        <ele>96</ele>
      </trkpt>
      <trkpt lat="44.5271" lon="0.73792">
        <ele>92</ele>
      </trkpt>
      <trkpt lat="44.52677" lon="0.73811">
        <ele>87</ele>
      </trkpt>
      <trkpt lat="44.52642" lon="0.73824">
        <ele>83</ele>
      </trkpt>
      <trkpt lat="44.52623" lon="0.73833">
        <ele>81</ele>
      </trkpt>
      <trkpt lat="44.526" lon="0.73841">
        <ele>79</ele>
      </trkpt>
      <trkpt lat="44.52603" lon="0.73872">
        <ele>79</ele>
      </trkpt>
      <trkpt lat="44.52617" lon="0.73904">
        <ele>79</ele>
      </trkpt>
      <trkpt lat="44.5263" lon="0.73927">
        <ele>79</ele>
      </trkpt>
      <trkpt lat="44.52649" lon="0.73951">
        <ele>79</ele>
      </trkpt>
      <trkpt lat="44.52687" lon="0.73946">
        <ele>80</ele>
      </trkpt>
      <trkpt lat="44.52705" lon="0.73946">
        <ele>81</ele>
      </trkpt>
      <trkpt lat="44.5272" lon="0.73957">
        <ele>80</ele>
      </trkpt>
      <trkpt lat="44.52737" lon="0.73981">
        <ele>77</ele>
      </trkpt>
      <trkpt lat="44.52739" lon="0.74006">
        <ele>75</ele>
      </trkpt>
      <trkpt lat="44.52742" lon="0.74045">
        <ele>72</ele>
      </trkpt>
      <trkpt lat="44.5274" lon="0.74073">
        <ele>73</ele>
      </trkpt>
      <trkpt lat="44.52737" lon="0.74112">
        <ele>74</ele>
      </trkpt>
      <trkpt lat="44.52735" lon="0.74166">
        <ele>75</ele>
      </trkpt>
      <trkpt lat="44.5273" lon="0.74199">
        <ele>76</ele>
      </trkpt>
      <trkpt lat="44.52723" lon="0.7422">
        <ele>81</ele>
      </trkpt>
      <trkpt lat="44.52703" lon="0.74224">
        <ele>77</ele>
      </trkpt>
      <trkpt lat="44.5268" lon="0.74223">
        <ele>80</ele>
      </trkpt>
      <trkpt lat="44.52645" lon="0.74207">
        <ele>77</ele>
      </trkpt>
      <trkpt lat="44.52615" lon="0.74191">
        <ele>76</ele>
      </trkpt>
      <trkpt lat="44.52578" lon="0.74195">
        <ele>76</ele>
      </trkpt>
      <trkpt lat="44.52544" lon="0.74197">
        <ele>77</ele>
      </trkpt>
      <trkpt lat="44.52516" lon="0.74192">
        <ele>78</ele>
      </trkpt>
      <trkpt lat="44.52503" lon="0.74187">
        <ele>78</ele>
      </trkpt>
      <trkpt lat="44.52439" lon="0.74133">
        <ele>79</ele>
      </trkpt>
      <trkpt lat="44.52375" lon="0.74089">
        <ele>82</ele>
      </trkpt>
      <trkpt lat="44.52345" lon="0.74074">
        <ele>77</ele>
      </trkpt>
      <trkpt lat="44.52323" lon="0.74076">
        <ele>78</ele>
      </trkpt>
      <trkpt lat="44.52284" lon="0.74085">
        <ele>82</ele>
      </trkpt>
      <trkpt lat="44.52237" lon="0.741">
        <ele>86</ele>
      </trkpt>
      <trkpt lat="44.522" lon="0.74116">
        <ele>89</ele>
      </trkpt>
      <trkpt lat="44.52173" lon="0.74144">
        <ele>90</ele>
      </trkpt>
      <trkpt lat="44.52149" lon="0.74176">
        <ele>89</ele>
      </trkpt>
      <trkpt lat="44.52132" lon="0.74225">
        <ele>87</ele>
      </trkpt>
      <trkpt lat="44.52113" lon="0.74227">
        <ele>82</ele>
      </trkpt>
      <trkpt lat="44.52103" lon="0.7423">
        <ele>79</ele>
      </trkpt>
      <trkpt lat="44.52085" lon="0.74238">
        <ele>77</ele>
      </trkpt>
      <trkpt lat="44.52067" lon="0.7425">
        <ele>77</ele>
      </trkpt>
      <trkpt lat="44.52046" lon="0.74272">
        <ele>79</ele>
      </trkpt>
      <trkpt lat="44.52017" lon="0.74287">
        <ele>79</ele>
      </trkpt>
      <trkpt lat="44.51993" lon="0.74296">
        <ele>82</ele>
      </trkpt>
      <trkpt lat="44.51981" lon="0.74292">
        <ele>75</ele>
      </trkpt>
      <trkpt lat="44.51966" lon="0.74283">
        <ele>73</ele>
      </trkpt>
      <trkpt lat="44.51944" lon="0.74257">
        <ele>71</ele>
      </trkpt>
      <trkpt lat="44.51897" lon="0.74211">
        <ele>71</ele>
      </trkpt>
      <trkpt lat="44.5185" lon="0.7417">
        <ele>71</ele>
      </trkpt>
      <trkpt lat="44.51786" lon="0.74117">
        <ele>71</ele>
      </trkpt>
      <trkpt lat="44.51725" lon="0.74078">
        <ele>73</ele>
      </trkpt>
      <trkpt lat="44.51688" lon="0.74059">
        <ele>74</ele>
      </trkpt>
      <trkpt lat="44.5165" lon="0.74031">
        <ele>75</ele>
      </trkpt>
      <trkpt lat="44.51622" lon="0.74006">
        <ele>83</ele>
      </trkpt>
      <trkpt lat="44.51595" lon="0.7398">
        <ele>77</ele>
      </trkpt>
      <trkpt lat="44.51573" lon="0.73957">
        <ele>78</ele>
      </trkpt>
      <trkpt lat="44.51533" lon="0.73893">
        <ele>81</ele>
      </trkpt>
      <trkpt lat="44.51507" lon="0.73838">
        <ele>82</ele>
      </trkpt>
      <trkpt lat="44.5148" lon="0.73781">
        <ele>87</ele>
      </trkpt>
      <trkpt lat="44.51463" lon="0.73748">
        <ele>91</ele>
      </trkpt>
      <trkpt lat="44.51452" lon="0.73715">
        <ele>93</ele>
      </trkpt>
      <trkpt lat="44.51447" lon="0.73685">
        <ele>94</ele>
      </trkpt>
      <trkpt lat="44.51442" lon="0.73643">
        <ele>95</ele>
      </trkpt>
      <trkpt lat="44.51439" lon="0.73604">
        <ele>95</ele>
      </trkpt>
      <trkpt lat="44.51431" lon="0.73555">
        <ele>107</ele>
      </trkpt>
      <trkpt lat="44.51422" lon="0.7352">
        <ele>96</ele>
      </trkpt>
      <trkpt lat="44.51408" lon="0.73481">
        <ele>98</ele>
      </trkpt>
      <trkpt lat="44.51392" lon="0.73445">
        <ele>101</ele>
      </trkpt>
      <trkpt lat="44.51378" lon="0.73415">
        <ele>102</ele>
      </trkpt>
      <trkpt lat="44.51359" lon="0.73383">
        <ele>104</ele>
      </trkpt>
      <trkpt lat="44.51343" lon="0.73363">
        <ele>105</ele>
      </trkpt>
      <trkpt lat="44.51315" lon="0.73343">
        <ele>106</ele>
      </trkpt>
      <trkpt lat="44.51292" lon="0.73331">
        <ele>107</ele>
      </trkpt>
      <trkpt lat="44.5127" lon="0.73316">
        <ele>107</ele>
      </trkpt>
      <trkpt lat="44.51244" lon="0.73301">
        <ele>109</ele>
      </trkpt>
      <trkpt lat="44.51218" lon="0.73291">
        <ele>111</ele>
      </trkpt>
      <trkpt lat="44.51198" lon="0.73289">
        <ele>112</ele>
      </trkpt>
      <trkpt lat="44.51172" lon="0.73295">
        <ele>113</ele>
      </trkpt>
      <trkpt lat="44.51154" lon="0.73308">
        <ele>114</ele>
      </trkpt>
      <trkpt lat="44.51128" lon="0.73331">
        <ele>116</ele>
      </trkpt>
      <trkpt lat="44.51125" lon="0.73323">
        <ele>121</ele>
      </trkpt>
      <trkpt lat="44.51095" lon="0.73244">
        <ele>112</ele>
      </trkpt>
      <trkpt lat="44.51071" lon="0.73181">
        <ele>114</ele>
      </trkpt>
      <trkpt lat="44.51051" lon="0.73131">
        <ele>116</ele>
      </trkpt>
      <trkpt lat="44.51016" lon="0.73049">
        <ele>116</ele>
      </trkpt>
      <trkpt lat="44.50992" lon="0.72999">
        <ele>115</ele>
      </trkpt>
      <trkpt lat="44.50966" lon="0.72957">
        <ele>115</ele>
      </trkpt>
      <trkpt lat="44.50901" lon="0.72866">
        <ele>119</ele>
      </trkpt>
      <trkpt lat="44.50885" lon="0.72825">
        <ele>119</ele>
      </trkpt>
      <trkpt lat="44.50875" lon="0.728">
        <ele>121</ele>
      </trkpt>
      <trkpt lat="44.50853" lon="0.72742">
        <ele>127</ele>
      </trkpt>
      <trkpt lat="44.50836" lon="0.72708">
        <ele>130</ele>
      </trkpt>
      <trkpt lat="44.50778" lon="0.72589">
        <ele>141</ele>
      </trkpt>
      <trkpt lat="44.50728" lon="0.72501">
        <ele>152</ele>
      </trkpt>
      <trkpt lat="44.50694" lon="0.72455">
        <ele>159</ele>
      </trkpt>
      <trkpt lat="44.50634" lon="0.72395">
        <ele>165</ele>
      </trkpt>
      <trkpt lat="44.5062" lon="0.72387">
        <ele>166</ele>
      </trkpt>
      <trkpt lat="44.50601" lon="0.72374">
        <ele>169</ele>
      </trkpt>
      <trkpt lat="44.50567" lon="0.7235">
        <ele>175</ele>
      </trkpt>
      <trkpt lat="44.5055" lon="0.72334">
        <ele>177</ele>
      </trkpt>
      <trkpt lat="44.50541" lon="0.72315">
        <ele>180</ele>
      </trkpt>
      <trkpt lat="44.50544" lon="0.72265">
        <ele>181</ele>
      </trkpt>
      <trkpt lat="44.50551" lon="0.72222">
        <ele>181</ele>
      </trkpt>
      <trkpt lat="44.50573" lon="0.7214">
        <ele>181</ele>
      </trkpt>
      <trkpt lat="44.50601" lon="0.72066">
        <ele>178</ele>
      </trkpt>
      <trkpt lat="44.50638" lon="0.7195">
        <ele>176</ele>
      </trkpt>
      <trkpt lat="44.50654" lon="0.71888">
        <ele>174</ele>
      </trkpt>
      <trkpt lat="44.50673" lon="0.71811">
        <ele>172</ele>
      </trkpt>
      <trkpt lat="44.50683" lon="0.71737">
        <ele>176</ele>
      </trkpt>
      <trkpt lat="44.50676" lon="0.71702">
        <ele>179</ele>
      </trkpt>
      <trkpt lat="44.50662" lon="0.71668">
        <ele>185</ele>
      </trkpt>
      <trkpt lat="44.50649" lon="0.71639">
        <ele>187</ele>
      </trkpt>
      <trkpt lat="44.50638" lon="0.71615">
        <ele>189</ele>
      </trkpt>
      <trkpt lat="44.50632" lon="0.71588">
        <ele>192</ele>
      </trkpt>
      <trkpt lat="44.50646" lon="0.71546">
        <ele>197</ele>
      </trkpt>
      <trkpt lat="44.50664" lon="0.71476">
        <ele>201</ele>
      </trkpt>
      <trkpt lat="44.50675" lon="0.71421">
        <ele>202</ele>
      </trkpt>
      <trkpt lat="44.50696" lon="0.71358">
        <ele>202</ele>
      </trkpt>
      <trkpt lat="44.50716" lon="0.71277">
        <ele>204</ele>
      </trkpt>
      <trkpt lat="44.50727" lon="0.71187">
        <ele>213</ele>
      </trkpt>
      <trkpt lat="44.50738" lon="0.7109">
        <ele>206</ele>
      </trkpt>
      <trkpt lat="44.50745" lon="0.71008">
        <ele>210</ele>
      </trkpt>
      <trkpt lat="44.50753" lon="0.70956">
        <ele>211</ele>
      </trkpt>
      <trkpt lat="44.5076" lon="0.70907">
        <ele>211</ele>
      </trkpt>
      <trkpt lat="44.50761" lon="0.70836">
        <ele>212</ele>
      </trkpt>
      <trkpt lat="44.50747" lon="0.70762">
        <ele>212</ele>
      </trkpt>
      <trkpt lat="44.50735" lon="0.70719">
        <ele>212</ele>
        <extensions>
          <visugpx:TrkExtension xmlns:visugpx="https://www.visugpx.com/editgpx/">
            <visugpx:node>1</visugpx:node>
            </visugpx:TrkExtension>
        </extensions>
      </trkpt>
    </trkseg>
  </trk>
</gpx>